<?xml version="1.0" encoding="UTF-8" standalone="no" ?>
<gpx xmlns="http://www.topografix.com/GPX/1/1" creator="www.cicloide.com" version="1.1" xmlns:xsi="http://www.w3.org/2001/XMLSchema-instance" xsi:schemaLocation="http://www.topografix.com/GPX/1/1 http://www.topografix.com/GPX/1/1/gpx.xsd">
  <trk>
    <name>www.cicloide.com 14737</name>
    <desc>www.cicloide.com 14737</desc>
    <trkseg>
      <trkpt lat="41.606060542" lon="2.540416909">
        <ele>134.72</ele>
        <time>2013-07-28T07:39:24Z</time>
      </trkpt>
      <trkpt lat="41.606285680" lon="2.540449683">
        <ele>134.24</ele>
        <time>2013-07-28T07:39:31Z</time>
      </trkpt>
      <trkpt lat="41.606522134" lon="2.540585218">
        <ele>134.24</ele>
        <time>2013-07-28T07:39:41Z</time>
      </trkpt>
      <trkpt lat="41.606682312" lon="2.540659063">
        <ele>134.72</ele>
        <time>2013-07-28T07:39:48Z</time>
      </trkpt>
      <trkpt lat="41.606884483" lon="2.540738858">
        <ele>135.68</ele>
        <time>2013-07-28T07:39:57Z</time>
      </trkpt>
      <trkpt lat="41.607034268" lon="2.540781522">
        <ele>135.68</ele>
        <time>2013-07-28T07:40:04Z</time>
      </trkpt>
      <trkpt lat="41.607176677" lon="2.540830808">
        <ele>136.16</ele>
        <time>2013-07-28T07:40:11Z</time>
      </trkpt>
      <trkpt lat="41.607397707" lon="2.540870706">
        <ele>136.64</ele>
        <time>2013-07-28T07:40:20Z</time>
      </trkpt>
      <trkpt lat="41.607572302" lon="2.540867940">
        <ele>137.13</ele>
        <time>2013-07-28T07:40:27Z</time>
      </trkpt>
      <trkpt lat="41.607742958" lon="2.540834915">
        <ele>137.13</ele>
        <time>2013-07-28T07:40:35Z</time>
      </trkpt>
      <trkpt lat="41.607900035" lon="2.540806668">
        <ele>137.61</ele>
        <time>2013-07-28T07:40:42Z</time>
      </trkpt>
      <trkpt lat="41.608088879" lon="2.540780433">
        <ele>138.09</ele>
        <time>2013-07-28T07:40:50Z</time>
      </trkpt>
      <trkpt lat="41.608207567" lon="2.540755874">
        <ele>138.09</ele>
        <time>2013-07-28T07:40:56Z</time>
      </trkpt>
      <trkpt lat="41.608440751" lon="2.540717987">
        <ele>139.53</ele>
        <time>2013-07-28T07:41:07Z</time>
      </trkpt>
      <trkpt lat="41.608472770" lon="2.540704828">
        <ele>113.09</ele>
        <time>2013-07-28T07:41:09Z</time>
      </trkpt>
      <trkpt lat="41.608488863" lon="2.540698793">
        <ele>113.09</ele>
        <time>2013-07-28T07:41:10Z</time>
      </trkpt>
      <trkpt lat="41.608546866" lon="2.540673899">
        <ele>116.46</ele>
        <time>2013-07-28T07:41:13Z</time>
      </trkpt>
      <trkpt lat="41.608570084" lon="2.540670462">
        <ele>116.46</ele>
        <time>2013-07-28T07:41:14Z</time>
      </trkpt>
      <trkpt lat="41.608772339" lon="2.540656632">
        <ele>116.46</ele>
        <time>2013-07-28T07:41:22Z</time>
      </trkpt>
      <trkpt lat="41.608890105" lon="2.540649340">
        <ele>117.90</ele>
        <time>2013-07-28T07:41:27Z</time>
      </trkpt>
      <trkpt lat="41.609091941" lon="2.540633246">
        <ele>118.38</ele>
        <time>2013-07-28T07:41:35Z</time>
      </trkpt>
      <trkpt lat="41.609289587" lon="2.540610783">
        <ele>118.86</ele>
        <time>2013-07-28T07:41:43Z</time>
      </trkpt>
      <trkpt lat="41.609492680" lon="2.540578932">
        <ele>119.82</ele>
        <time>2013-07-28T07:41:51Z</time>
      </trkpt>
      <trkpt lat="41.609725697" lon="2.540528892">
        <ele>120.78</ele>
        <time>2013-07-28T07:42:00Z</time>
      </trkpt>
      <trkpt lat="41.609915547" lon="2.540535262">
        <ele>121.74</ele>
        <time>2013-07-28T07:42:07Z</time>
      </trkpt>
      <trkpt lat="41.609942621" lon="2.540556636">
        <ele>121.74</ele>
        <time>2013-07-28T07:42:08Z</time>
      </trkpt>
      <trkpt lat="41.610037420" lon="2.540795436">
        <ele>123.19</ele>
        <time>2013-07-28T07:42:17Z</time>
      </trkpt>
      <trkpt lat="41.610119814" lon="2.541030632">
        <ele>124.15</ele>
        <time>2013-07-28T07:42:26Z</time>
      </trkpt>
      <trkpt lat="41.610185109" lon="2.541228194">
        <ele>125.11</ele>
        <time>2013-07-28T07:42:35Z</time>
      </trkpt>
      <trkpt lat="41.610214194" lon="2.541343445">
        <ele>125.59</ele>
        <time>2013-07-28T07:42:44Z</time>
      </trkpt>
      <trkpt lat="41.610223582" lon="2.541365992">
        <ele>125.59</ele>
        <time>2013-07-28T07:42:46Z</time>
      </trkpt>
      <trkpt lat="41.610359369" lon="2.541371692">
        <ele>126.55</ele>
        <time>2013-07-28T07:42:53Z</time>
      </trkpt>
      <trkpt lat="41.610596996" lon="2.541275384">
        <ele>127.51</ele>
        <time>2013-07-28T07:43:03Z</time>
      </trkpt>
      <trkpt lat="41.610913245" lon="2.541142363">
        <ele>129.43</ele>
        <time>2013-07-28T07:43:16Z</time>
      </trkpt>
      <trkpt lat="41.611237457" lon="2.541015377">
        <ele>130.88</ele>
        <time>2013-07-28T07:43:29Z</time>
      </trkpt>
      <trkpt lat="41.611507522" lon="2.540908676">
        <ele>132.80</ele>
        <time>2013-07-28T07:43:40Z</time>
      </trkpt>
      <trkpt lat="41.611818072" lon="2.540850589">
        <ele>133.76</ele>
        <time>2013-07-28T07:43:51Z</time>
      </trkpt>
      <trkpt lat="41.612150498" lon="2.540869532">
        <ele>135.20</ele>
        <time>2013-07-28T07:44:03Z</time>
      </trkpt>
      <trkpt lat="41.612461886" lon="2.540889649">
        <ele>136.64</ele>
        <time>2013-07-28T07:44:15Z</time>
      </trkpt>
      <trkpt lat="41.612720467" lon="2.540909346">
        <ele>137.61</ele>
        <time>2013-07-28T07:44:25Z</time>
      </trkpt>
      <trkpt lat="41.612945186" lon="2.540930469">
        <ele>139.05</ele>
        <time>2013-07-28T07:44:34Z</time>
      </trkpt>
      <trkpt lat="41.613128415" lon="2.540915130">
        <ele>140.49</ele>
        <time>2013-07-28T07:44:42Z</time>
      </trkpt>
      <trkpt lat="41.613304686" lon="2.540929966">
        <ele>141.93</ele>
        <time>2013-07-28T07:44:49Z</time>
      </trkpt>
      <trkpt lat="41.613557987" lon="2.540981012">
        <ele>143.37</ele>
        <time>2013-07-28T07:44:59Z</time>
      </trkpt>
      <trkpt lat="41.613811456" lon="2.541037170">
        <ele>145.30</ele>
        <time>2013-07-28T07:45:09Z</time>
      </trkpt>
      <trkpt lat="41.614003653" lon="2.541070949">
        <ele>146.26</ele>
        <time>2013-07-28T07:45:17Z</time>
      </trkpt>
      <trkpt lat="41.614247818" lon="2.541141860">
        <ele>147.70</ele>
        <time>2013-07-28T07:45:27Z</time>
      </trkpt>
      <trkpt lat="41.614524504" lon="2.541228781">
        <ele>149.62</ele>
        <time>2013-07-28T07:45:38Z</time>
      </trkpt>
      <trkpt lat="41.614705889" lon="2.541291142">
        <ele>150.58</ele>
        <time>2013-07-28T07:45:46Z</time>
      </trkpt>
      <trkpt lat="41.614971344" lon="2.541333806">
        <ele>152.51</ele>
        <time>2013-07-28T07:45:57Z</time>
      </trkpt>
      <trkpt lat="41.615179802" lon="2.541386780">
        <ele>152.99</ele>
        <time>2013-07-28T07:46:05Z</time>
      </trkpt>
      <trkpt lat="41.615509629" lon="2.541490380">
        <ele>154.91</ele>
        <time>2013-07-28T07:46:17Z</time>
      </trkpt>
      <trkpt lat="41.615761589" lon="2.541645026">
        <ele>156.83</ele>
        <time>2013-07-28T07:46:28Z</time>
      </trkpt>
      <trkpt lat="41.615942722" lon="2.541764468">
        <ele>158.27</ele>
        <time>2013-07-28T07:46:36Z</time>
      </trkpt>
      <trkpt lat="41.616156293" lon="2.541924646">
        <ele>160.20</ele>
        <time>2013-07-28T07:46:46Z</time>
      </trkpt>
      <trkpt lat="41.616402218" lon="2.542083819">
        <ele>162.12</ele>
        <time>2013-07-28T07:46:57Z</time>
      </trkpt>
      <trkpt lat="41.616618052" lon="2.542158166">
        <ele>163.56</ele>
        <time>2013-07-28T07:47:06Z</time>
      </trkpt>
      <trkpt lat="41.616891302" lon="2.542060852">
        <ele>164.04</ele>
        <time>2013-07-28T07:47:16Z</time>
      </trkpt>
      <trkpt lat="41.617116189" lon="2.541844431">
        <ele>165.00</ele>
        <time>2013-07-28T07:47:26Z</time>
      </trkpt>
      <trkpt lat="41.617290449" lon="2.541648127">
        <ele>165.48</ele>
        <time>2013-07-28T07:47:35Z</time>
      </trkpt>
      <trkpt lat="41.617445849" lon="2.541434137">
        <ele>165.96</ele>
        <time>2013-07-28T07:47:43Z</time>
      </trkpt>
      <trkpt lat="41.617557328" lon="2.541190559">
        <ele>167.89</ele>
        <time>2013-07-28T07:47:52Z</time>
      </trkpt>
      <trkpt lat="41.617661935" lon="2.540963410">
        <ele>169.81</ele>
        <time>2013-07-28T07:48:02Z</time>
      </trkpt>
      <trkpt lat="41.617766038" lon="2.540725028">
        <ele>172.21</ele>
        <time>2013-07-28T07:48:11Z</time>
      </trkpt>
      <trkpt lat="41.617845666" lon="2.540553283">
        <ele>173.66</ele>
        <time>2013-07-28T07:48:18Z</time>
      </trkpt>
      <trkpt lat="41.617957061" lon="2.540315321">
        <ele>175.58</ele>
        <time>2013-07-28T07:48:27Z</time>
      </trkpt>
      <trkpt lat="41.617975166" lon="2.540296462">
        <ele>176.54</ele>
        <time>2013-07-28T07:48:28Z</time>
      </trkpt>
      <trkpt lat="41.618082874" lon="2.540329822">
        <ele>177.98</ele>
        <time>2013-07-28T07:48:34Z</time>
      </trkpt>
      <trkpt lat="41.618089412" lon="2.540353207">
        <ele>178.46</ele>
        <time>2013-07-28T07:48:35Z</time>
      </trkpt>
      <trkpt lat="41.618079269" lon="2.540592007">
        <ele>180.38</ele>
        <time>2013-07-28T07:48:44Z</time>
      </trkpt>
      <trkpt lat="41.617974244" lon="2.540792503">
        <ele>181.83</ele>
        <time>2013-07-28T07:48:53Z</time>
      </trkpt>
      <trkpt lat="41.617961671" lon="2.541012779">
        <ele>183.75</ele>
        <time>2013-07-28T07:49:01Z</time>
      </trkpt>
      <trkpt lat="41.618041467" lon="2.541245293">
        <ele>184.71</ele>
        <time>2013-07-28T07:49:09Z</time>
      </trkpt>
      <trkpt lat="41.618189240" lon="2.541599093">
        <ele>186.63</ele>
        <time>2013-07-28T07:49:21Z</time>
      </trkpt>
      <trkpt lat="41.618301138" lon="2.541889610">
        <ele>188.56</ele>
        <time>2013-07-28T07:49:31Z</time>
      </trkpt>
      <trkpt lat="41.618430639" lon="2.542162106">
        <ele>189.52</ele>
        <time>2013-07-28T07:49:41Z</time>
      </trkpt>
      <trkpt lat="41.618619818" lon="2.542395122">
        <ele>191.44</ele>
        <time>2013-07-28T07:49:52Z</time>
      </trkpt>
      <trkpt lat="41.618777901" lon="2.542569801">
        <ele>193.36</ele>
        <time>2013-07-28T07:50:01Z</time>
      </trkpt>
      <trkpt lat="41.618936319" lon="2.542727800">
        <ele>194.80</ele>
        <time>2013-07-28T07:50:10Z</time>
      </trkpt>
      <trkpt lat="41.619087110" lon="2.542794855">
        <ele>195.77</ele>
        <time>2013-07-28T07:50:17Z</time>
      </trkpt>
      <trkpt lat="41.619313505" lon="2.542781361">
        <ele>197.21</ele>
        <time>2013-07-28T07:50:26Z</time>
      </trkpt>
      <trkpt lat="41.619500170" lon="2.542844560">
        <ele>197.69</ele>
        <time>2013-07-28T07:50:34Z</time>
      </trkpt>
      <trkpt lat="41.619658252" lon="2.543017814">
        <ele>197.69</ele>
        <time>2013-07-28T07:50:40Z</time>
      </trkpt>
      <trkpt lat="41.619889341" lon="2.543402124">
        <ele>195.28</ele>
        <time>2013-07-28T07:50:47Z</time>
      </trkpt>
      <trkpt lat="41.619915828" lon="2.543769335">
        <ele>193.36</ele>
        <time>2013-07-28T07:50:51Z</time>
      </trkpt>
      <trkpt lat="41.619878194" lon="2.543868493">
        <ele>193.36</ele>
        <time>2013-07-28T07:50:52Z</time>
      </trkpt>
      <trkpt lat="41.619580301" lon="2.544503842">
        <ele>189.52</ele>
        <time>2013-07-28T07:50:58Z</time>
      </trkpt>
      <trkpt lat="41.619478963" lon="2.544742474">
        <ele>189.04</ele>
        <time>2013-07-28T07:51:00Z</time>
      </trkpt>
      <trkpt lat="41.619441832" lon="2.545019245">
        <ele>187.11</ele>
        <time>2013-07-28T07:51:02Z</time>
      </trkpt>
      <trkpt lat="41.619388104" lon="2.545596674">
        <ele>184.23</ele>
        <time>2013-07-28T07:51:06Z</time>
      </trkpt>
      <trkpt lat="41.619327670" lon="2.546340233">
        <ele>180.87</ele>
        <time>2013-07-28T07:51:11Z</time>
      </trkpt>
      <trkpt lat="41.619320629" lon="2.547065016">
        <ele>177.50</ele>
        <time>2013-07-28T07:51:16Z</time>
      </trkpt>
      <trkpt lat="41.619346781" lon="2.547208095">
        <ele>177.50</ele>
        <time>2013-07-28T07:51:17Z</time>
      </trkpt>
      <trkpt lat="41.619335884" lon="2.547778400">
        <ele>176.06</ele>
        <time>2013-07-28T07:51:21Z</time>
      </trkpt>
      <trkpt lat="41.619406376" lon="2.548270334">
        <ele>174.62</ele>
        <time>2013-07-28T07:51:25Z</time>
      </trkpt>
      <trkpt lat="41.619611817" lon="2.548543919">
        <ele>173.17</ele>
        <time>2013-07-28T07:51:28Z</time>
      </trkpt>
      <trkpt lat="41.620027559" lon="2.548953543">
        <ele>170.29</ele>
        <time>2013-07-28T07:51:33Z</time>
      </trkpt>
      <trkpt lat="41.620109283" lon="2.549045492">
        <ele>169.33</ele>
        <time>2013-07-28T07:51:34Z</time>
      </trkpt>
      <trkpt lat="41.620504406" lon="2.549722750">
        <ele>166.45</ele>
        <time>2013-07-28T07:51:40Z</time>
      </trkpt>
      <trkpt lat="41.620694256" lon="2.550318452">
        <ele>165.96</ele>
        <time>2013-07-28T07:51:45Z</time>
      </trkpt>
      <trkpt lat="41.620810513" lon="2.551116325">
        <ele>164.52</ele>
        <time>2013-07-28T07:51:52Z</time>
      </trkpt>
      <trkpt lat="41.621039506" lon="2.551668190">
        <ele>161.64</ele>
        <time>2013-07-28T07:51:57Z</time>
      </trkpt>
      <trkpt lat="41.621258106" lon="2.552256348">
        <ele>159.72</ele>
        <time>2013-07-28T07:52:02Z</time>
      </trkpt>
      <trkpt lat="41.621310828" lon="2.552873088">
        <ele>158.75</ele>
        <time>2013-07-28T07:52:07Z</time>
      </trkpt>
      <trkpt lat="41.621557508" lon="2.553598039">
        <ele>157.31</ele>
        <time>2013-07-28T07:52:14Z</time>
      </trkpt>
      <trkpt lat="41.621799996" lon="2.553966340">
        <ele>154.91</ele>
        <time>2013-07-28T07:52:18Z</time>
      </trkpt>
      <trkpt lat="41.622080371" lon="2.554495741">
        <ele>152.03</ele>
        <time>2013-07-28T07:52:23Z</time>
      </trkpt>
      <trkpt lat="41.622342138" lon="2.554846943">
        <ele>151.06</ele>
        <time>2013-07-28T07:52:27Z</time>
      </trkpt>
      <trkpt lat="41.622743715" lon="2.555152798">
        <ele>150.10</ele>
        <time>2013-07-28T07:52:32Z</time>
      </trkpt>
      <trkpt lat="41.623088965" lon="2.555244161">
        <ele>148.66</ele>
        <time>2013-07-28T07:52:36Z</time>
      </trkpt>
      <trkpt lat="41.623415860" lon="2.555411212">
        <ele>146.26</ele>
        <time>2013-07-28T07:52:40Z</time>
      </trkpt>
      <trkpt lat="41.623515940" lon="2.555716230">
        <ele>144.82</ele>
        <time>2013-07-28T07:52:43Z</time>
      </trkpt>
      <trkpt lat="41.623520633" lon="2.555832822">
        <ele>144.34</ele>
        <time>2013-07-28T07:52:44Z</time>
      </trkpt>
      <trkpt lat="41.623632532" lon="2.556591803">
        <ele>142.89</ele>
        <time>2013-07-28T07:52:51Z</time>
      </trkpt>
      <trkpt lat="41.623659522" lon="2.556688447">
        <ele>142.89</ele>
        <time>2013-07-28T07:52:52Z</time>
      </trkpt>
      <trkpt lat="41.623597998" lon="2.557007713">
        <ele>142.41</ele>
        <time>2013-07-28T07:52:56Z</time>
      </trkpt>
      <trkpt lat="41.623449639" lon="2.557158336">
        <ele>142.41</ele>
        <time>2013-07-28T07:52:59Z</time>
      </trkpt>
      <trkpt lat="41.623294071" lon="2.557500905">
        <ele>141.45</ele>
        <time>2013-07-28T07:53:04Z</time>
      </trkpt>
      <trkpt lat="41.623351906" lon="2.557768539">
        <ele>141.45</ele>
        <time>2013-07-28T07:53:07Z</time>
      </trkpt>
      <trkpt lat="41.623603866" lon="2.558048159">
        <ele>140.97</ele>
        <time>2013-07-28T07:53:11Z</time>
      </trkpt>
      <trkpt lat="41.623676788" lon="2.558230549">
        <ele>140.49</ele>
        <time>2013-07-28T07:53:13Z</time>
      </trkpt>
      <trkpt lat="41.623710567" lon="2.558428278">
        <ele>140.49</ele>
        <time>2013-07-28T07:53:15Z</time>
      </trkpt>
      <trkpt lat="41.623831099" lon="2.558775289">
        <ele>141.93</ele>
        <time>2013-07-28T07:53:19Z</time>
      </trkpt>
      <trkpt lat="41.624081467" lon="2.559267307">
        <ele>141.93</ele>
        <time>2013-07-28T07:53:26Z</time>
      </trkpt>
      <trkpt lat="41.624365613" lon="2.559841970">
        <ele>141.93</ele>
        <time>2013-07-28T07:53:34Z</time>
      </trkpt>
      <trkpt lat="41.624531323" lon="2.560252935">
        <ele>140.49</ele>
        <time>2013-07-28T07:53:39Z</time>
      </trkpt>
      <trkpt lat="41.624887303" lon="2.560717963">
        <ele>138.09</ele>
        <time>2013-07-28T07:53:45Z</time>
      </trkpt>
      <trkpt lat="41.625053348" lon="2.561122557">
        <ele>136.64</ele>
        <time>2013-07-28T07:53:49Z</time>
      </trkpt>
      <trkpt lat="41.625012780" lon="2.561601415">
        <ele>135.20</ele>
        <time>2013-07-28T07:53:53Z</time>
      </trkpt>
      <trkpt lat="41.624972630" lon="2.562223269">
        <ele>131.84</ele>
        <time>2013-07-28T07:53:58Z</time>
      </trkpt>
      <trkpt lat="41.625029041" lon="2.562329132">
        <ele>131.84</ele>
        <time>2013-07-28T07:53:59Z</time>
      </trkpt>
      <trkpt lat="41.625337495" lon="2.562641526">
        <ele>129.92</ele>
        <time>2013-07-28T07:54:03Z</time>
      </trkpt>
      <trkpt lat="41.625428941" lon="2.562693577">
        <ele>129.92</ele>
        <time>2013-07-28T07:54:04Z</time>
      </trkpt>
      <trkpt lat="41.625777461" lon="2.563016029">
        <ele>128.95</ele>
        <time>2013-07-28T07:54:09Z</time>
      </trkpt>
      <trkpt lat="41.625737982" lon="2.563316772">
        <ele>128.47</ele>
        <time>2013-07-28T07:54:12Z</time>
      </trkpt>
      <trkpt lat="41.625695318" lon="2.563407213">
        <ele>128.47</ele>
        <time>2013-07-28T07:54:13Z</time>
      </trkpt>
      <trkpt lat="41.625497002" lon="2.563841647">
        <ele>128.47</ele>
        <time>2013-07-28T07:54:18Z</time>
      </trkpt>
      <trkpt lat="41.625424918" lon="2.564324109">
        <ele>126.55</ele>
        <time>2013-07-28T07:54:23Z</time>
      </trkpt>
      <trkpt lat="41.625362557" lon="2.564809756">
        <ele>126.07</ele>
        <time>2013-07-28T07:54:28Z</time>
      </trkpt>
      <trkpt lat="41.625025436" lon="2.565774346">
        <ele>123.19</ele>
        <time>2013-07-28T07:54:38Z</time>
      </trkpt>
      <trkpt lat="41.624931475" lon="2.566080704">
        <ele>122.71</ele>
        <time>2013-07-28T07:54:41Z</time>
      </trkpt>
      <trkpt lat="41.624887386" lon="2.566483623">
        <ele>122.22</ele>
        <time>2013-07-28T07:54:45Z</time>
      </trkpt>
      <trkpt lat="41.624942539" lon="2.567178398">
        <ele>122.22</ele>
        <time>2013-07-28T07:54:53Z</time>
      </trkpt>
      <trkpt lat="41.624946311" lon="2.567245035">
        <ele>122.22</ele>
        <time>2013-07-28T07:54:54Z</time>
      </trkpt>
      <trkpt lat="41.624927703" lon="2.567479812">
        <ele>123.67</ele>
        <time>2013-07-28T07:54:58Z</time>
      </trkpt>
      <trkpt lat="41.624850255" lon="2.567884490">
        <ele>125.11</ele>
        <time>2013-07-28T07:55:06Z</time>
      </trkpt>
      <trkpt lat="41.624721928" lon="2.568214821">
        <ele>126.07</ele>
        <time>2013-07-28T07:55:14Z</time>
      </trkpt>
      <trkpt lat="41.624597540" lon="2.568472145">
        <ele>126.07</ele>
        <time>2013-07-28T07:55:21Z</time>
      </trkpt>
      <trkpt lat="41.624582704" lon="2.568509193">
        <ele>126.55</ele>
        <time>2013-07-28T07:55:22Z</time>
      </trkpt>
      <trkpt lat="41.624628553" lon="2.568609106">
        <ele>126.55</ele>
        <time>2013-07-28T07:55:26Z</time>
      </trkpt>
      <trkpt lat="41.624685047" lon="2.568619751">
        <ele>127.03</ele>
        <time>2013-07-28T07:55:29Z</time>
      </trkpt>
      <trkpt lat="41.624788396" lon="2.568618912">
        <ele>128.47</ele>
        <time>2013-07-28T07:55:35Z</time>
      </trkpt>
      <trkpt lat="41.624820080" lon="2.568595611">
        <ele>128.47</ele>
        <time>2013-07-28T07:55:38Z</time>
      </trkpt>
      <trkpt lat="41.624973888" lon="2.568534255">
        <ele>130.40</ele>
        <time>2013-07-28T07:55:46Z</time>
      </trkpt>
      <trkpt lat="41.625007499" lon="2.568513636">
        <ele>131.36</ele>
        <time>2013-07-28T07:55:48Z</time>
      </trkpt>
      <trkpt lat="41.625186453" lon="2.568397882">
        <ele>132.80</ele>
        <time>2013-07-28T07:55:57Z</time>
      </trkpt>
      <trkpt lat="41.625405053" lon="2.568282798">
        <ele>134.24</ele>
        <time>2013-07-28T07:56:06Z</time>
      </trkpt>
      <trkpt lat="41.625655756" lon="2.568114573">
        <ele>135.20</ele>
        <time>2013-07-28T07:56:16Z</time>
      </trkpt>
      <trkpt lat="41.625891958" lon="2.567997143">
        <ele>135.68</ele>
        <time>2013-07-28T07:56:25Z</time>
      </trkpt>
      <trkpt lat="41.626100835" lon="2.567912150">
        <ele>136.64</ele>
        <time>2013-07-28T07:56:33Z</time>
      </trkpt>
      <trkpt lat="41.626381293" lon="2.567729844">
        <ele>137.61</ele>
        <time>2013-07-28T07:56:44Z</time>
      </trkpt>
      <trkpt lat="41.626596289" lon="2.567508981">
        <ele>139.53</ele>
        <time>2013-07-28T07:56:54Z</time>
      </trkpt>
      <trkpt lat="41.626802903" lon="2.567297841">
        <ele>141.45</ele>
        <time>2013-07-28T07:57:04Z</time>
      </trkpt>
      <trkpt lat="41.627005326" lon="2.567165323">
        <ele>142.89</ele>
        <time>2013-07-28T07:57:13Z</time>
      </trkpt>
      <trkpt lat="41.627203474" lon="2.567104554">
        <ele>145.30</ele>
        <time>2013-07-28T07:57:21Z</time>
      </trkpt>
      <trkpt lat="41.627453339" lon="2.567071613">
        <ele>146.26</ele>
        <time>2013-07-28T07:57:30Z</time>
      </trkpt>
      <trkpt lat="41.627675543" lon="2.567082761">
        <ele>148.66</ele>
        <time>2013-07-28T07:57:39Z</time>
      </trkpt>
      <trkpt lat="41.627860112" lon="2.567113942">
        <ele>150.10</ele>
        <time>2013-07-28T07:57:47Z</time>
      </trkpt>
      <trkpt lat="41.628029762" lon="2.567160629">
        <ele>152.03</ele>
        <time>2013-07-28T07:57:55Z</time>
      </trkpt>
      <trkpt lat="41.628238388" lon="2.567264062">
        <ele>153.95</ele>
        <time>2013-07-28T07:58:04Z</time>
      </trkpt>
      <trkpt lat="41.628449695" lon="2.567410074">
        <ele>155.39</ele>
        <time>2013-07-28T07:58:14Z</time>
      </trkpt>
      <trkpt lat="41.628705008" lon="2.567567319">
        <ele>155.39</ele>
        <time>2013-07-28T07:58:23Z</time>
      </trkpt>
      <trkpt lat="41.628887063" lon="2.567510154">
        <ele>155.39</ele>
        <time>2013-07-28T07:58:28Z</time>
      </trkpt>
      <trkpt lat="41.629143382" lon="2.567328770">
        <ele>153.47</ele>
        <time>2013-07-28T07:58:35Z</time>
      </trkpt>
      <trkpt lat="41.629308254" lon="2.567272276">
        <ele>152.51</ele>
        <time>2013-07-28T07:58:39Z</time>
      </trkpt>
      <trkpt lat="41.629593071" lon="2.567165490">
        <ele>151.06</ele>
        <time>2013-07-28T07:58:46Z</time>
      </trkpt>
      <trkpt lat="41.629756015" lon="2.567156941">
        <ele>149.62</ele>
        <time>2013-07-28T07:58:50Z</time>
      </trkpt>
      <trkpt lat="41.630011914" lon="2.567060381">
        <ele>147.70</ele>
        <time>2013-07-28T07:58:55Z</time>
      </trkpt>
      <trkpt lat="41.630225653" lon="2.566749245">
        <ele>146.74</ele>
        <time>2013-07-28T07:59:01Z</time>
      </trkpt>
      <trkpt lat="41.630243674" lon="2.566683279">
        <ele>146.74</ele>
        <time>2013-07-28T07:59:02Z</time>
      </trkpt>
      <trkpt lat="41.630321123" lon="2.566297963">
        <ele>146.26</ele>
        <time>2013-07-28T07:59:10Z</time>
      </trkpt>
      <trkpt lat="41.630397566" lon="2.565985318">
        <ele>146.26</ele>
        <time>2013-07-28T07:59:18Z</time>
      </trkpt>
      <trkpt lat="41.630486079" lon="2.565740734">
        <ele>147.70</ele>
        <time>2013-07-28T07:59:25Z</time>
      </trkpt>
      <trkpt lat="41.630574843" lon="2.565569241">
        <ele>148.66</ele>
        <time>2013-07-28T07:59:32Z</time>
      </trkpt>
      <trkpt lat="41.630704260" lon="2.565351311">
        <ele>149.62</ele>
        <time>2013-07-28T07:59:40Z</time>
      </trkpt>
      <trkpt lat="41.630842477" lon="2.565204041">
        <ele>150.58</ele>
        <time>2013-07-28T07:59:47Z</time>
      </trkpt>
      <trkpt lat="41.631039284" lon="2.565055933">
        <ele>151.06</ele>
        <time>2013-07-28T07:59:55Z</time>
      </trkpt>
      <trkpt lat="41.631193428" lon="2.564926768">
        <ele>151.54</ele>
        <time>2013-07-28T08:00:02Z</time>
      </trkpt>
      <trkpt lat="41.631404232" lon="2.564782851">
        <ele>153.47</ele>
        <time>2013-07-28T08:00:09Z</time>
      </trkpt>
      <trkpt lat="41.631593663" lon="2.564654607">
        <ele>154.43</ele>
        <time>2013-07-28T08:00:16Z</time>
      </trkpt>
      <trkpt lat="41.631752836" lon="2.564513121">
        <ele>155.39</ele>
        <time>2013-07-28T08:00:23Z</time>
      </trkpt>
      <trkpt lat="41.631915361" lon="2.564383956">
        <ele>156.35</ele>
        <time>2013-07-28T08:00:30Z</time>
      </trkpt>
      <trkpt lat="41.632075371" lon="2.564273147">
        <ele>157.79</ele>
        <time>2013-07-28T08:00:37Z</time>
      </trkpt>
      <trkpt lat="41.632246865" lon="2.564143898">
        <ele>158.27</ele>
        <time>2013-07-28T08:00:45Z</time>
      </trkpt>
      <trkpt lat="41.632478373" lon="2.563951114">
        <ele>159.24</ele>
        <time>2013-07-28T08:00:54Z</time>
      </trkpt>
      <trkpt lat="41.632727400" lon="2.563696137">
        <ele>159.72</ele>
        <time>2013-07-28T08:01:03Z</time>
      </trkpt>
      <trkpt lat="41.632958321" lon="2.563446524">
        <ele>159.72</ele>
        <time>2013-07-28T08:01:11Z</time>
      </trkpt>
      <trkpt lat="41.633048175" lon="2.563292716">
        <ele>158.27</ele>
        <time>2013-07-28T08:01:15Z</time>
      </trkpt>
      <trkpt lat="41.633175831" lon="2.562920475">
        <ele>158.27</ele>
        <time>2013-07-28T08:01:23Z</time>
      </trkpt>
      <trkpt lat="41.633300722" lon="2.562384620">
        <ele>157.79</ele>
        <time>2013-07-28T08:01:34Z</time>
      </trkpt>
      <trkpt lat="41.633339027" lon="2.562040459">
        <ele>157.79</ele>
        <time>2013-07-28T08:01:42Z</time>
      </trkpt>
      <trkpt lat="41.633417901" lon="2.561777687">
        <ele>159.72</ele>
        <time>2013-07-28T08:01:49Z</time>
      </trkpt>
      <trkpt lat="41.633479256" lon="2.561630752">
        <ele>160.20</ele>
        <time>2013-07-28T08:01:54Z</time>
      </trkpt>
      <trkpt lat="41.633644296" lon="2.561503682">
        <ele>160.68</ele>
        <time>2013-07-28T08:02:01Z</time>
      </trkpt>
      <trkpt lat="41.633867003" lon="2.561550453">
        <ele>160.68</ele>
        <time>2013-07-28T08:02:06Z</time>
      </trkpt>
      <trkpt lat="41.634088369" lon="2.561666208">
        <ele>160.68</ele>
        <time>2013-07-28T08:02:13Z</time>
      </trkpt>
      <trkpt lat="41.634341335" lon="2.561773161">
        <ele>161.16</ele>
        <time>2013-07-28T08:02:21Z</time>
      </trkpt>
      <trkpt lat="41.634598073" lon="2.561805934">
        <ele>161.64</ele>
        <time>2013-07-28T08:02:29Z</time>
      </trkpt>
      <trkpt lat="41.634787085" lon="2.561838456">
        <ele>162.60</ele>
        <time>2013-07-28T08:02:36Z</time>
      </trkpt>
      <trkpt lat="41.635019096" lon="2.561846418">
        <ele>163.56</ele>
        <time>2013-07-28T08:02:44Z</time>
      </trkpt>
      <trkpt lat="41.635160331" lon="2.561839042">
        <ele>165.48</ele>
        <time>2013-07-28T08:02:50Z</time>
      </trkpt>
      <trkpt lat="41.635364179" lon="2.561857483">
        <ele>166.93</ele>
        <time>2013-07-28T08:02:57Z</time>
      </trkpt>
      <trkpt lat="41.635554364" lon="2.561884724">
        <ele>167.41</ele>
        <time>2013-07-28T08:03:04Z</time>
      </trkpt>
      <trkpt lat="41.635769863" lon="2.561799061">
        <ele>167.41</ele>
        <time>2013-07-28T08:03:11Z</time>
      </trkpt>
      <trkpt lat="41.635945715" lon="2.561734520">
        <ele>166.93</ele>
        <time>2013-07-28T08:03:17Z</time>
      </trkpt>
      <trkpt lat="41.636112767" lon="2.561674673">
        <ele>167.41</ele>
        <time>2013-07-28T08:03:23Z</time>
      </trkpt>
      <trkpt lat="41.636344358" lon="2.561681463">
        <ele>168.85</ele>
        <time>2013-07-28T08:03:32Z</time>
      </trkpt>
      <trkpt lat="41.636560947" lon="2.561743405">
        <ele>171.73</ele>
        <time>2013-07-28T08:03:42Z</time>
      </trkpt>
      <trkpt lat="41.636716934" lon="2.561781291">
        <ele>172.69</ele>
        <time>2013-07-28T08:03:50Z</time>
      </trkpt>
      <trkpt lat="41.636890942" lon="2.561796127">
        <ele>173.66</ele>
        <time>2013-07-28T08:03:58Z</time>
      </trkpt>
      <trkpt lat="41.637078362" lon="2.561836276">
        <ele>175.10</ele>
        <time>2013-07-28T08:04:05Z</time>
      </trkpt>
      <trkpt lat="41.637241557" lon="2.562003663">
        <ele>175.58</ele>
        <time>2013-07-28T08:04:13Z</time>
      </trkpt>
      <trkpt lat="41.637414392" lon="2.562167194">
        <ele>176.06</ele>
        <time>2013-07-28T08:04:21Z</time>
      </trkpt>
      <trkpt lat="41.637603404" lon="2.562247576">
        <ele>177.02</ele>
        <time>2013-07-28T08:04:28Z</time>
      </trkpt>
      <trkpt lat="41.637823597" lon="2.562333994">
        <ele>178.94</ele>
        <time>2013-07-28T08:04:36Z</time>
      </trkpt>
      <trkpt lat="41.638008082" lon="2.562362660">
        <ele>179.90</ele>
        <time>2013-07-28T08:04:43Z</time>
      </trkpt>
      <trkpt lat="41.638172954" lon="2.562383447">
        <ele>181.35</ele>
        <time>2013-07-28T08:04:51Z</time>
      </trkpt>
      <trkpt lat="41.638367834" lon="2.562369784">
        <ele>182.31</ele>
        <time>2013-07-28T08:04:59Z</time>
      </trkpt>
      <trkpt lat="41.638555588" lon="2.562415801">
        <ele>183.27</ele>
        <time>2013-07-28T08:05:07Z</time>
      </trkpt>
      <trkpt lat="41.638739655" lon="2.562510098">
        <ele>184.23</ele>
        <time>2013-07-28T08:05:14Z</time>
      </trkpt>
      <trkpt lat="41.638938306" lon="2.562658206">
        <ele>185.67</ele>
        <time>2013-07-28T08:05:22Z</time>
      </trkpt>
      <trkpt lat="41.639133940" lon="2.562799776">
        <ele>187.59</ele>
        <time>2013-07-28T08:05:31Z</time>
      </trkpt>
      <trkpt lat="41.639349941" lon="2.562928187">
        <ele>188.56</ele>
        <time>2013-07-28T08:05:39Z</time>
      </trkpt>
      <trkpt lat="41.639508778" lon="2.562990464">
        <ele>189.52</ele>
        <time>2013-07-28T08:05:47Z</time>
      </trkpt>
      <trkpt lat="41.639665185" lon="2.563088449">
        <ele>190.96</ele>
        <time>2013-07-28T08:05:55Z</time>
      </trkpt>
      <trkpt lat="41.639831817" lon="2.563174866">
        <ele>191.92</ele>
        <time>2013-07-28T08:06:03Z</time>
      </trkpt>
      <trkpt lat="41.640008591" lon="2.563234294">
        <ele>192.88</ele>
        <time>2013-07-28T08:06:10Z</time>
      </trkpt>
      <trkpt lat="41.640184108" lon="2.563285591">
        <ele>193.36</ele>
        <time>2013-07-28T08:06:16Z</time>
      </trkpt>
      <trkpt lat="41.640330540" lon="2.563449206">
        <ele>194.32</ele>
        <time>2013-07-28T08:06:24Z</time>
      </trkpt>
      <trkpt lat="41.640420143" lon="2.563592201">
        <ele>196.25</ele>
        <time>2013-07-28T08:06:31Z</time>
      </trkpt>
      <trkpt lat="41.640508488" lon="2.563739304">
        <ele>197.21</ele>
        <time>2013-07-28T08:06:38Z</time>
      </trkpt>
      <trkpt lat="41.640642179" lon="2.563940637">
        <ele>198.65</ele>
        <time>2013-07-28T08:06:47Z</time>
      </trkpt>
      <trkpt lat="41.640789868" lon="2.564134510">
        <ele>200.57</ele>
        <time>2013-07-28T08:06:56Z</time>
      </trkpt>
      <trkpt lat="41.640844267" lon="2.564299382">
        <ele>202.49</ele>
        <time>2013-07-28T08:07:03Z</time>
      </trkpt>
      <trkpt lat="41.640845440" lon="2.564359732">
        <ele>203.94</ele>
        <time>2013-07-28T08:07:06Z</time>
      </trkpt>
      <trkpt lat="41.640811494" lon="2.564464003">
        <ele>204.90</ele>
        <time>2013-07-28T08:07:12Z</time>
      </trkpt>
      <trkpt lat="41.640768998" lon="2.564433660">
        <ele>205.86</ele>
        <time>2013-07-28T08:07:18Z</time>
      </trkpt>
      <trkpt lat="41.640774865" lon="2.564445814">
        <ele>206.34</ele>
        <time>2013-07-28T08:07:26Z</time>
      </trkpt>
      <trkpt lat="41.640729183" lon="2.564448664">
        <ele>206.34</ele>
        <time>2013-07-28T08:07:34Z</time>
      </trkpt>
      <trkpt lat="41.640695740" lon="2.564479090">
        <ele>206.82</ele>
        <time>2013-07-28T08:07:51Z</time>
      </trkpt>
      <trkpt lat="41.640696326" lon="2.564476660">
        <ele>206.82</ele>
        <time>2013-07-28T08:08:05Z</time>
      </trkpt>
      <trkpt lat="41.640698003" lon="2.564458219">
        <ele>206.82</ele>
        <time>2013-07-28T08:08:09Z</time>
      </trkpt>
      <trkpt lat="41.640609322" lon="2.564443803">
        <ele>208.74</ele>
        <time>2013-07-28T08:08:17Z</time>
      </trkpt>
      <trkpt lat="41.640478062" lon="2.564459141">
        <ele>210.19</ele>
        <time>2013-07-28T08:08:26Z</time>
      </trkpt>
      <trkpt lat="41.640418718" lon="2.564338107">
        <ele>210.19</ele>
        <time>2013-07-28T08:08:33Z</time>
      </trkpt>
      <trkpt lat="41.640406145" lon="2.564301729">
        <ele>211.15</ele>
        <time>2013-07-28T08:08:35Z</time>
      </trkpt>
      <trkpt lat="41.640358871" lon="2.564182371">
        <ele>212.11</ele>
        <time>2013-07-28T08:08:42Z</time>
      </trkpt>
      <trkpt lat="41.640224258" lon="2.564113304">
        <ele>213.07</ele>
        <time>2013-07-28T08:08:49Z</time>
      </trkpt>
      <trkpt lat="41.640095428" lon="2.564094612">
        <ele>213.55</ele>
        <time>2013-07-28T08:08:56Z</time>
      </trkpt>
      <trkpt lat="41.639987469" lon="2.564086231">
        <ele>214.99</ele>
        <time>2013-07-28T08:09:02Z</time>
      </trkpt>
      <trkpt lat="41.639864171" lon="2.564037951">
        <ele>216.91</ele>
        <time>2013-07-28T08:09:09Z</time>
      </trkpt>
      <trkpt lat="41.639772222" lon="2.563995119">
        <ele>217.88</ele>
        <time>2013-07-28T08:09:15Z</time>
      </trkpt>
      <trkpt lat="41.639627969" lon="2.563918760">
        <ele>219.80</ele>
        <time>2013-07-28T08:09:23Z</time>
      </trkpt>
      <trkpt lat="41.639483214" lon="2.563881964">
        <ele>221.24</ele>
        <time>2013-07-28T08:09:31Z</time>
      </trkpt>
      <trkpt lat="41.639369806" lon="2.563922281">
        <ele>223.16</ele>
        <time>2013-07-28T08:09:38Z</time>
      </trkpt>
      <trkpt lat="41.639268805" lon="2.564032000">
        <ele>225.09</ele>
        <time>2013-07-28T08:09:46Z</time>
      </trkpt>
      <trkpt lat="41.639244413" lon="2.564075921">
        <ele>225.09</ele>
        <time>2013-07-28T08:09:49Z</time>
      </trkpt>
      <trkpt lat="41.639082056" lon="2.564279853">
        <ele>227.01</ele>
        <time>2013-07-28T08:10:02Z</time>
      </trkpt>
      <trkpt lat="41.638995554" lon="2.564380854">
        <ele>227.97</ele>
        <time>2013-07-28T08:10:10Z</time>
      </trkpt>
      <trkpt lat="41.638893966" lon="2.564497950">
        <ele>230.37</ele>
        <time>2013-07-28T08:10:19Z</time>
      </trkpt>
      <trkpt lat="41.638773937" lon="2.564640274">
        <ele>231.33</ele>
        <time>2013-07-28T08:10:28Z</time>
      </trkpt>
      <trkpt lat="41.638623985" lon="2.564768266">
        <ele>231.33</ele>
        <time>2013-07-28T08:10:34Z</time>
      </trkpt>
      <trkpt lat="41.638538489" lon="2.564872034">
        <ele>231.33</ele>
        <time>2013-07-28T08:10:39Z</time>
      </trkpt>
      <trkpt lat="41.638470764" lon="2.565032380">
        <ele>231.81</ele>
        <time>2013-07-28T08:10:47Z</time>
      </trkpt>
      <trkpt lat="41.638430530" lon="2.565160958">
        <ele>233.26</ele>
        <time>2013-07-28T08:10:53Z</time>
      </trkpt>
      <trkpt lat="41.638362469" lon="2.565295404">
        <ele>235.18</ele>
        <time>2013-07-28T08:11:01Z</time>
      </trkpt>
      <trkpt lat="41.638286697" lon="2.565378636">
        <ele>235.66</ele>
        <time>2013-07-28T08:11:08Z</time>
      </trkpt>
      <trkpt lat="41.638176810" lon="2.565438567">
        <ele>236.62</ele>
        <time>2013-07-28T08:11:17Z</time>
      </trkpt>
      <trkpt lat="41.638035407" lon="2.565428425">
        <ele>236.62</ele>
        <time>2013-07-28T08:11:24Z</time>
      </trkpt>
      <trkpt lat="41.637870284" lon="2.565405794">
        <ele>234.22</ele>
        <time>2013-07-28T08:11:30Z</time>
      </trkpt>
      <trkpt lat="41.637738940" lon="2.565314766">
        <ele>232.78</ele>
        <time>2013-07-28T08:11:35Z</time>
      </trkpt>
      <trkpt lat="41.637653779" lon="2.565072194">
        <ele>230.85</ele>
        <time>2013-07-28T08:11:42Z</time>
      </trkpt>
      <trkpt lat="41.637542552" lon="2.564854600">
        <ele>228.93</ele>
        <time>2013-07-28T08:11:49Z</time>
      </trkpt>
      <trkpt lat="41.637424534" lon="2.564820821">
        <ele>228.45</ele>
        <time>2013-07-28T08:11:56Z</time>
      </trkpt>
      <trkpt lat="41.637409698" lon="2.564829119">
        <ele>228.45</ele>
        <time>2013-07-28T08:11:57Z</time>
      </trkpt>
      <trkpt lat="41.637377093" lon="2.564844625">
        <ele>228.45</ele>
        <time>2013-07-28T08:11:59Z</time>
      </trkpt>
      <trkpt lat="41.637346164" lon="2.564845547">
        <ele>229.89</ele>
        <time>2013-07-28T08:12:01Z</time>
      </trkpt>
      <trkpt lat="41.637226386" lon="2.564818725">
        <ele>230.85</ele>
        <time>2013-07-28T08:12:09Z</time>
      </trkpt>
      <trkpt lat="41.637170563" lon="2.564840770">
        <ele>231.81</ele>
        <time>2013-07-28T08:12:13Z</time>
      </trkpt>
      <trkpt lat="41.637146423" lon="2.564915201">
        <ele>232.78</ele>
        <time>2013-07-28T08:12:17Z</time>
      </trkpt>
      <trkpt lat="41.637140639" lon="2.565034978">
        <ele>234.22</ele>
        <time>2013-07-28T08:12:25Z</time>
      </trkpt>
      <trkpt lat="41.637181040" lon="2.565165904">
        <ele>235.66</ele>
        <time>2013-07-28T08:12:34Z</time>
      </trkpt>
      <trkpt lat="41.637196295" lon="2.565206388">
        <ele>236.14</ele>
        <time>2013-07-28T08:12:37Z</time>
      </trkpt>
      <trkpt lat="41.637254717" lon="2.565347456">
        <ele>237.58</ele>
        <time>2013-07-28T08:12:46Z</time>
      </trkpt>
      <trkpt lat="41.637288496" lon="2.565432867">
        <ele>238.54</ele>
        <time>2013-07-28T08:12:52Z</time>
      </trkpt>
      <trkpt lat="41.637354965" lon="2.565532779">
        <ele>239.99</ele>
        <time>2013-07-28T08:13:01Z</time>
      </trkpt>
      <trkpt lat="41.637411123" lon="2.565607462">
        <ele>240.95</ele>
        <time>2013-07-28T08:13:08Z</time>
      </trkpt>
      <trkpt lat="41.637502570" lon="2.565720283">
        <ele>242.87</ele>
        <time>2013-07-28T08:13:17Z</time>
      </trkpt>
      <trkpt lat="41.637535343" lon="2.565755990">
        <ele>243.83</ele>
        <time>2013-07-28T08:13:21Z</time>
      </trkpt>
      <trkpt lat="41.637616983" lon="2.565860344">
        <ele>244.79</ele>
        <time>2013-07-28T08:13:29Z</time>
      </trkpt>
      <trkpt lat="41.637706166" lon="2.565945253">
        <ele>247.20</ele>
        <time>2013-07-28T08:13:38Z</time>
      </trkpt>
      <trkpt lat="41.637810605" lon="2.566000657">
        <ele>249.12</ele>
        <time>2013-07-28T08:13:46Z</time>
      </trkpt>
      <trkpt lat="41.637921414" lon="2.566046842">
        <ele>251.52</ele>
        <time>2013-07-28T08:13:54Z</time>
      </trkpt>
      <trkpt lat="41.638007160" lon="2.566067042">
        <ele>253.44</ele>
        <time>2013-07-28T08:14:01Z</time>
      </trkpt>
      <trkpt lat="41.638132051" lon="2.566110460">
        <ele>253.93</ele>
        <time>2013-07-28T08:14:10Z</time>
      </trkpt>
      <trkpt lat="41.638240848" lon="2.566125799">
        <ele>256.33</ele>
        <time>2013-07-28T08:14:18Z</time>
      </trkpt>
      <trkpt lat="41.638313016" lon="2.566091936">
        <ele>256.81</ele>
        <time>2013-07-28T08:14:23Z</time>
      </trkpt>
      <trkpt lat="41.638442349" lon="2.566097049">
        <ele>259.21</ele>
        <time>2013-07-28T08:14:32Z</time>
      </trkpt>
      <trkpt lat="41.638607389" lon="2.566071065">
        <ele>262.10</ele>
        <time>2013-07-28T08:14:43Z</time>
      </trkpt>
      <trkpt lat="41.638666565" lon="2.566072993">
        <ele>263.54</ele>
        <time>2013-07-28T08:14:47Z</time>
      </trkpt>
      <trkpt lat="41.638758933" lon="2.566111298">
        <ele>264.02</ele>
        <time>2013-07-28T08:14:56Z</time>
      </trkpt>
      <trkpt lat="41.638766393" lon="2.566131499">
        <ele>264.02</ele>
        <time>2013-07-28T08:14:58Z</time>
      </trkpt>
      <trkpt lat="41.638772596" lon="2.566241637">
        <ele>265.46</ele>
        <time>2013-07-28T08:15:07Z</time>
      </trkpt>
      <trkpt lat="41.638801346" lon="2.566361414">
        <ele>266.42</ele>
        <time>2013-07-28T08:15:15Z</time>
      </trkpt>
      <trkpt lat="41.638877705" lon="2.566467278">
        <ele>267.86</ele>
        <time>2013-07-28T08:15:23Z</time>
      </trkpt>
      <trkpt lat="41.638896061" lon="2.566494268">
        <ele>268.35</ele>
        <time>2013-07-28T08:15:25Z</time>
      </trkpt>
      <trkpt lat="41.638979210" lon="2.566615721">
        <ele>270.27</ele>
        <time>2013-07-28T08:15:34Z</time>
      </trkpt>
      <trkpt lat="41.639079038" lon="2.566720076">
        <ele>271.71</ele>
        <time>2013-07-28T08:15:43Z</time>
      </trkpt>
      <trkpt lat="41.639100580" lon="2.566744970">
        <ele>272.19</ele>
        <time>2013-07-28T08:15:45Z</time>
      </trkpt>
      <trkpt lat="41.639215160" lon="2.566820072">
        <ele>274.59</ele>
        <time>2013-07-28T08:15:55Z</time>
      </trkpt>
      <trkpt lat="41.639240641" lon="2.566840189">
        <ele>275.07</ele>
        <time>2013-07-28T08:15:57Z</time>
      </trkpt>
      <trkpt lat="41.639342984" lon="2.566964157">
        <ele>276.52</ele>
        <time>2013-07-28T08:16:07Z</time>
      </trkpt>
      <trkpt lat="41.639477682" lon="2.567042444">
        <ele>277.48</ele>
        <time>2013-07-28T08:16:16Z</time>
      </trkpt>
      <trkpt lat="41.639604164" lon="2.567118049">
        <ele>279.40</ele>
        <time>2013-07-28T08:16:26Z</time>
      </trkpt>
      <trkpt lat="41.639708687" lon="2.567168340">
        <ele>281.32</ele>
        <time>2013-07-28T08:16:34Z</time>
      </trkpt>
      <trkpt lat="41.639765265" lon="2.567203628">
        <ele>282.28</ele>
        <time>2013-07-28T08:16:38Z</time>
      </trkpt>
      <trkpt lat="41.639865345" lon="2.567326842">
        <ele>284.69</ele>
        <time>2013-07-28T08:16:49Z</time>
      </trkpt>
      <trkpt lat="41.639894849" lon="2.567456761">
        <ele>285.17</ele>
        <time>2013-07-28T08:16:57Z</time>
      </trkpt>
      <trkpt lat="41.639916390" lon="2.567604954">
        <ele>285.65</ele>
        <time>2013-07-28T08:17:05Z</time>
      </trkpt>
      <trkpt lat="41.639932065" lon="2.567776866">
        <ele>286.13</ele>
        <time>2013-07-28T08:17:13Z</time>
      </trkpt>
      <trkpt lat="41.639974728" lon="2.567850208">
        <ele>286.13</ele>
        <time>2013-07-28T08:17:18Z</time>
      </trkpt>
      <trkpt lat="41.640040275" lon="2.567905277">
        <ele>286.13</ele>
        <time>2013-07-28T08:17:22Z</time>
      </trkpt>
      <trkpt lat="41.640118646" lon="2.567969063">
        <ele>287.09</ele>
        <time>2013-07-28T08:17:28Z</time>
      </trkpt>
      <trkpt lat="41.640168350" lon="2.568009799">
        <ele>287.09</ele>
        <time>2013-07-28T08:17:32Z</time>
      </trkpt>
      <trkpt lat="41.640318219" lon="2.568080627">
        <ele>287.57</ele>
        <time>2013-07-28T08:17:41Z</time>
      </trkpt>
      <trkpt lat="41.640418215" lon="2.568125637">
        <ele>289.49</ele>
        <time>2013-07-28T08:17:49Z</time>
      </trkpt>
      <trkpt lat="41.640496921" lon="2.568199566">
        <ele>290.94</ele>
        <time>2013-07-28T08:17:57Z</time>
      </trkpt>
      <trkpt lat="41.640593061" lon="2.568346584">
        <ele>293.82</ele>
        <time>2013-07-28T08:18:09Z</time>
      </trkpt>
      <trkpt lat="41.640632624" lon="2.568433253">
        <ele>295.26</ele>
        <time>2013-07-28T08:18:15Z</time>
      </trkpt>
      <trkpt lat="41.640742511" lon="2.568527214">
        <ele>297.67</ele>
        <time>2013-07-28T08:18:25Z</time>
      </trkpt>
      <trkpt lat="41.640837478" lon="2.568590582">
        <ele>298.63</ele>
        <time>2013-07-28T08:18:32Z</time>
      </trkpt>
      <trkpt lat="41.640909311" lon="2.568627294">
        <ele>300.55</ele>
        <time>2013-07-28T08:18:37Z</time>
      </trkpt>
      <trkpt lat="41.641018443" lon="2.568742797">
        <ele>303.43</ele>
        <time>2013-07-28T08:18:48Z</time>
      </trkpt>
      <trkpt lat="41.641030597" lon="2.568766015">
        <ele>303.43</ele>
        <time>2013-07-28T08:18:50Z</time>
      </trkpt>
      <trkpt lat="41.640996901" lon="2.568803733">
        <ele>303.91</ele>
        <time>2013-07-28T08:18:55Z</time>
      </trkpt>
      <trkpt lat="41.640884165" lon="2.568838183">
        <ele>306.32</ele>
        <time>2013-07-28T08:19:05Z</time>
      </trkpt>
      <trkpt lat="41.640792551" lon="2.568867436">
        <ele>307.76</ele>
        <time>2013-07-28T08:19:13Z</time>
      </trkpt>
      <trkpt lat="41.640716611" lon="2.568893336">
        <ele>309.20</ele>
        <time>2013-07-28T08:19:20Z</time>
      </trkpt>
      <trkpt lat="41.640649472" lon="2.568905238">
        <ele>310.16</ele>
        <time>2013-07-28T08:19:25Z</time>
      </trkpt>
      <trkpt lat="41.640605048" lon="2.568905322">
        <ele>311.12</ele>
        <time>2013-07-28T08:19:29Z</time>
      </trkpt>
      <trkpt lat="41.640514020" lon="2.568900628">
        <ele>312.57</ele>
        <time>2013-07-28T08:19:38Z</time>
      </trkpt>
      <trkpt lat="41.640406061" lon="2.568887385">
        <ele>314.49</ele>
        <time>2013-07-28T08:19:47Z</time>
      </trkpt>
      <trkpt lat="41.640346801" lon="2.568873638">
        <ele>315.45</ele>
        <time>2013-07-28T08:19:52Z</time>
      </trkpt>
      <trkpt lat="41.640230125" lon="2.568859389">
        <ele>317.85</ele>
        <time>2013-07-28T08:20:01Z</time>
      </trkpt>
      <trkpt lat="41.640141109" lon="2.568924433">
        <ele>320.26</ele>
        <time>2013-07-28T08:20:09Z</time>
      </trkpt>
      <trkpt lat="41.640191484" lon="2.569035577">
        <ele>322.18</ele>
        <time>2013-07-28T08:20:18Z</time>
      </trkpt>
      <trkpt lat="41.640230712" lon="2.569104560">
        <ele>324.10</ele>
        <time>2013-07-28T08:20:25Z</time>
      </trkpt>
      <trkpt lat="41.640283182" lon="2.569166586">
        <ele>325.54</ele>
        <time>2013-07-28T08:20:32Z</time>
      </trkpt>
      <trkpt lat="41.640325427" lon="2.569254261">
        <ele>328.91</ele>
        <time>2013-07-28T08:20:40Z</time>
      </trkpt>
      <trkpt lat="41.640350573" lon="2.569328273">
        <ele>329.87</ele>
        <time>2013-07-28T08:20:47Z</time>
      </trkpt>
      <trkpt lat="41.640338335" lon="2.569405386">
        <ele>331.79</ele>
        <time>2013-07-28T08:20:54Z</time>
      </trkpt>
      <trkpt lat="41.640316878" lon="2.569458192">
        <ele>333.23</ele>
        <time>2013-07-28T08:21:00Z</time>
      </trkpt>
      <trkpt lat="41.640307658" lon="2.569488367">
        <ele>333.71</ele>
        <time>2013-07-28T08:21:03Z</time>
      </trkpt>
      <trkpt lat="41.640288714" lon="2.569508651">
        <ele>333.23</ele>
        <time>2013-07-28T08:21:05Z</time>
      </trkpt>
      <trkpt lat="41.640281003" lon="2.569555087">
        <ele>333.23</ele>
        <time>2013-07-28T08:21:12Z</time>
      </trkpt>
      <trkpt lat="41.640277147" lon="2.569567241">
        <ele>333.23</ele>
        <time>2013-07-28T08:21:25Z</time>
      </trkpt>
      <trkpt lat="41.640284188" lon="2.569547795">
        <ele>333.23</ele>
        <time>2013-07-28T08:21:39Z</time>
      </trkpt>
      <trkpt lat="41.640291648" lon="2.569526337">
        <ele>333.23</ele>
        <time>2013-07-28T08:21:56Z</time>
      </trkpt>
      <trkpt lat="41.640292905" lon="2.569535138">
        <ele>333.23</ele>
        <time>2013-07-28T08:22:10Z</time>
      </trkpt>
      <trkpt lat="41.640296845" lon="2.569537234">
        <ele>333.23</ele>
        <time>2013-07-28T08:22:22Z</time>
      </trkpt>
      <trkpt lat="41.640299862" lon="2.569538240">
        <ele>333.71</ele>
        <time>2013-07-28T08:22:39Z</time>
      </trkpt>
      <trkpt lat="41.640301120" lon="2.569558691">
        <ele>333.71</ele>
        <time>2013-07-28T08:22:52Z</time>
      </trkpt>
      <trkpt lat="41.640285613" lon="2.569573108">
        <ele>333.71</ele>
        <time>2013-07-28T08:23:09Z</time>
      </trkpt>
      <trkpt lat="41.640271615" lon="2.569582747">
        <ele>333.71</ele>
        <time>2013-07-28T08:23:24Z</time>
      </trkpt>
      <trkpt lat="41.640262144" lon="2.569587525">
        <ele>333.71</ele>
        <time>2013-07-28T08:23:40Z</time>
      </trkpt>
      <trkpt lat="41.640277986" lon="2.569586100">
        <ele>333.71</ele>
        <time>2013-07-28T08:23:57Z</time>
      </trkpt>
      <trkpt lat="41.640287876" lon="2.569569169">
        <ele>333.71</ele>
        <time>2013-07-28T08:24:13Z</time>
      </trkpt>
      <trkpt lat="41.640286703" lon="2.569565648">
        <ele>333.71</ele>
        <time>2013-07-28T08:24:29Z</time>
      </trkpt>
      <trkpt lat="41.640289553" lon="2.569560284">
        <ele>333.71</ele>
        <time>2013-07-28T08:24:45Z</time>
      </trkpt>
      <trkpt lat="41.640272202" lon="2.569625830">
        <ele>333.71</ele>
        <time>2013-07-28T08:24:53Z</time>
      </trkpt>
      <trkpt lat="41.640219396" lon="2.569787098">
        <ele>332.27</ele>
        <time>2013-07-28T08:25:00Z</time>
      </trkpt>
      <trkpt lat="41.640205734" lon="2.569806041">
        <ele>332.27</ele>
        <time>2013-07-28T08:25:01Z</time>
      </trkpt>
      <trkpt lat="41.640123842" lon="2.569944427">
        <ele>331.79</ele>
        <time>2013-07-28T08:25:09Z</time>
      </trkpt>
      <trkpt lat="41.640075311" lon="2.570065796">
        <ele>331.79</ele>
        <time>2013-07-28T08:25:16Z</time>
      </trkpt>
      <trkpt lat="41.640022589" lon="2.570197392">
        <ele>331.79</ele>
        <time>2013-07-28T08:25:23Z</time>
      </trkpt>
      <trkpt lat="41.639931059" lon="2.570450107">
        <ele>330.35</ele>
        <time>2013-07-28T08:25:31Z</time>
      </trkpt>
      <trkpt lat="41.639889317" lon="2.570615398">
        <ele>330.35</ele>
        <time>2013-07-28T08:25:37Z</time>
      </trkpt>
      <trkpt lat="41.639868027" lon="2.570743725">
        <ele>329.87</ele>
        <time>2013-07-28T08:25:42Z</time>
      </trkpt>
      <trkpt lat="41.639825447" lon="2.570957044">
        <ele>326.99</ele>
        <time>2013-07-28T08:25:49Z</time>
      </trkpt>
      <trkpt lat="41.639775910" lon="2.571181595">
        <ele>324.58</ele>
        <time>2013-07-28T08:25:55Z</time>
      </trkpt>
      <trkpt lat="41.639754284" lon="2.571320400">
        <ele>323.14</ele>
        <time>2013-07-28T08:25:58Z</time>
      </trkpt>
      <trkpt lat="41.639705753" lon="2.571564984">
        <ele>320.74</ele>
        <time>2013-07-28T08:26:03Z</time>
      </trkpt>
      <trkpt lat="41.639673567" lon="2.571717953">
        <ele>320.26</ele>
        <time>2013-07-28T08:26:08Z</time>
      </trkpt>
      <trkpt lat="41.639643559" lon="2.571851477">
        <ele>320.26</ele>
        <time>2013-07-28T08:26:25Z</time>
      </trkpt>
      <trkpt lat="41.639635177" lon="2.571885675">
        <ele>320.74</ele>
        <time>2013-07-28T08:26:37Z</time>
      </trkpt>
      <trkpt lat="41.639638027" lon="2.571957592">
        <ele>320.74</ele>
        <time>2013-07-28T08:26:54Z</time>
      </trkpt>
      <trkpt lat="41.639639704" lon="2.571989359">
        <ele>320.26</ele>
        <time>2013-07-28T08:26:55Z</time>
      </trkpt>
      <trkpt lat="41.639714638" lon="2.572114669">
        <ele>320.26</ele>
        <time>2013-07-28T08:27:02Z</time>
      </trkpt>
      <trkpt lat="41.639829135" lon="2.572237212">
        <ele>319.78</ele>
        <time>2013-07-28T08:27:09Z</time>
      </trkpt>
      <trkpt lat="41.639898621" lon="2.572297981">
        <ele>319.30</ele>
        <time>2013-07-28T08:27:13Z</time>
      </trkpt>
      <trkpt lat="41.640009681" lon="2.572494537">
        <ele>319.30</ele>
        <time>2013-07-28T08:27:22Z</time>
      </trkpt>
      <trkpt lat="41.640052010" lon="2.572697044">
        <ele>317.85</ele>
        <time>2013-07-28T08:27:28Z</time>
      </trkpt>
      <trkpt lat="41.640076904" lon="2.572998708">
        <ele>317.37</ele>
        <time>2013-07-28T08:27:35Z</time>
      </trkpt>
      <trkpt lat="41.640116718" lon="2.573376481">
        <ele>314.01</ele>
        <time>2013-07-28T08:27:43Z</time>
      </trkpt>
      <trkpt lat="41.640145468" lon="2.573629614">
        <ele>313.53</ele>
        <time>2013-07-28T08:27:48Z</time>
      </trkpt>
      <trkpt lat="41.640141947" lon="2.573844107">
        <ele>313.05</ele>
        <time>2013-07-28T08:27:53Z</time>
      </trkpt>
      <trkpt lat="41.640027451" lon="2.573963884">
        <ele>310.64</ele>
        <time>2013-07-28T08:27:58Z</time>
      </trkpt>
      <trkpt lat="41.639904823" lon="2.574026330">
        <ele>308.72</ele>
        <time>2013-07-28T08:28:02Z</time>
      </trkpt>
      <trkpt lat="41.639787141" lon="2.574214503">
        <ele>306.32</ele>
        <time>2013-07-28T08:28:07Z</time>
      </trkpt>
      <trkpt lat="41.639742131" lon="2.574293880">
        <ele>305.84</ele>
        <time>2013-07-28T08:28:09Z</time>
      </trkpt>
      <trkpt lat="41.639761912" lon="2.574520527">
        <ele>303.43</ele>
        <time>2013-07-28T08:28:15Z</time>
      </trkpt>
      <trkpt lat="41.639884288" lon="2.574658325">
        <ele>301.99</ele>
        <time>2013-07-28T08:28:19Z</time>
      </trkpt>
      <trkpt lat="41.640059469" lon="2.574823951">
        <ele>300.55</ele>
        <time>2013-07-28T08:28:26Z</time>
      </trkpt>
      <trkpt lat="41.640196262" lon="2.574798051">
        <ele>301.99</ele>
        <time>2013-07-28T08:28:33Z</time>
      </trkpt>
      <trkpt lat="41.640376222" lon="2.574757734">
        <ele>303.43</ele>
        <time>2013-07-28T08:28:43Z</time>
      </trkpt>
      <trkpt lat="41.640429698" lon="2.574746838">
        <ele>303.43</ele>
        <time>2013-07-28T08:28:46Z</time>
      </trkpt>
      <trkpt lat="41.640608903" lon="2.574658493">
        <ele>304.88</ele>
        <time>2013-07-28T08:28:56Z</time>
      </trkpt>
      <trkpt lat="41.640749971" lon="2.574533686">
        <ele>306.32</ele>
        <time>2013-07-28T08:29:05Z</time>
      </trkpt>
      <trkpt lat="41.640876705" lon="2.574416172">
        <ele>307.28</ele>
        <time>2013-07-28T08:29:13Z</time>
      </trkpt>
      <trkpt lat="41.641033279" lon="2.574291868">
        <ele>308.72</ele>
        <time>2013-07-28T08:29:22Z</time>
      </trkpt>
      <trkpt lat="41.641171077" lon="2.574190699">
        <ele>309.68</ele>
        <time>2013-07-28T08:29:30Z</time>
      </trkpt>
      <trkpt lat="41.641332513" lon="2.574094474">
        <ele>310.16</ele>
        <time>2013-07-28T08:29:37Z</time>
      </trkpt>
      <trkpt lat="41.641512808" lon="2.573912839">
        <ele>310.16</ele>
        <time>2013-07-28T08:29:45Z</time>
      </trkpt>
      <trkpt lat="41.641727803" lon="2.573816698">
        <ele>310.16</ele>
        <time>2013-07-28T08:29:52Z</time>
      </trkpt>
      <trkpt lat="41.641978925" lon="2.573879311">
        <ele>310.16</ele>
        <time>2013-07-28T08:30:00Z</time>
      </trkpt>
      <trkpt lat="41.642290900" lon="2.573994646">
        <ele>310.16</ele>
        <time>2013-07-28T08:30:09Z</time>
      </trkpt>
      <trkpt lat="41.642437080" lon="2.574133031">
        <ele>308.72</ele>
        <time>2013-07-28T08:30:13Z</time>
      </trkpt>
      <trkpt lat="41.642531879" lon="2.574254317">
        <ele>308.72</ele>
        <time>2013-07-28T08:30:16Z</time>
      </trkpt>
      <trkpt lat="41.642853242" lon="2.574503679">
        <ele>308.24</ele>
        <time>2013-07-28T08:30:26Z</time>
      </trkpt>
      <trkpt lat="41.643121965" lon="2.574639047">
        <ele>308.24</ele>
        <time>2013-07-28T08:30:35Z</time>
      </trkpt>
      <trkpt lat="41.643235121" lon="2.574700737">
        <ele>309.68</ele>
        <time>2013-07-28T08:30:39Z</time>
      </trkpt>
      <trkpt lat="41.643457996" lon="2.574765613">
        <ele>310.64</ele>
        <time>2013-07-28T08:30:47Z</time>
      </trkpt>
      <trkpt lat="41.643598141" lon="2.574622702">
        <ele>311.12</ele>
        <time>2013-07-28T08:30:53Z</time>
      </trkpt>
      <trkpt lat="41.643693946" lon="2.574337717">
        <ele>311.12</ele>
        <time>2013-07-28T08:31:00Z</time>
      </trkpt>
      <trkpt lat="41.643736359" lon="2.574169073">
        <ele>310.16</ele>
        <time>2013-07-28T08:31:03Z</time>
      </trkpt>
      <trkpt lat="41.643826800" lon="2.574011661">
        <ele>308.72</ele>
        <time>2013-07-28T08:31:06Z</time>
      </trkpt>
      <trkpt lat="41.644009609" lon="2.573894817">
        <ele>306.80</ele>
        <time>2013-07-28T08:31:10Z</time>
      </trkpt>
      <trkpt lat="41.644240530" lon="2.573805634">
        <ele>305.84</ele>
        <time>2013-07-28T08:31:14Z</time>
      </trkpt>
      <trkpt lat="41.644581590" lon="2.573545460">
        <ele>302.47</ele>
        <time>2013-07-28T08:31:21Z</time>
      </trkpt>
      <trkpt lat="41.644656105" lon="2.573485362">
        <ele>301.51</ele>
        <time>2013-07-28T08:31:24Z</time>
      </trkpt>
      <trkpt lat="41.644678736" lon="2.573486870">
        <ele>301.51</ele>
        <time>2013-07-28T08:31:30Z</time>
      </trkpt>
      <trkpt lat="41.644670271" lon="2.573495504">
        <ele>301.51</ele>
        <time>2013-07-28T08:31:41Z</time>
      </trkpt>
      <trkpt lat="41.644674713" lon="2.573486367">
        <ele>301.51</ele>
        <time>2013-07-28T08:31:54Z</time>
      </trkpt>
      <trkpt lat="41.644684855" lon="2.573483769">
        <ele>301.51</ele>
        <time>2013-07-28T08:32:07Z</time>
      </trkpt>
      <trkpt lat="41.644682089" lon="2.573498186">
        <ele>301.03</ele>
        <time>2013-07-28T08:32:26Z</time>
      </trkpt>
      <trkpt lat="41.644684855" lon="2.573481087">
        <ele>301.03</ele>
        <time>2013-07-28T08:32:50Z</time>
      </trkpt>
      <trkpt lat="41.644688375" lon="2.573470274">
        <ele>301.03</ele>
        <time>2013-07-28T08:33:18Z</time>
      </trkpt>
      <trkpt lat="41.644687621" lon="2.573467927">
        <ele>301.03</ele>
        <time>2013-07-28T08:33:43Z</time>
      </trkpt>
      <trkpt lat="41.644688040" lon="2.573468849">
        <ele>301.03</ele>
        <time>2013-07-28T08:34:07Z</time>
      </trkpt>
      <trkpt lat="41.644662392" lon="2.573510926">
        <ele>301.03</ele>
        <time>2013-07-28T08:34:34Z</time>
      </trkpt>
      <trkpt lat="41.644670606" lon="2.573493073">
        <ele>301.03</ele>
        <time>2013-07-28T08:34:56Z</time>
      </trkpt>
      <trkpt lat="41.644666499" lon="2.573463736">
        <ele>301.03</ele>
        <time>2013-07-28T08:35:20Z</time>
      </trkpt>
      <trkpt lat="41.644680413" lon="2.573430292">
        <ele>301.03</ele>
        <time>2013-07-28T08:35:38Z</time>
      </trkpt>
      <trkpt lat="41.644693572" lon="2.573408835">
        <ele>301.03</ele>
        <time>2013-07-28T08:36:01Z</time>
      </trkpt>
      <trkpt lat="41.644681335" lon="2.573438591">
        <ele>301.03</ele>
        <time>2013-07-28T08:36:19Z</time>
      </trkpt>
      <trkpt lat="41.644666080" lon="2.573455103">
        <ele>301.03</ele>
        <time>2013-07-28T08:36:42Z</time>
      </trkpt>
      <trkpt lat="41.644675886" lon="2.573442279">
        <ele>301.03</ele>
        <time>2013-07-28T08:37:05Z</time>
      </trkpt>
      <trkpt lat="41.644667421" lon="2.573466754">
        <ele>301.03</ele>
        <time>2013-07-28T08:37:32Z</time>
      </trkpt>
      <trkpt lat="41.644659961" lon="2.573484104">
        <ele>301.03</ele>
        <time>2013-07-28T08:37:52Z</time>
      </trkpt>
      <trkpt lat="41.644656608" lon="2.573482176">
        <ele>301.03</ele>
        <time>2013-07-28T08:38:13Z</time>
      </trkpt>
      <trkpt lat="41.644664319" lon="2.573460970">
        <ele>301.51</ele>
        <time>2013-07-28T08:38:38Z</time>
      </trkpt>
      <trkpt lat="41.644662559" lon="2.573478907">
        <ele>301.51</ele>
        <time>2013-07-28T08:38:57Z</time>
      </trkpt>
      <trkpt lat="41.644646885" lon="2.573490642">
        <ele>301.51</ele>
        <time>2013-07-28T08:39:16Z</time>
      </trkpt>
      <trkpt lat="41.644649232" lon="2.573462060">
        <ele>301.51</ele>
        <time>2013-07-28T08:39:41Z</time>
      </trkpt>
      <trkpt lat="41.644659709" lon="2.573472621">
        <ele>301.51</ele>
        <time>2013-07-28T08:40:02Z</time>
      </trkpt>
      <trkpt lat="41.644657362" lon="2.573472118">
        <ele>301.51</ele>
        <time>2013-07-28T08:40:25Z</time>
      </trkpt>
      <trkpt lat="41.644642443" lon="2.573483769">
        <ele>301.51</ele>
        <time>2013-07-28T08:40:49Z</time>
      </trkpt>
      <trkpt lat="41.644650908" lon="2.573485613">
        <ele>301.51</ele>
        <time>2013-07-28T08:41:16Z</time>
      </trkpt>
      <trkpt lat="41.644656105" lon="2.573474381">
        <ele>301.51</ele>
        <time>2013-07-28T08:41:41Z</time>
      </trkpt>
      <trkpt lat="41.644655937" lon="2.573448816">
        <ele>301.51</ele>
        <time>2013-07-28T08:42:05Z</time>
      </trkpt>
      <trkpt lat="41.644652920" lon="2.573458288">
        <ele>301.51</ele>
        <time>2013-07-28T08:42:31Z</time>
      </trkpt>
      <trkpt lat="41.644654429" lon="2.573444290">
        <ele>301.51</ele>
        <time>2013-07-28T08:42:49Z</time>
      </trkpt>
      <trkpt lat="41.644657446" lon="2.573437920">
        <ele>301.51</ele>
        <time>2013-07-28T08:43:14Z</time>
      </trkpt>
      <trkpt lat="41.644649986" lon="2.573458539">
        <ele>301.51</ele>
        <time>2013-07-28T08:43:38Z</time>
      </trkpt>
      <trkpt lat="41.644648897" lon="2.573442949">
        <ele>301.51</ele>
        <time>2013-07-28T08:44:04Z</time>
      </trkpt>
      <trkpt lat="41.644661721" lon="2.573448565">
        <ele>301.51</ele>
        <time>2013-07-28T08:44:28Z</time>
      </trkpt>
      <trkpt lat="41.644666918" lon="2.573458120">
        <ele>301.51</ele>
        <time>2013-07-28T08:44:51Z</time>
      </trkpt>
      <trkpt lat="41.644677563" lon="2.573444793">
        <ele>301.03</ele>
        <time>2013-07-28T08:45:10Z</time>
      </trkpt>
      <trkpt lat="41.644674713" lon="2.573432975">
        <ele>301.03</ele>
        <time>2013-07-28T08:45:34Z</time>
      </trkpt>
      <trkpt lat="41.644671276" lon="2.573420737">
        <ele>301.03</ele>
        <time>2013-07-28T08:46:00Z</time>
      </trkpt>
      <trkpt lat="41.644672366" lon="2.573412523">
        <ele>301.03</ele>
        <time>2013-07-28T08:46:24Z</time>
      </trkpt>
      <trkpt lat="41.644677898" lon="2.573443201">
        <ele>301.03</ele>
        <time>2013-07-28T08:46:51Z</time>
      </trkpt>
      <trkpt lat="41.644680413" lon="2.573450409">
        <ele>301.03</ele>
        <time>2013-07-28T08:47:11Z</time>
      </trkpt>
      <trkpt lat="41.644672869" lon="2.573458204">
        <ele>301.03</ele>
        <time>2013-07-28T08:47:35Z</time>
      </trkpt>
      <trkpt lat="41.644677395" lon="2.573495504">
        <ele>301.03</ele>
        <time>2013-07-28T08:47:47Z</time>
      </trkpt>
      <trkpt lat="41.644692315" lon="2.573500700">
        <ele>301.03</ele>
        <time>2013-07-28T08:47:57Z</time>
      </trkpt>
      <trkpt lat="41.644787785" lon="2.573564319">
        <ele>301.03</ele>
        <time>2013-07-28T08:48:04Z</time>
      </trkpt>
      <trkpt lat="41.644980317" lon="2.573752158">
        <ele>301.03</ele>
        <time>2013-07-28T08:48:13Z</time>
      </trkpt>
      <trkpt lat="41.645009067" lon="2.573797168">
        <ele>301.03</ele>
        <time>2013-07-28T08:48:15Z</time>
      </trkpt>
      <trkpt lat="41.645040080" lon="2.573896829">
        <ele>302.95</ele>
        <time>2013-07-28T08:48:19Z</time>
      </trkpt>
      <trkpt lat="41.645044439" lon="2.573936559">
        <ele>302.95</ele>
        <time>2013-07-28T08:48:21Z</time>
      </trkpt>
      <trkpt lat="41.645070255" lon="2.574123476">
        <ele>305.36</ele>
        <time>2013-07-28T08:48:30Z</time>
      </trkpt>
      <trkpt lat="41.645138232" lon="2.574307962">
        <ele>306.32</ele>
        <time>2013-07-28T08:48:39Z</time>
      </trkpt>
      <trkpt lat="41.645180561" lon="2.574344758">
        <ele>307.76</ele>
        <time>2013-07-28T08:48:43Z</time>
      </trkpt>
      <trkpt lat="41.645250550" lon="2.574359678">
        <ele>307.76</ele>
        <time>2013-07-28T08:48:47Z</time>
      </trkpt>
      <trkpt lat="41.645396479" lon="2.574306117">
        <ele>309.20</ele>
        <time>2013-07-28T08:48:57Z</time>
      </trkpt>
      <trkpt lat="41.645527991" lon="2.574238308">
        <ele>309.68</ele>
        <time>2013-07-28T08:49:06Z</time>
      </trkpt>
      <trkpt lat="41.645655060" lon="2.574190196">
        <ele>311.12</ele>
        <time>2013-07-28T08:49:15Z</time>
      </trkpt>
      <trkpt lat="41.645784645" lon="2.574149041">
        <ele>312.09</ele>
        <time>2013-07-28T08:49:24Z</time>
      </trkpt>
      <trkpt lat="41.645927975" lon="2.574086260">
        <ele>313.53</ele>
        <time>2013-07-28T08:49:35Z</time>
      </trkpt>
      <trkpt lat="41.646021433" lon="2.574030185">
        <ele>314.49</ele>
        <time>2013-07-28T08:49:42Z</time>
      </trkpt>
      <trkpt lat="41.646126375" lon="2.573953742">
        <ele>315.93</ele>
        <time>2013-07-28T08:49:50Z</time>
      </trkpt>
      <trkpt lat="41.646227880" lon="2.573861290">
        <ele>316.89</ele>
        <time>2013-07-28T08:49:58Z</time>
      </trkpt>
      <trkpt lat="41.646356961" lon="2.573761881">
        <ele>318.81</ele>
        <time>2013-07-28T08:50:07Z</time>
      </trkpt>
      <trkpt lat="41.646492496" lon="2.573720977">
        <ele>320.26</ele>
        <time>2013-07-28T08:50:15Z</time>
      </trkpt>
      <trkpt lat="41.646527281" lon="2.573726006">
        <ele>320.74</ele>
        <time>2013-07-28T08:50:17Z</time>
      </trkpt>
      <trkpt lat="41.646604814" lon="2.573736064">
        <ele>322.66</ele>
        <time>2013-07-28T08:50:22Z</time>
      </trkpt>
      <trkpt lat="41.646733308" lon="2.573768754">
        <ele>324.58</ele>
        <time>2013-07-28T08:50:30Z</time>
      </trkpt>
      <trkpt lat="41.646880578" lon="2.573777890">
        <ele>326.99</ele>
        <time>2013-07-28T08:50:39Z</time>
      </trkpt>
      <trkpt lat="41.647043523" lon="2.573728269">
        <ele>328.43</ele>
        <time>2013-07-28T08:50:49Z</time>
      </trkpt>
      <trkpt lat="41.647181153" lon="2.573686946">
        <ele>329.87</ele>
        <time>2013-07-28T08:50:58Z</time>
      </trkpt>
      <trkpt lat="41.647297662" lon="2.573654760">
        <ele>331.31</ele>
        <time>2013-07-28T08:51:06Z</time>
      </trkpt>
      <trkpt lat="41.647409057" lon="2.573684096">
        <ele>332.75</ele>
        <time>2013-07-28T08:51:14Z</time>
      </trkpt>
      <trkpt lat="41.647544090" lon="2.573752493">
        <ele>334.68</ele>
        <time>2013-07-28T08:51:23Z</time>
      </trkpt>
      <trkpt lat="41.647687756" lon="2.573855339">
        <ele>336.12</ele>
        <time>2013-07-28T08:51:33Z</time>
      </trkpt>
      <trkpt lat="41.647809461" lon="2.573915521">
        <ele>337.08</ele>
        <time>2013-07-28T08:51:41Z</time>
      </trkpt>
      <trkpt lat="41.647936028" lon="2.573985929">
        <ele>339.00</ele>
        <time>2013-07-28T08:51:50Z</time>
      </trkpt>
      <trkpt lat="41.648052536" lon="2.574073101">
        <ele>340.44</ele>
        <time>2013-07-28T08:51:58Z</time>
      </trkpt>
      <trkpt lat="41.648079442" lon="2.574098749">
        <ele>340.44</ele>
        <time>2013-07-28T08:52:00Z</time>
      </trkpt>
      <trkpt lat="41.648174409" lon="2.574175192">
        <ele>341.89</ele>
        <time>2013-07-28T08:52:07Z</time>
      </trkpt>
      <trkpt lat="41.648324194" lon="2.574245852">
        <ele>344.77</ele>
        <time>2013-07-28T08:52:17Z</time>
      </trkpt>
      <trkpt lat="41.648411784" lon="2.574261442">
        <ele>345.73</ele>
        <time>2013-07-28T08:52:23Z</time>
      </trkpt>
      <trkpt lat="41.648524102" lon="2.574259430">
        <ele>347.65</ele>
        <time>2013-07-28T08:52:31Z</time>
      </trkpt>
      <trkpt lat="41.648672545" lon="2.574296730">
        <ele>350.54</ele>
        <time>2013-07-28T08:52:41Z</time>
      </trkpt>
      <trkpt lat="41.648754437" lon="2.574400246">
        <ele>351.98</ele>
        <time>2013-07-28T08:52:48Z</time>
      </trkpt>
      <trkpt lat="41.648758041" lon="2.574592946">
        <ele>354.86</ele>
        <time>2013-07-28T08:52:58Z</time>
      </trkpt>
      <trkpt lat="41.648712862" lon="2.574787490">
        <ele>356.79</ele>
        <time>2013-07-28T08:53:08Z</time>
      </trkpt>
      <trkpt lat="41.648687633" lon="2.574987901">
        <ele>358.23</ele>
        <time>2013-07-28T08:53:18Z</time>
      </trkpt>
      <trkpt lat="41.648730297" lon="2.575215303">
        <ele>360.15</ele>
        <time>2013-07-28T08:53:29Z</time>
      </trkpt>
      <trkpt lat="41.648789389" lon="2.575325441">
        <ele>361.59</ele>
        <time>2013-07-28T08:53:36Z</time>
      </trkpt>
      <trkpt lat="41.648884105" lon="2.575409511">
        <ele>363.52</ele>
        <time>2013-07-28T08:53:44Z</time>
      </trkpt>
      <trkpt lat="41.648982341" lon="2.575489391">
        <ele>364.96</ele>
        <time>2013-07-28T08:53:52Z</time>
      </trkpt>
      <trkpt lat="41.649082504" lon="2.575675301">
        <ele>366.40</ele>
        <time>2013-07-28T08:54:03Z</time>
      </trkpt>
      <trkpt lat="41.649122905" lon="2.575871689">
        <ele>367.84</ele>
        <time>2013-07-28T08:54:12Z</time>
      </trkpt>
      <trkpt lat="41.649146710" lon="2.575955508">
        <ele>368.32</ele>
        <time>2013-07-28T08:54:16Z</time>
      </trkpt>
      <trkpt lat="41.649167581" lon="2.576052068">
        <ele>368.80</ele>
        <time>2013-07-28T08:54:21Z</time>
      </trkpt>
      <trkpt lat="41.649244778" lon="2.576225322">
        <ele>370.24</ele>
        <time>2013-07-28T08:54:30Z</time>
      </trkpt>
      <trkpt lat="41.649269421" lon="2.576256670">
        <ele>370.24</ele>
        <time>2013-07-28T08:54:32Z</time>
      </trkpt>
      <trkpt lat="41.649291130" lon="2.576287348">
        <ele>371.21</ele>
        <time>2013-07-28T08:54:34Z</time>
      </trkpt>
      <trkpt lat="41.649382660" lon="2.576429254">
        <ele>372.17</ele>
        <time>2013-07-28T08:54:43Z</time>
      </trkpt>
      <trkpt lat="41.649486093" lon="2.576581553">
        <ele>374.09</ele>
        <time>2013-07-28T08:54:53Z</time>
      </trkpt>
      <trkpt lat="41.649567397" lon="2.576692697">
        <ele>375.53</ele>
        <time>2013-07-28T08:55:01Z</time>
      </trkpt>
      <trkpt lat="41.649625903" lon="2.576767128">
        <ele>377.45</ele>
        <time>2013-07-28T08:55:07Z</time>
      </trkpt>
      <trkpt lat="41.649666220" lon="2.576797890">
        <ele>377.45</ele>
        <time>2013-07-28T08:55:11Z</time>
      </trkpt>
      <trkpt lat="41.649725229" lon="2.576844242">
        <ele>378.90</ele>
        <time>2013-07-28T08:55:16Z</time>
      </trkpt>
      <trkpt lat="41.649783315" lon="2.576880954">
        <ele>379.86</ele>
        <time>2013-07-28T08:55:21Z</time>
      </trkpt>
      <trkpt lat="41.649917929" lon="2.576919511">
        <ele>381.78</ele>
        <time>2013-07-28T08:55:31Z</time>
      </trkpt>
      <trkpt lat="41.650024630" lon="2.576936694">
        <ele>383.22</ele>
        <time>2013-07-28T08:55:39Z</time>
      </trkpt>
      <trkpt lat="41.650149018" lon="2.576961504">
        <ele>384.66</ele>
        <time>2013-07-28T08:55:48Z</time>
      </trkpt>
      <trkpt lat="41.650272902" lon="2.576962091">
        <ele>387.07</ele>
        <time>2013-07-28T08:55:57Z</time>
      </trkpt>
      <trkpt lat="41.650292348" lon="2.576964690">
        <ele>387.55</ele>
        <time>2013-07-28T08:55:59Z</time>
      </trkpt>
      <trkpt lat="41.650370803" lon="2.576965612">
        <ele>388.51</ele>
        <time>2013-07-28T08:56:05Z</time>
      </trkpt>
      <trkpt lat="41.650477924" lon="2.576972569">
        <ele>390.43</ele>
        <time>2013-07-28T08:56:13Z</time>
      </trkpt>
      <trkpt lat="41.650580853" lon="2.576961421">
        <ele>391.87</ele>
        <time>2013-07-28T08:56:21Z</time>
      </trkpt>
      <trkpt lat="41.650618991" lon="2.576952452">
        <ele>392.36</ele>
        <time>2013-07-28T08:56:24Z</time>
      </trkpt>
      <trkpt lat="41.650735583" lon="2.576931832">
        <ele>394.28</ele>
        <time>2013-07-28T08:56:33Z</time>
      </trkpt>
      <trkpt lat="41.650796101" lon="2.576896377">
        <ele>395.24</ele>
        <time>2013-07-28T08:56:38Z</time>
      </trkpt>
      <trkpt lat="41.650870532" lon="2.576833932">
        <ele>396.68</ele>
        <time>2013-07-28T08:56:45Z</time>
      </trkpt>
      <trkpt lat="41.650955608" lon="2.576756818">
        <ele>398.12</ele>
        <time>2013-07-28T08:56:53Z</time>
      </trkpt>
      <trkpt lat="41.651022496" lon="2.576698732">
        <ele>399.57</ele>
        <time>2013-07-28T08:57:00Z</time>
      </trkpt>
      <trkpt lat="41.651137915" lon="2.576598400">
        <ele>401.97</ele>
        <time>2013-07-28T08:57:11Z</time>
      </trkpt>
      <trkpt lat="41.651165156" lon="2.576565208">
        <ele>402.93</ele>
        <time>2013-07-28T08:57:14Z</time>
      </trkpt>
      <trkpt lat="41.651233049" lon="2.576497231">
        <ele>404.85</ele>
        <time>2013-07-28T08:57:22Z</time>
      </trkpt>
      <trkpt lat="41.651315862" lon="2.576461021">
        <ele>406.29</ele>
        <time>2013-07-28T08:57:31Z</time>
      </trkpt>
      <trkpt lat="41.651384929" lon="2.576405784">
        <ele>408.22</ele>
        <time>2013-07-28T08:57:39Z</time>
      </trkpt>
      <trkpt lat="41.651395742" lon="2.576410227">
        <ele>408.22</ele>
        <time>2013-07-28T08:57:40Z</time>
      </trkpt>
      <trkpt lat="41.651491128" lon="2.576408969">
        <ele>409.66</ele>
        <time>2013-07-28T08:57:49Z</time>
      </trkpt>
      <trkpt lat="41.651586095" lon="2.576377789">
        <ele>412.06</ele>
        <time>2013-07-28T08:57:59Z</time>
      </trkpt>
      <trkpt lat="41.651646277" lon="2.576348871">
        <ele>413.50</ele>
        <time>2013-07-28T08:58:05Z</time>
      </trkpt>
      <trkpt lat="41.651680140" lon="2.576360019">
        <ele>414.47</ele>
        <time>2013-07-28T08:58:08Z</time>
      </trkpt>
      <trkpt lat="41.651743842" lon="2.576344680">
        <ele>414.95</ele>
        <time>2013-07-28T08:58:14Z</time>
      </trkpt>
      <trkpt lat="41.651839480" lon="2.576297909">
        <ele>416.87</ele>
        <time>2013-07-28T08:58:23Z</time>
      </trkpt>
      <trkpt lat="41.651912403" lon="2.576247199">
        <ele>417.83</ele>
        <time>2013-07-28T08:58:31Z</time>
      </trkpt>
      <trkpt lat="41.651958419" lon="2.576153992">
        <ele>419.75</ele>
        <time>2013-07-28T08:58:39Z</time>
      </trkpt>
      <trkpt lat="41.651973758" lon="2.576016361">
        <ele>421.19</ele>
        <time>2013-07-28T08:58:48Z</time>
      </trkpt>
      <trkpt lat="41.651993791" lon="2.575877389">
        <ele>422.64</ele>
        <time>2013-07-28T08:58:58Z</time>
      </trkpt>
      <trkpt lat="41.652015332" lon="2.575729784">
        <ele>424.56</ele>
        <time>2013-07-28T08:59:08Z</time>
      </trkpt>
      <trkpt lat="41.652071910" lon="2.575600954">
        <ele>426.00</ele>
        <time>2013-07-28T08:59:18Z</time>
      </trkpt>
      <trkpt lat="41.652141145" lon="2.575494252">
        <ele>427.44</ele>
        <time>2013-07-28T08:59:27Z</time>
      </trkpt>
      <trkpt lat="41.652228819" lon="2.575350838">
        <ele>428.89</ele>
        <time>2013-07-28T08:59:37Z</time>
      </trkpt>
      <trkpt lat="41.652289169" lon="2.575236341">
        <ele>429.85</ele>
        <time>2013-07-28T08:59:45Z</time>
      </trkpt>
      <trkpt lat="41.652341556" lon="2.575184122">
        <ele>430.81</ele>
        <time>2013-07-28T08:59:50Z</time>
      </trkpt>
      <trkpt lat="41.652378939" lon="2.575162329">
        <ele>430.81</ele>
        <time>2013-07-28T08:59:53Z</time>
      </trkpt>
      <trkpt lat="41.652442055" lon="2.575033415">
        <ele>431.77</ele>
        <time>2013-07-28T09:00:02Z</time>
      </trkpt>
      <trkpt lat="41.652513469" lon="2.574917829">
        <ele>433.69</ele>
        <time>2013-07-28T09:00:11Z</time>
      </trkpt>
      <trkpt lat="41.652548505" lon="2.574866615">
        <ele>434.17</ele>
        <time>2013-07-28T09:00:15Z</time>
      </trkpt>
      <trkpt lat="41.652601060" lon="2.574728146">
        <ele>436.10</ele>
        <time>2013-07-28T09:00:25Z</time>
      </trkpt>
      <trkpt lat="41.652639616" lon="2.574684644">
        <ele>436.10</ele>
        <time>2013-07-28T09:00:29Z</time>
      </trkpt>
      <trkpt lat="41.652701559" lon="2.574605100">
        <ele>437.54</ele>
        <time>2013-07-28T09:00:36Z</time>
      </trkpt>
      <trkpt lat="41.652768782" lon="2.574513402">
        <ele>438.98</ele>
        <time>2013-07-28T09:00:44Z</time>
      </trkpt>
      <trkpt lat="41.652808344" lon="2.574479707">
        <ele>439.46</ele>
        <time>2013-07-28T09:00:48Z</time>
      </trkpt>
      <trkpt lat="41.652903395" lon="2.574386165">
        <ele>441.38</ele>
        <time>2013-07-28T09:00:58Z</time>
      </trkpt>
      <trkpt lat="41.652918901" lon="2.574363785">
        <ele>441.38</ele>
        <time>2013-07-28T09:01:00Z</time>
      </trkpt>
      <trkpt lat="41.652992662" lon="2.574291282">
        <ele>442.82</ele>
        <time>2013-07-28T09:01:08Z</time>
      </trkpt>
      <trkpt lat="41.653118223" lon="2.574197572">
        <ele>444.27</ele>
        <time>2013-07-28T09:01:19Z</time>
      </trkpt>
      <trkpt lat="41.653218387" lon="2.574170582">
        <ele>444.75</ele>
        <time>2013-07-28T09:01:26Z</time>
      </trkpt>
      <trkpt lat="41.653274965" lon="2.574144347">
        <ele>445.23</ele>
        <time>2013-07-28T09:01:30Z</time>
      </trkpt>
      <trkpt lat="41.653392563" lon="2.574073855">
        <ele>446.67</ele>
        <time>2013-07-28T09:01:39Z</time>
      </trkpt>
      <trkpt lat="41.653427683" lon="2.574056840">
        <ele>446.67</ele>
        <time>2013-07-28T09:01:42Z</time>
      </trkpt>
      <trkpt lat="41.653524243" lon="2.573994395">
        <ele>448.11</ele>
        <time>2013-07-28T09:01:51Z</time>
      </trkpt>
      <trkpt lat="41.653625747" lon="2.573904960">
        <ele>449.07</ele>
        <time>2013-07-28T09:02:00Z</time>
      </trkpt>
      <trkpt lat="41.653744435" lon="2.573850980">
        <ele>450.03</ele>
        <time>2013-07-28T09:02:08Z</time>
      </trkpt>
      <trkpt lat="41.653769078" lon="2.573837485">
        <ele>450.03</ele>
        <time>2013-07-28T09:02:10Z</time>
      </trkpt>
      <trkpt lat="41.653893717" lon="2.573814938">
        <ele>450.52</ele>
        <time>2013-07-28T09:02:19Z</time>
      </trkpt>
      <trkpt lat="41.653994300" lon="2.573814351">
        <ele>451.48</ele>
        <time>2013-07-28T09:02:28Z</time>
      </trkpt>
      <trkpt lat="41.654086501" lon="2.573814603">
        <ele>453.40</ele>
        <time>2013-07-28T09:02:35Z</time>
      </trkpt>
      <trkpt lat="41.654193202" lon="2.573856009">
        <ele>454.84</ele>
        <time>2013-07-28T09:02:44Z</time>
      </trkpt>
      <trkpt lat="41.654280961" lon="2.573890375">
        <ele>455.80</ele>
        <time>2013-07-28T09:02:51Z</time>
      </trkpt>
      <trkpt lat="41.654376179" lon="2.573906552">
        <ele>457.72</ele>
        <time>2013-07-28T09:02:59Z</time>
      </trkpt>
      <trkpt lat="41.654430829" lon="2.573915688">
        <ele>458.21</ele>
        <time>2013-07-28T09:03:04Z</time>
      </trkpt>
      <trkpt lat="41.654530993" lon="2.573875707">
        <ele>459.65</ele>
        <time>2013-07-28T09:03:13Z</time>
      </trkpt>
      <trkpt lat="41.654649681" lon="2.573841425">
        <ele>461.57</ele>
        <time>2013-07-28T09:03:24Z</time>
      </trkpt>
      <trkpt lat="41.654684633" lon="2.573833462">
        <ele>462.05</ele>
        <time>2013-07-28T09:03:27Z</time>
      </trkpt>
      <trkpt lat="41.654768201" lon="2.573855339">
        <ele>462.53</ele>
        <time>2013-07-28T09:03:33Z</time>
      </trkpt>
      <trkpt lat="41.654815307" lon="2.573866822">
        <ele>463.01</ele>
        <time>2013-07-28T09:03:37Z</time>
      </trkpt>
      <trkpt lat="41.654844476" lon="2.573884675">
        <ele>463.97</ele>
        <time>2013-07-28T09:03:40Z</time>
      </trkpt>
      <trkpt lat="41.654921673" lon="2.573938906">
        <ele>465.42</ele>
        <time>2013-07-28T09:03:47Z</time>
      </trkpt>
      <trkpt lat="41.654933324" lon="2.573948462">
        <ele>465.42</ele>
        <time>2013-07-28T09:03:48Z</time>
      </trkpt>
      <trkpt lat="41.655041283" lon="2.574034544">
        <ele>466.86</ele>
        <time>2013-07-28T09:03:57Z</time>
      </trkpt>
      <trkpt lat="41.655053018" lon="2.574043010">
        <ele>467.34</ele>
        <time>2013-07-28T09:03:58Z</time>
      </trkpt>
      <trkpt lat="41.655211184" lon="2.574074693">
        <ele>468.78</ele>
        <time>2013-07-28T09:04:10Z</time>
      </trkpt>
      <trkpt lat="41.655236162" lon="2.574076202">
        <ele>468.78</ele>
        <time>2013-07-28T09:04:12Z</time>
      </trkpt>
      <trkpt lat="41.655318808" lon="2.574062539">
        <ele>469.74</ele>
        <time>2013-07-28T09:04:19Z</time>
      </trkpt>
      <trkpt lat="41.655384857" lon="2.574073771">
        <ele>470.22</ele>
        <time>2013-07-28T09:04:24Z</time>
      </trkpt>
      <trkpt lat="41.655435400" lon="2.574059270">
        <ele>470.70</ele>
        <time>2013-07-28T09:04:28Z</time>
      </trkpt>
      <trkpt lat="41.655491056" lon="2.574077459">
        <ele>471.18</ele>
        <time>2013-07-28T09:04:32Z</time>
      </trkpt>
      <trkpt lat="41.655554088" lon="2.574076286">
        <ele>472.14</ele>
        <time>2013-07-28T09:04:37Z</time>
      </trkpt>
      <trkpt lat="41.655620976" lon="2.574088859">
        <ele>473.59</ele>
        <time>2013-07-28T09:04:43Z</time>
      </trkpt>
      <trkpt lat="41.655662550" lon="2.574087685">
        <ele>474.07</ele>
        <time>2013-07-28T09:04:47Z</time>
      </trkpt>
      <trkpt lat="41.655690545" lon="2.574067904">
        <ele>474.55</ele>
        <time>2013-07-28T09:04:50Z</time>
      </trkpt>
      <trkpt lat="41.655727174" lon="2.574035801">
        <ele>475.51</ele>
        <time>2013-07-28T09:04:54Z</time>
      </trkpt>
      <trkpt lat="41.655707058" lon="2.573891716">
        <ele>476.95</ele>
        <time>2013-07-28T09:05:04Z</time>
      </trkpt>
      <trkpt lat="41.655648971" lon="2.573882831">
        <ele>478.39</ele>
        <time>2013-07-28T09:05:10Z</time>
      </trkpt>
      <trkpt lat="41.655573366" lon="2.573874617">
        <ele>479.84</ele>
        <time>2013-07-28T09:05:17Z</time>
      </trkpt>
      <trkpt lat="41.655540509" lon="2.573871516">
        <ele>480.32</ele>
        <time>2013-07-28T09:05:20Z</time>
      </trkpt>
      <trkpt lat="41.655476723" lon="2.573865565">
        <ele>481.28</ele>
        <time>2013-07-28T09:05:26Z</time>
      </trkpt>
      <trkpt lat="41.655384941" lon="2.573840000">
        <ele>483.20</ele>
        <time>2013-07-28T09:05:34Z</time>
      </trkpt>
      <trkpt lat="41.655341774" lon="2.573784512">
        <ele>483.68</ele>
        <time>2013-07-28T09:05:39Z</time>
      </trkpt>
      <trkpt lat="41.655303804" lon="2.573612599">
        <ele>485.60</ele>
        <time>2013-07-28T09:05:50Z</time>
      </trkpt>
      <trkpt lat="41.655303050" lon="2.573486451">
        <ele>487.05</ele>
        <time>2013-07-28T09:05:58Z</time>
      </trkpt>
      <trkpt lat="41.655310510" lon="2.573400872">
        <ele>488.01</ele>
        <time>2013-07-28T09:06:03Z</time>
      </trkpt>
      <trkpt lat="41.655316126" lon="2.573180093">
        <ele>489.93</ele>
        <time>2013-07-28T09:06:16Z</time>
      </trkpt>
      <trkpt lat="41.655289890" lon="2.573022261">
        <ele>491.85</ele>
        <time>2013-07-28T09:06:25Z</time>
      </trkpt>
      <trkpt lat="41.655201461" lon="2.572882116">
        <ele>492.81</ele>
        <time>2013-07-28T09:06:35Z</time>
      </trkpt>
      <trkpt lat="41.655114709" lon="2.572809780">
        <ele>493.77</ele>
        <time>2013-07-28T09:06:43Z</time>
      </trkpt>
      <trkpt lat="41.655000547" lon="2.572726632">
        <ele>494.26</ele>
        <time>2013-07-28T09:06:53Z</time>
      </trkpt>
      <trkpt lat="41.654884122" lon="2.572728476">
        <ele>494.74</ele>
        <time>2013-07-28T09:07:01Z</time>
      </trkpt>
      <trkpt lat="41.654859647" lon="2.572725961">
        <ele>494.74</ele>
        <time>2013-07-28T09:07:11Z</time>
      </trkpt>
      <trkpt lat="41.654852523" lon="2.572727973">
        <ele>494.74</ele>
        <time>2013-07-28T09:07:22Z</time>
      </trkpt>
      <trkpt lat="41.654855373" lon="2.572736522">
        <ele>494.74</ele>
        <time>2013-07-28T09:07:36Z</time>
      </trkpt>
      <trkpt lat="41.654868448" lon="2.572717412">
        <ele>494.74</ele>
        <time>2013-07-28T09:07:48Z</time>
      </trkpt>
      <trkpt lat="41.654860486" lon="2.572718669">
        <ele>494.74</ele>
        <time>2013-07-28T09:08:03Z</time>
      </trkpt>
      <trkpt lat="41.654862497" lon="2.572696457">
        <ele>495.22</ele>
        <time>2013-07-28T09:08:13Z</time>
      </trkpt>
      <trkpt lat="41.654852020" lon="2.572692853">
        <ele>495.22</ele>
        <time>2013-07-28T09:08:24Z</time>
      </trkpt>
      <trkpt lat="41.654857552" lon="2.572702324">
        <ele>495.22</ele>
        <time>2013-07-28T09:08:32Z</time>
      </trkpt>
      <trkpt lat="41.654858977" lon="2.572704001">
        <ele>495.22</ele>
        <time>2013-07-28T09:08:33Z</time>
      </trkpt>
      <trkpt lat="41.654838944" lon="2.572729314">
        <ele>495.22</ele>
        <time>2013-07-28T09:08:38Z</time>
      </trkpt>
      <trkpt lat="41.654842967" lon="2.572738785">
        <ele>495.22</ele>
        <time>2013-07-28T09:08:53Z</time>
      </trkpt>
      <trkpt lat="41.654828886" lon="2.572742641">
        <ele>495.22</ele>
        <time>2013-07-28T09:09:07Z</time>
      </trkpt>
      <trkpt lat="41.654831903" lon="2.572733756">
        <ele>495.22</ele>
        <time>2013-07-28T09:09:22Z</time>
      </trkpt>
      <trkpt lat="41.654831149" lon="2.572739288">
        <ele>495.22</ele>
        <time>2013-07-28T09:09:43Z</time>
      </trkpt>
      <trkpt lat="41.654799130" lon="2.572755465">
        <ele>495.70</ele>
        <time>2013-07-28T09:09:52Z</time>
      </trkpt>
      <trkpt lat="41.654746659" lon="2.572831489">
        <ele>495.70</ele>
        <time>2013-07-28T09:10:00Z</time>
      </trkpt>
      <trkpt lat="41.654645741" lon="2.572901897">
        <ele>495.70</ele>
        <time>2013-07-28T09:10:07Z</time>
      </trkpt>
      <trkpt lat="41.654457065" lon="2.572939364">
        <ele>495.70</ele>
        <time>2013-07-28T09:10:17Z</time>
      </trkpt>
      <trkpt lat="41.654337539" lon="2.572949590">
        <ele>495.70</ele>
        <time>2013-07-28T09:10:23Z</time>
      </trkpt>
      <trkpt lat="41.654179288" lon="2.572938861">
        <ele>496.66</ele>
        <time>2013-07-28T09:10:31Z</time>
      </trkpt>
      <trkpt lat="41.654013997" lon="2.572915644">
        <ele>497.62</ele>
        <time>2013-07-28T09:10:40Z</time>
      </trkpt>
      <trkpt lat="41.653867062" lon="2.572897874">
        <ele>498.58</ele>
        <time>2013-07-28T09:10:48Z</time>
      </trkpt>
      <trkpt lat="41.653682828" lon="2.572894689">
        <ele>499.06</ele>
        <time>2013-07-28T09:10:58Z</time>
      </trkpt>
      <trkpt lat="41.653477639" lon="2.572938945">
        <ele>499.06</ele>
        <time>2013-07-28T09:11:09Z</time>
      </trkpt>
      <trkpt lat="41.653353503" lon="2.572989823">
        <ele>500.02</ele>
        <time>2013-07-28T09:11:17Z</time>
      </trkpt>
      <trkpt lat="41.653301452" lon="2.573010946">
        <ele>500.50</ele>
        <time>2013-07-28T09:11:21Z</time>
      </trkpt>
      <trkpt lat="41.653186787" lon="2.573072385">
        <ele>502.43</ele>
        <time>2013-07-28T09:11:29Z</time>
      </trkpt>
      <trkpt lat="41.653173711" lon="2.573079091">
        <ele>502.43</ele>
        <time>2013-07-28T09:11:30Z</time>
      </trkpt>
      <trkpt lat="41.653070698" lon="2.573114462">
        <ele>504.35</ele>
        <time>2013-07-28T09:11:39Z</time>
      </trkpt>
      <trkpt lat="41.652968941" lon="2.573158132">
        <ele>506.27</ele>
        <time>2013-07-28T09:11:48Z</time>
      </trkpt>
      <trkpt lat="41.652872550" lon="2.573171878">
        <ele>507.71</ele>
        <time>2013-07-28T09:11:56Z</time>
      </trkpt>
      <trkpt lat="41.652824857" lon="2.573164251">
        <ele>508.19</ele>
        <time>2013-07-28T09:12:00Z</time>
      </trkpt>
      <trkpt lat="41.652740283" lon="2.573133405">
        <ele>510.12</ele>
        <time>2013-07-28T09:12:07Z</time>
      </trkpt>
      <trkpt lat="41.652657973" lon="2.573028715">
        <ele>511.56</ele>
        <time>2013-07-28T09:12:17Z</time>
      </trkpt>
      <trkpt lat="41.652676162" lon="2.572953362">
        <ele>512.04</ele>
        <time>2013-07-28T09:12:22Z</time>
      </trkpt>
      <trkpt lat="41.652779259" lon="2.572830735">
        <ele>513.48</ele>
        <time>2013-07-28T09:12:33Z</time>
      </trkpt>
      <trkpt lat="41.652883027" lon="2.572749179">
        <ele>514.44</ele>
        <time>2013-07-28T09:12:42Z</time>
      </trkpt>
      <trkpt lat="41.652893756" lon="2.572738869">
        <ele>514.44</ele>
        <time>2013-07-28T09:12:43Z</time>
      </trkpt>
      <trkpt lat="41.652934743" lon="2.572698888">
        <ele>515.40</ele>
        <time>2013-07-28T09:12:47Z</time>
      </trkpt>
      <trkpt lat="41.653032392" lon="2.572560502">
        <ele>515.88</ele>
        <time>2013-07-28T09:12:58Z</time>
      </trkpt>
      <trkpt lat="41.653110596" lon="2.572413987">
        <ele>516.85</ele>
        <time>2013-07-28T09:13:07Z</time>
      </trkpt>
      <trkpt lat="41.653186452" lon="2.572271578">
        <ele>517.33</ele>
        <time>2013-07-28T09:13:14Z</time>
      </trkpt>
      <trkpt lat="41.653339841" lon="2.572054235">
        <ele>517.33</ele>
        <time>2013-07-28T09:13:24Z</time>
      </trkpt>
      <trkpt lat="41.653515525" lon="2.571881987">
        <ele>517.81</ele>
        <time>2013-07-28T09:13:34Z</time>
      </trkpt>
      <trkpt lat="41.653667154" lon="2.571818117">
        <ele>518.77</ele>
        <time>2013-07-28T09:13:43Z</time>
      </trkpt>
      <trkpt lat="41.653797744" lon="2.571778890">
        <ele>520.69</ele>
        <time>2013-07-28T09:13:52Z</time>
      </trkpt>
      <trkpt lat="41.653916264" lon="2.571737232">
        <ele>522.13</ele>
        <time>2013-07-28T09:14:01Z</time>
      </trkpt>
      <trkpt lat="41.654014249" lon="2.571677888">
        <ele>524.06</ele>
        <time>2013-07-28T09:14:09Z</time>
      </trkpt>
      <trkpt lat="41.654076442" lon="2.571612928">
        <ele>525.50</ele>
        <time>2013-07-28T09:14:14Z</time>
      </trkpt>
      <trkpt lat="41.654096978" lon="2.571448224">
        <ele>526.94</ele>
        <time>2013-07-28T09:14:23Z</time>
      </trkpt>
      <trkpt lat="41.654088428" lon="2.571278071">
        <ele>528.86</ele>
        <time>2013-07-28T09:14:32Z</time>
      </trkpt>
      <trkpt lat="41.654087925" lon="2.571246723">
        <ele>528.86</ele>
        <time>2013-07-28T09:14:34Z</time>
      </trkpt>
      <trkpt lat="41.654094296" lon="2.571203137">
        <ele>529.34</ele>
        <time>2013-07-28T09:14:37Z</time>
      </trkpt>
      <trkpt lat="41.654131260" lon="2.571154941">
        <ele>529.82</ele>
        <time>2013-07-28T09:14:42Z</time>
      </trkpt>
      <trkpt lat="41.654050207" lon="2.571079504">
        <ele>529.82</ele>
        <time>2013-07-28T09:14:48Z</time>
      </trkpt>
      <trkpt lat="41.654048950" lon="2.570957631">
        <ele>529.82</ele>
        <time>2013-07-28T09:14:52Z</time>
      </trkpt>
      <trkpt lat="41.654058170" lon="2.570821341">
        <ele>528.38</ele>
        <time>2013-07-28T09:14:55Z</time>
      </trkpt>
      <trkpt lat="41.654106030" lon="2.570517833">
        <ele>526.94</ele>
        <time>2013-07-28T09:15:01Z</time>
      </trkpt>
      <trkpt lat="41.654192699" lon="2.570270902">
        <ele>525.98</ele>
        <time>2013-07-28T09:15:07Z</time>
      </trkpt>
      <trkpt lat="41.654278279" lon="2.570030341">
        <ele>524.54</ele>
        <time>2013-07-28T09:15:14Z</time>
      </trkpt>
      <trkpt lat="41.654391183" lon="2.569806293">
        <ele>524.06</ele>
        <time>2013-07-28T09:15:22Z</time>
      </trkpt>
      <trkpt lat="41.654540800" lon="2.569648881">
        <ele>524.06</ele>
        <time>2013-07-28T09:15:30Z</time>
      </trkpt>
      <trkpt lat="41.654647669" lon="2.569610408">
        <ele>524.06</ele>
        <time>2013-07-28T09:15:37Z</time>
      </trkpt>
      <trkpt lat="41.654779181" lon="2.569563134">
        <ele>524.06</ele>
        <time>2013-07-28T09:15:45Z</time>
      </trkpt>
      <trkpt lat="41.654814134" lon="2.569540167">
        <ele>524.06</ele>
        <time>2013-07-28T09:15:47Z</time>
      </trkpt>
      <trkpt lat="41.654855708" lon="2.569358951">
        <ele>524.06</ele>
        <time>2013-07-28T09:15:53Z</time>
      </trkpt>
      <trkpt lat="41.654741714" lon="2.569189301">
        <ele>524.06</ele>
        <time>2013-07-28T09:16:00Z</time>
      </trkpt>
      <trkpt lat="41.654549265" lon="2.569077738">
        <ele>524.06</ele>
        <time>2013-07-28T09:16:09Z</time>
      </trkpt>
      <trkpt lat="41.654373162" lon="2.569008503">
        <ele>524.06</ele>
        <time>2013-07-28T09:16:16Z</time>
      </trkpt>
      <trkpt lat="41.654199405" lon="2.568966258">
        <ele>523.58</ele>
        <time>2013-07-28T09:16:21Z</time>
      </trkpt>
      <trkpt lat="41.653824901" lon="2.568985202">
        <ele>523.09</ele>
        <time>2013-07-28T09:16:30Z</time>
      </trkpt>
      <trkpt lat="41.653615354" lon="2.569032224">
        <ele>523.09</ele>
        <time>2013-07-28T09:16:37Z</time>
      </trkpt>
      <trkpt lat="41.653488200" lon="2.569104895">
        <ele>524.06</ele>
        <time>2013-07-28T09:16:43Z</time>
      </trkpt>
      <trkpt lat="41.653352497" lon="2.569252500">
        <ele>525.98</ele>
        <time>2013-07-28T09:16:52Z</time>
      </trkpt>
      <trkpt lat="41.653244706" lon="2.569466910">
        <ele>527.90</ele>
        <time>2013-07-28T09:17:02Z</time>
      </trkpt>
      <trkpt lat="41.653154349" lon="2.569591297">
        <ele>528.86</ele>
        <time>2013-07-28T09:17:09Z</time>
      </trkpt>
      <trkpt lat="41.653019484" lon="2.569587609">
        <ele>529.82</ele>
        <time>2013-07-28T09:17:16Z</time>
      </trkpt>
      <trkpt lat="41.652889732" lon="2.569470681">
        <ele>531.27</ele>
        <time>2013-07-28T09:17:24Z</time>
      </trkpt>
      <trkpt lat="41.652851427" lon="2.569264570">
        <ele>532.23</ele>
        <time>2013-07-28T09:17:33Z</time>
      </trkpt>
      <trkpt lat="41.652875232" lon="2.569042869">
        <ele>533.19</ele>
        <time>2013-07-28T09:17:42Z</time>
      </trkpt>
      <trkpt lat="41.652902892" lon="2.568802644">
        <ele>534.15</ele>
        <time>2013-07-28T09:17:52Z</time>
      </trkpt>
      <trkpt lat="41.652911861" lon="2.568575578">
        <ele>535.11</ele>
        <time>2013-07-28T09:18:00Z</time>
      </trkpt>
      <trkpt lat="41.652930804" lon="2.568277937">
        <ele>535.11</ele>
        <time>2013-07-28T09:18:08Z</time>
      </trkpt>
      <trkpt lat="41.652950837" lon="2.567993455">
        <ele>535.11</ele>
        <time>2013-07-28T09:18:16Z</time>
      </trkpt>
      <trkpt lat="41.652994171" lon="2.567687012">
        <ele>535.11</ele>
        <time>2013-07-28T09:18:24Z</time>
      </trkpt>
      <trkpt lat="41.653030968" lon="2.567600763">
        <ele>533.67</ele>
        <time>2013-07-28T09:18:26Z</time>
      </trkpt>
      <trkpt lat="41.653178489" lon="2.567281328">
        <ele>531.75</ele>
        <time>2013-07-28T09:18:34Z</time>
      </trkpt>
      <trkpt lat="41.653320395" lon="2.567220140">
        <ele>530.79</ele>
        <time>2013-07-28T09:18:39Z</time>
      </trkpt>
      <trkpt lat="41.653471688" lon="2.567180243">
        <ele>529.82</ele>
        <time>2013-07-28T09:18:43Z</time>
      </trkpt>
      <trkpt lat="41.653759523" lon="2.567021825">
        <ele>529.82</ele>
        <time>2013-07-28T09:18:51Z</time>
      </trkpt>
      <trkpt lat="41.653912995" lon="2.566886792">
        <ele>530.79</ele>
        <time>2013-07-28T09:18:58Z</time>
      </trkpt>
      <trkpt lat="41.654046854" lon="2.566678502">
        <ele>531.27</ele>
        <time>2013-07-28T09:19:06Z</time>
      </trkpt>
      <trkpt lat="41.654169230" lon="2.566472056">
        <ele>531.27</ele>
        <time>2013-07-28T09:19:14Z</time>
      </trkpt>
      <trkpt lat="41.654202758" lon="2.566421261">
        <ele>531.27</ele>
        <time>2013-07-28T09:19:16Z</time>
      </trkpt>
      <trkpt lat="41.654311136" lon="2.566186400">
        <ele>532.23</ele>
        <time>2013-07-28T09:19:25Z</time>
      </trkpt>
      <trkpt lat="41.654367630" lon="2.566076933">
        <ele>533.67</ele>
        <time>2013-07-28T09:19:32Z</time>
      </trkpt>
      <trkpt lat="41.654441642" lon="2.565967549">
        <ele>536.55</ele>
        <time>2013-07-28T09:19:41Z</time>
      </trkpt>
      <trkpt lat="41.654516157" lon="2.565892531">
        <ele>538.96</ele>
        <time>2013-07-28T09:19:50Z</time>
      </trkpt>
      <trkpt lat="41.654604251" lon="2.565858333">
        <ele>540.88</ele>
        <time>2013-07-28T09:19:58Z</time>
      </trkpt>
      <trkpt lat="41.654724866" lon="2.565891357">
        <ele>542.32</ele>
        <time>2013-07-28T09:20:06Z</time>
      </trkpt>
      <trkpt lat="41.654770967" lon="2.565924214">
        <ele>543.28</ele>
        <time>2013-07-28T09:20:11Z</time>
      </trkpt>
      <trkpt lat="41.654851601" lon="2.566068886">
        <ele>546.17</ele>
        <time>2013-07-28T09:20:22Z</time>
      </trkpt>
      <trkpt lat="41.654930810" lon="2.566188412">
        <ele>548.09</ele>
        <time>2013-07-28T09:20:31Z</time>
      </trkpt>
      <trkpt lat="41.654969031" lon="2.566291342">
        <ele>549.53</ele>
        <time>2013-07-28T09:20:38Z</time>
      </trkpt>
      <trkpt lat="41.654994428" lon="2.566465601">
        <ele>551.45</ele>
        <time>2013-07-28T09:20:48Z</time>
      </trkpt>
      <trkpt lat="41.654931396" lon="2.566614380">
        <ele>551.93</ele>
        <time>2013-07-28T09:20:57Z</time>
      </trkpt>
      <trkpt lat="41.654820588" lon="2.566716053">
        <ele>552.41</ele>
        <time>2013-07-28T09:21:06Z</time>
      </trkpt>
      <trkpt lat="41.654698463" lon="2.566820072">
        <ele>553.38</ele>
        <time>2013-07-28T09:21:15Z</time>
      </trkpt>
      <trkpt lat="41.654592432" lon="2.566958374">
        <ele>553.38</ele>
        <time>2013-07-28T09:21:24Z</time>
      </trkpt>
      <trkpt lat="41.654486234" lon="2.567119390">
        <ele>553.38</ele>
        <time>2013-07-28T09:21:33Z</time>
      </trkpt>
      <trkpt lat="41.654395625" lon="2.567405548">
        <ele>553.38</ele>
        <time>2013-07-28T09:21:43Z</time>
      </trkpt>
      <trkpt lat="41.654356733" lon="2.567701010">
        <ele>553.38</ele>
        <time>2013-07-28T09:21:52Z</time>
      </trkpt>
      <trkpt lat="41.654374000" lon="2.567741495">
        <ele>553.86</ele>
        <time>2013-07-28T09:21:54Z</time>
      </trkpt>
      <trkpt lat="41.654415155" lon="2.567785584">
        <ele>554.34</ele>
        <time>2013-07-28T09:21:58Z</time>
      </trkpt>
      <trkpt lat="41.654520013" lon="2.567894464">
        <ele>556.74</ele>
        <time>2013-07-28T09:22:07Z</time>
      </trkpt>
      <trkpt lat="41.654651944" lon="2.568049362">
        <ele>558.66</ele>
        <time>2013-07-28T09:22:17Z</time>
      </trkpt>
      <trkpt lat="41.654805919" lon="2.568169139">
        <ele>561.07</ele>
        <time>2013-07-28T09:22:27Z</time>
      </trkpt>
      <trkpt lat="41.654928379" lon="2.568196632">
        <ele>562.51</ele>
        <time>2013-07-28T09:22:35Z</time>
      </trkpt>
      <trkpt lat="41.655033404" lon="2.568212390">
        <ele>563.95</ele>
        <time>2013-07-28T09:22:43Z</time>
      </trkpt>
      <trkpt lat="41.655152008" lon="2.568227813">
        <ele>565.87</ele>
        <time>2013-07-28T09:22:51Z</time>
      </trkpt>
      <trkpt lat="41.655253429" lon="2.568247259">
        <ele>567.32</ele>
        <time>2013-07-28T09:22:58Z</time>
      </trkpt>
      <trkpt lat="41.655326603" lon="2.568263017">
        <ele>568.28</ele>
        <time>2013-07-28T09:23:03Z</time>
      </trkpt>
      <trkpt lat="41.655448644" lon="2.568304340">
        <ele>569.24</ele>
        <time>2013-07-28T09:23:11Z</time>
      </trkpt>
      <trkpt lat="41.655584179" lon="2.568381453">
        <ele>570.20</ele>
        <time>2013-07-28T09:23:20Z</time>
      </trkpt>
      <trkpt lat="41.655745112" lon="2.568461668">
        <ele>571.16</ele>
        <time>2013-07-28T09:23:30Z</time>
      </trkpt>
      <trkpt lat="41.655920377" lon="2.568445742">
        <ele>571.64</ele>
        <time>2013-07-28T09:23:39Z</time>
      </trkpt>
      <trkpt lat="41.656053063" lon="2.568409281">
        <ele>572.12</ele>
        <time>2013-07-28T09:23:45Z</time>
      </trkpt>
      <trkpt lat="41.656291193" lon="2.568376675">
        <ele>573.08</ele>
        <time>2013-07-28T09:23:56Z</time>
      </trkpt>
      <trkpt lat="41.656326564" lon="2.568371646">
        <ele>573.08</ele>
        <time>2013-07-28T09:23:58Z</time>
      </trkpt>
      <trkpt lat="41.656348776" lon="2.568246337">
        <ele>574.04</ele>
        <time>2013-07-28T09:24:05Z</time>
      </trkpt>
      <trkpt lat="41.656315584" lon="2.568108287">
        <ele>575.97</ele>
        <time>2013-07-28T09:24:12Z</time>
      </trkpt>
      <trkpt lat="41.656270405" lon="2.567959927">
        <ele>577.89</ele>
        <time>2013-07-28T09:24:20Z</time>
      </trkpt>
      <trkpt lat="41.656246098" lon="2.567807712">
        <ele>579.33</ele>
        <time>2013-07-28T09:24:28Z</time>
      </trkpt>
      <trkpt lat="41.656237045" lon="2.567734286">
        <ele>580.29</ele>
        <time>2013-07-28T09:24:35Z</time>
      </trkpt>
      <trkpt lat="41.656241991" lon="2.567702100">
        <ele>580.29</ele>
        <time>2013-07-28T09:24:42Z</time>
      </trkpt>
      <trkpt lat="41.656251295" lon="2.567715595">
        <ele>580.29</ele>
        <time>2013-07-28T09:24:50Z</time>
      </trkpt>
      <trkpt lat="41.656284068" lon="2.567735627">
        <ele>580.29</ele>
        <time>2013-07-28T09:24:54Z</time>
      </trkpt>
      <trkpt lat="41.656401834" lon="2.567745686">
        <ele>582.70</ele>
        <time>2013-07-28T09:25:02Z</time>
      </trkpt>
      <trkpt lat="41.656536279" lon="2.567761611">
        <ele>585.58</ele>
        <time>2013-07-28T09:25:12Z</time>
      </trkpt>
      <trkpt lat="41.656675670" lon="2.567817100">
        <ele>588.46</ele>
        <time>2013-07-28T09:25:23Z</time>
      </trkpt>
      <trkpt lat="41.656749096" lon="2.567854818">
        <ele>589.91</ele>
        <time>2013-07-28T09:25:30Z</time>
      </trkpt>
      <trkpt lat="41.656807518" lon="2.567906534">
        <ele>590.87</ele>
        <time>2013-07-28T09:25:36Z</time>
      </trkpt>
      <trkpt lat="41.656870801" lon="2.568005441">
        <ele>592.79</ele>
        <time>2013-07-28T09:25:45Z</time>
      </trkpt>
      <trkpt lat="41.656876668" lon="2.568010135">
        <ele>593.27</ele>
        <time>2013-07-28T09:25:46Z</time>
      </trkpt>
      <trkpt lat="41.656907179" lon="2.568025893">
        <ele>593.75</ele>
        <time>2013-07-28T09:25:50Z</time>
      </trkpt>
      <trkpt lat="41.656940203" lon="2.567996472">
        <ele>594.23</ele>
        <time>2013-07-28T09:25:58Z</time>
      </trkpt>
      <trkpt lat="41.656933665" lon="2.568003513">
        <ele>594.23</ele>
        <time>2013-07-28T09:26:05Z</time>
      </trkpt>
      <trkpt lat="41.656923691" lon="2.568008542">
        <ele>594.71</ele>
        <time>2013-07-28T09:26:14Z</time>
      </trkpt>
      <trkpt lat="41.656910196" lon="2.568053972">
        <ele>594.71</ele>
        <time>2013-07-28T09:26:32Z</time>
      </trkpt>
      <trkpt lat="41.656905335" lon="2.568050200">
        <ele>594.71</ele>
        <time>2013-07-28T09:26:47Z</time>
      </trkpt>
      <trkpt lat="41.656893935" lon="2.568102419">
        <ele>594.71</ele>
        <time>2013-07-28T09:27:08Z</time>
      </trkpt>
      <trkpt lat="41.656879518" lon="2.568107952">
        <ele>595.19</ele>
        <time>2013-07-28T09:27:35Z</time>
      </trkpt>
      <trkpt lat="41.656882620" lon="2.568114322">
        <ele>595.67</ele>
        <time>2013-07-28T09:27:52Z</time>
      </trkpt>
      <trkpt lat="41.656868287" lon="2.568098396">
        <ele>595.67</ele>
        <time>2013-07-28T09:28:16Z</time>
      </trkpt>
      <trkpt lat="41.656842219" lon="2.568087919">
        <ele>596.15</ele>
        <time>2013-07-28T09:28:40Z</time>
      </trkpt>
      <trkpt lat="41.656837441" lon="2.568074256">
        <ele>596.64</ele>
        <time>2013-07-28T09:29:08Z</time>
      </trkpt>
      <trkpt lat="41.656831993" lon="2.568079202">
        <ele>596.64</ele>
        <time>2013-07-28T09:29:30Z</time>
      </trkpt>
      <trkpt lat="41.656829227" lon="2.568073334">
        <ele>597.12</ele>
        <time>2013-07-28T09:29:48Z</time>
      </trkpt>
      <trkpt lat="41.656859821" lon="2.568064030">
        <ele>597.12</ele>
        <time>2013-07-28T09:30:10Z</time>
      </trkpt>
      <trkpt lat="41.656857222" lon="2.568074508">
        <ele>597.60</ele>
        <time>2013-07-28T09:30:34Z</time>
      </trkpt>
      <trkpt lat="41.656878680" lon="2.568022708">
        <ele>597.60</ele>
        <time>2013-07-28T09:30:56Z</time>
      </trkpt>
      <trkpt lat="41.656874657" lon="2.568008542">
        <ele>598.08</ele>
        <time>2013-07-28T09:31:14Z</time>
      </trkpt>
      <trkpt lat="41.656857558" lon="2.568032179">
        <ele>598.08</ele>
        <time>2013-07-28T09:31:34Z</time>
      </trkpt>
      <trkpt lat="41.656838531" lon="2.568048691">
        <ele>598.08</ele>
        <time>2013-07-28T09:31:53Z</time>
      </trkpt>
      <trkpt lat="41.656822689" lon="2.568076100">
        <ele>598.56</ele>
        <time>2013-07-28T09:32:13Z</time>
      </trkpt>
      <trkpt lat="41.656858061" lon="2.568070149">
        <ele>598.56</ele>
        <time>2013-07-28T09:32:31Z</time>
      </trkpt>
      <trkpt lat="41.656843392" lon="2.568074592">
        <ele>599.04</ele>
        <time>2013-07-28T09:32:57Z</time>
      </trkpt>
      <trkpt lat="41.656834759" lon="2.568053469">
        <ele>599.04</ele>
        <time>2013-07-28T09:33:19Z</time>
      </trkpt>
      <trkpt lat="41.656866191" lon="2.568047267">
        <ele>599.04</ele>
        <time>2013-07-28T09:33:41Z</time>
      </trkpt>
      <trkpt lat="41.656890163" lon="2.568080627">
        <ele>598.08</ele>
        <time>2013-07-28T09:34:01Z</time>
      </trkpt>
      <trkpt lat="41.656881781" lon="2.568123877">
        <ele>598.56</ele>
        <time>2013-07-28T09:34:24Z</time>
      </trkpt>
      <trkpt lat="41.656872897" lon="2.568147095">
        <ele>598.56</ele>
        <time>2013-07-28T09:34:46Z</time>
      </trkpt>
      <trkpt lat="41.656874741" lon="2.568099067">
        <ele>599.04</ele>
        <time>2013-07-28T09:35:12Z</time>
      </trkpt>
      <trkpt lat="41.656892007" lon="2.568121530">
        <ele>599.04</ele>
        <time>2013-07-28T09:35:35Z</time>
      </trkpt>
      <trkpt lat="41.656912292" lon="2.568130583">
        <ele>599.04</ele>
        <time>2013-07-28T09:35:57Z</time>
      </trkpt>
      <trkpt lat="41.656904413" lon="2.568174588">
        <ele>599.04</ele>
        <time>2013-07-28T09:36:21Z</time>
      </trkpt>
      <trkpt lat="41.656902988" lon="2.568183556">
        <ele>599.52</ele>
        <time>2013-07-28T09:36:44Z</time>
      </trkpt>
      <trkpt lat="41.656898545" lon="2.568164194">
        <ele>599.04</ele>
        <time>2013-07-28T09:37:02Z</time>
      </trkpt>
      <trkpt lat="41.656901060" lon="2.568131253">
        <ele>599.52</ele>
        <time>2013-07-28T09:37:23Z</time>
      </trkpt>
      <trkpt lat="41.656871220" lon="2.568105186">
        <ele>599.52</ele>
        <time>2013-07-28T09:37:47Z</time>
      </trkpt>
      <trkpt lat="41.656843811" lon="2.568121279">
        <ele>600.00</ele>
        <time>2013-07-28T09:38:09Z</time>
      </trkpt>
      <trkpt lat="41.656821348" lon="2.568146676">
        <ele>600.48</ele>
        <time>2013-07-28T09:38:27Z</time>
      </trkpt>
      <trkpt lat="41.656811960" lon="2.568168217">
        <ele>600.48</ele>
        <time>2013-07-28T09:38:44Z</time>
      </trkpt>
      <trkpt lat="41.656798633" lon="2.568196297">
        <ele>600.96</ele>
        <time>2013-07-28T09:39:02Z</time>
      </trkpt>
      <trkpt lat="41.656791592" lon="2.568169726">
        <ele>600.96</ele>
        <time>2013-07-28T09:39:21Z</time>
      </trkpt>
      <trkpt lat="41.656812798" lon="2.568163272">
        <ele>601.44</ele>
        <time>2013-07-28T09:39:38Z</time>
      </trkpt>
      <trkpt lat="41.656824365" lon="2.568149358">
        <ele>601.92</ele>
        <time>2013-07-28T09:39:54Z</time>
      </trkpt>
      <trkpt lat="41.656815648" lon="2.568148771">
        <ele>601.92</ele>
        <time>2013-07-28T09:40:14Z</time>
      </trkpt>
      <trkpt lat="41.656841884" lon="2.568157321">
        <ele>602.40</ele>
        <time>2013-07-28T09:40:33Z</time>
      </trkpt>
      <trkpt lat="41.656833669" lon="2.568218509">
        <ele>602.40</ele>
        <time>2013-07-28T09:40:52Z</time>
      </trkpt>
      <trkpt lat="41.656819420" lon="2.568226555">
        <ele>602.40</ele>
        <time>2013-07-28T09:41:03Z</time>
      </trkpt>
      <trkpt lat="41.656809781" lon="2.568219347">
        <ele>602.88</ele>
        <time>2013-07-28T09:41:15Z</time>
      </trkpt>
      <trkpt lat="41.656819336" lon="2.568180455">
        <ele>603.36</ele>
        <time>2013-07-28T09:41:33Z</time>
      </trkpt>
      <trkpt lat="41.656836352" lon="2.568164613">
        <ele>603.36</ele>
        <time>2013-07-28T09:41:44Z</time>
      </trkpt>
      <trkpt lat="41.656838363" lon="2.568129828">
        <ele>603.85</ele>
        <time>2013-07-28T09:42:00Z</time>
      </trkpt>
      <trkpt lat="41.656833502" lon="2.568132259">
        <ele>603.85</ele>
        <time>2013-07-28T09:42:11Z</time>
      </trkpt>
      <trkpt lat="41.656836352" lon="2.568155728">
        <ele>604.33</ele>
        <time>2013-07-28T09:42:23Z</time>
      </trkpt>
      <trkpt lat="41.656852696" lon="2.568148855">
        <ele>603.85</ele>
        <time>2013-07-28T09:42:33Z</time>
      </trkpt>
      <trkpt lat="41.656848338" lon="2.568141982">
        <ele>603.85</ele>
        <time>2013-07-28T09:42:38Z</time>
      </trkpt>
      <trkpt lat="41.656735685" lon="2.567944756">
        <ele>601.44</ele>
        <time>2013-07-28T09:42:45Z</time>
      </trkpt>
      <trkpt lat="41.656659074" lon="2.567884490">
        <ele>599.52</ele>
        <time>2013-07-28T09:42:48Z</time>
      </trkpt>
      <trkpt lat="41.656568634" lon="2.567836965">
        <ele>598.08</ele>
        <time>2013-07-28T09:42:54Z</time>
      </trkpt>
      <trkpt lat="41.656456987" lon="2.567796648">
        <ele>594.71</ele>
        <time>2013-07-28T09:42:59Z</time>
      </trkpt>
      <trkpt lat="41.656282727" lon="2.567766473">
        <ele>591.35</ele>
        <time>2013-07-28T09:43:07Z</time>
      </trkpt>
      <trkpt lat="41.656266298" lon="2.567754571">
        <ele>591.35</ele>
        <time>2013-07-28T09:43:08Z</time>
      </trkpt>
      <trkpt lat="41.656231513" lon="2.567696065">
        <ele>591.35</ele>
        <time>2013-07-28T09:43:12Z</time>
      </trkpt>
      <trkpt lat="41.656192454" lon="2.567442093">
        <ele>593.75</ele>
        <time>2013-07-28T09:43:24Z</time>
      </trkpt>
      <trkpt lat="41.656158004" lon="2.567239000">
        <ele>595.19</ele>
        <time>2013-07-28T09:43:34Z</time>
      </trkpt>
      <trkpt lat="41.656114502" lon="2.567086700">
        <ele>596.15</ele>
        <time>2013-07-28T09:43:42Z</time>
      </trkpt>
      <trkpt lat="41.656044010" lon="2.566876901">
        <ele>597.12</ele>
        <time>2013-07-28T09:43:52Z</time>
      </trkpt>
      <trkpt lat="41.655993551" lon="2.566715131">
        <ele>598.08</ele>
        <time>2013-07-28T09:44:00Z</time>
      </trkpt>
      <trkpt lat="41.655937141" lon="2.566501811">
        <ele>599.52</ele>
        <time>2013-07-28T09:44:10Z</time>
      </trkpt>
      <trkpt lat="41.655873774" lon="2.566292012">
        <ele>600.48</ele>
        <time>2013-07-28T09:44:20Z</time>
      </trkpt>
      <trkpt lat="41.655872684" lon="2.566043656">
        <ele>602.40</ele>
        <time>2013-07-28T09:44:32Z</time>
      </trkpt>
      <trkpt lat="41.655950552" lon="2.565933602">
        <ele>603.85</ele>
        <time>2013-07-28T09:44:40Z</time>
      </trkpt>
      <trkpt lat="41.656025319" lon="2.565875599">
        <ele>605.29</ele>
        <time>2013-07-28T09:44:47Z</time>
      </trkpt>
      <trkpt lat="41.656097152" lon="2.565832181">
        <ele>606.25</ele>
        <time>2013-07-28T09:44:53Z</time>
      </trkpt>
      <trkpt lat="41.656219695" lon="2.565773089">
        <ele>607.69</ele>
        <time>2013-07-28T09:45:04Z</time>
      </trkpt>
      <trkpt lat="41.656345926" lon="2.565759175">
        <ele>609.13</ele>
        <time>2013-07-28T09:45:14Z</time>
      </trkpt>
      <trkpt lat="41.656454807" lon="2.565768730">
        <ele>611.06</ele>
        <time>2013-07-28T09:45:23Z</time>
      </trkpt>
      <trkpt lat="41.656523036" lon="2.565781722">
        <ele>612.50</ele>
        <time>2013-07-28T09:45:29Z</time>
      </trkpt>
      <trkpt lat="41.656637365" lon="2.565796809">
        <ele>614.42</ele>
        <time>2013-07-28T09:45:39Z</time>
      </trkpt>
      <trkpt lat="41.656742642" lon="2.565797564">
        <ele>616.82</ele>
        <time>2013-07-28T09:45:49Z</time>
      </trkpt>
      <trkpt lat="41.656825287" lon="2.565790104">
        <ele>618.26</ele>
        <time>2013-07-28T09:45:57Z</time>
      </trkpt>
      <trkpt lat="41.656916231" lon="2.565760935">
        <ele>619.71</ele>
        <time>2013-07-28T09:46:07Z</time>
      </trkpt>
      <trkpt lat="41.656927966" lon="2.565758336">
        <ele>620.19</ele>
        <time>2013-07-28T09:46:08Z</time>
      </trkpt>
      <trkpt lat="41.657048833" lon="2.565698071">
        <ele>621.63</ele>
        <time>2013-07-28T09:46:17Z</time>
      </trkpt>
      <trkpt lat="41.657164252" lon="2.565635290">
        <ele>623.55</ele>
        <time>2013-07-28T09:46:27Z</time>
      </trkpt>
      <trkpt lat="41.657235582" lon="2.565663034">
        <ele>625.47</ele>
        <time>2013-07-28T09:46:37Z</time>
      </trkpt>
      <trkpt lat="41.657258716" lon="2.565656496">
        <ele>625.96</ele>
        <time>2013-07-28T09:46:40Z</time>
      </trkpt>
      <trkpt lat="41.657283610" lon="2.565615509">
        <ele>626.44</ele>
        <time>2013-07-28T09:46:45Z</time>
      </trkpt>
      <trkpt lat="41.657286879" lon="2.565575862">
        <ele>626.44</ele>
        <time>2013-07-28T09:46:48Z</time>
      </trkpt>
      <trkpt lat="41.657267181" lon="2.565556584">
        <ele>626.44</ele>
        <time>2013-07-28T09:46:55Z</time>
      </trkpt>
      <trkpt lat="41.657283275" lon="2.565574605">
        <ele>626.44</ele>
        <time>2013-07-28T09:47:09Z</time>
      </trkpt>
      <trkpt lat="41.657277407" lon="2.565566642">
        <ele>626.44</ele>
        <time>2013-07-28T09:47:10Z</time>
      </trkpt>
      <trkpt lat="41.657266762" lon="2.565528924">
        <ele>626.44</ele>
        <time>2013-07-28T09:47:13Z</time>
      </trkpt>
      <trkpt lat="41.657225356" lon="2.565498833">
        <ele>626.44</ele>
        <time>2013-07-28T09:47:17Z</time>
      </trkpt>
      <trkpt lat="41.657062244" lon="2.565361453">
        <ele>625.47</ele>
        <time>2013-07-28T09:47:25Z</time>
      </trkpt>
      <trkpt lat="41.656979263" lon="2.565198174">
        <ele>624.99</ele>
        <time>2013-07-28T09:47:31Z</time>
      </trkpt>
      <trkpt lat="41.656920254" lon="2.564949148">
        <ele>623.55</ele>
        <time>2013-07-28T09:47:38Z</time>
      </trkpt>
      <trkpt lat="41.656917237" lon="2.564727949">
        <ele>622.11</ele>
        <time>2013-07-28T09:47:42Z</time>
      </trkpt>
      <trkpt lat="41.656915980" lon="2.564480180">
        <ele>622.11</ele>
        <time>2013-07-28T09:47:47Z</time>
      </trkpt>
      <trkpt lat="41.656783965" lon="2.564433912">
        <ele>621.63</ele>
        <time>2013-07-28T09:47:53Z</time>
      </trkpt>
      <trkpt lat="41.656757310" lon="2.564440031">
        <ele>622.11</ele>
        <time>2013-07-28T09:47:54Z</time>
      </trkpt>
      <trkpt lat="41.656531250" lon="2.564485125">
        <ele>620.67</ele>
        <time>2013-07-28T09:48:01Z</time>
      </trkpt>
      <trkpt lat="41.656274596" lon="2.564441372">
        <ele>620.19</ele>
        <time>2013-07-28T09:48:08Z</time>
      </trkpt>
      <trkpt lat="41.656073682" lon="2.564348500">
        <ele>620.19</ele>
        <time>2013-07-28T09:48:14Z</time>
      </trkpt>
      <trkpt lat="41.655831697" lon="2.564125542">
        <ele>619.23</ele>
        <time>2013-07-28T09:48:21Z</time>
      </trkpt>
      <trkpt lat="41.655734047" lon="2.564012218">
        <ele>620.67</ele>
        <time>2013-07-28T09:48:27Z</time>
      </trkpt>
      <trkpt lat="41.655633968" lon="2.563887496">
        <ele>624.03</ele>
        <time>2013-07-28T09:48:35Z</time>
      </trkpt>
      <trkpt lat="41.655545455" lon="2.563760426">
        <ele>626.44</ele>
        <time>2013-07-28T09:48:45Z</time>
      </trkpt>
      <trkpt lat="41.655481082" lon="2.563623382">
        <ele>628.84</ele>
        <time>2013-07-28T09:48:54Z</time>
      </trkpt>
      <trkpt lat="41.655465827" lon="2.563593710">
        <ele>629.32</ele>
        <time>2013-07-28T09:48:56Z</time>
      </trkpt>
      <trkpt lat="41.655396592" lon="2.563408973">
        <ele>631.72</ele>
        <time>2013-07-28T09:49:07Z</time>
      </trkpt>
      <trkpt lat="41.655357616" lon="2.563269246">
        <ele>633.65</ele>
        <time>2013-07-28T09:49:15Z</time>
      </trkpt>
      <trkpt lat="41.655315874" lon="2.563134717">
        <ele>634.13</ele>
        <time>2013-07-28T09:49:23Z</time>
      </trkpt>
      <trkpt lat="41.655273546" lon="2.563018208">
        <ele>634.61</ele>
        <time>2013-07-28T09:49:30Z</time>
      </trkpt>
      <trkpt lat="41.655194756" lon="2.562810337">
        <ele>634.61</ele>
        <time>2013-07-28T09:49:38Z</time>
      </trkpt>
      <trkpt lat="41.655086629" lon="2.562509511">
        <ele>634.61</ele>
        <time>2013-07-28T09:49:46Z</time>
      </trkpt>
      <trkpt lat="41.655078583" lon="2.562292503">
        <ele>634.61</ele>
        <time>2013-07-28T09:49:52Z</time>
      </trkpt>
      <trkpt lat="41.655123761" lon="2.562026713">
        <ele>633.17</ele>
        <time>2013-07-28T09:49:59Z</time>
      </trkpt>
      <trkpt lat="41.655250328" lon="2.561739801">
        <ele>633.17</ele>
        <time>2013-07-28T09:50:07Z</time>
      </trkpt>
      <trkpt lat="41.655393658" lon="2.561374098">
        <ele>633.17</ele>
        <time>2013-07-28T09:50:17Z</time>
      </trkpt>
      <trkpt lat="41.655508658" lon="2.561124234">
        <ele>633.17</ele>
        <time>2013-07-28T09:50:25Z</time>
      </trkpt>
      <trkpt lat="41.655648720" lon="2.560886942">
        <ele>634.13</ele>
        <time>2013-07-28T09:50:34Z</time>
      </trkpt>
      <trkpt lat="41.655775203" lon="2.560756100">
        <ele>635.09</ele>
        <time>2013-07-28T09:50:42Z</time>
      </trkpt>
      <trkpt lat="41.655916270" lon="2.560612099">
        <ele>635.57</ele>
        <time>2013-07-28T09:50:50Z</time>
      </trkpt>
      <trkpt lat="41.656073934" lon="2.560419986">
        <ele>636.05</ele>
        <time>2013-07-28T09:50:59Z</time>
      </trkpt>
      <trkpt lat="41.656226149" lon="2.560218234">
        <ele>636.05</ele>
        <time>2013-07-28T09:51:07Z</time>
      </trkpt>
      <trkpt lat="41.656285661" lon="2.560139276">
        <ele>636.05</ele>
        <time>2013-07-28T09:51:11Z</time>
      </trkpt>
      <trkpt lat="41.656229753" lon="2.559983121">
        <ele>636.05</ele>
        <time>2013-07-28T09:51:17Z</time>
      </trkpt>
      <trkpt lat="41.656112658" lon="2.559904583">
        <ele>637.01</ele>
        <time>2013-07-28T09:51:24Z</time>
      </trkpt>
      <trkpt lat="41.656098157" lon="2.559893100">
        <ele>637.49</ele>
        <time>2013-07-28T09:51:25Z</time>
      </trkpt>
      <trkpt lat="41.655973099" lon="2.559810119">
        <ele>638.45</ele>
        <time>2013-07-28T09:51:33Z</time>
      </trkpt>
      <trkpt lat="41.655818537" lon="2.559704758">
        <ele>638.93</ele>
        <time>2013-07-28T09:51:40Z</time>
      </trkpt>
      <trkpt lat="41.655699933" lon="2.559621191">
        <ele>639.41</ele>
        <time>2013-07-28T09:51:47Z</time>
      </trkpt>
      <trkpt lat="41.655673865" lon="2.559560841">
        <ele>640.38</ele>
        <time>2013-07-28T09:51:53Z</time>
      </trkpt>
      <trkpt lat="41.655726504" lon="2.559587412">
        <ele>640.86</ele>
        <time>2013-07-28T09:52:02Z</time>
      </trkpt>
      <trkpt lat="41.655713177" lon="2.559593698">
        <ele>640.86</ele>
        <time>2013-07-28T09:52:13Z</time>
      </trkpt>
      <trkpt lat="41.655691216" lon="2.559575342">
        <ele>640.86</ele>
        <time>2013-07-28T09:52:22Z</time>
      </trkpt>
      <trkpt lat="41.655698843" lon="2.559550867">
        <ele>640.86</ele>
        <time>2013-07-28T09:52:35Z</time>
      </trkpt>
      <trkpt lat="41.655709656" lon="2.559552543">
        <ele>640.86</ele>
        <time>2013-07-28T09:52:47Z</time>
      </trkpt>
      <trkpt lat="41.655681828" lon="2.559536198">
        <ele>640.86</ele>
        <time>2013-07-28T09:52:54Z</time>
      </trkpt>
      <trkpt lat="41.655665651" lon="2.559540641">
        <ele>640.86</ele>
        <time>2013-07-28T09:53:03Z</time>
      </trkpt>
      <trkpt lat="41.655660790" lon="2.559544413">
        <ele>640.86</ele>
        <time>2013-07-28T09:53:12Z</time>
      </trkpt>
      <trkpt lat="41.655662801" lon="2.559560422">
        <ele>640.86</ele>
        <time>2013-07-28T09:53:18Z</time>
      </trkpt>
      <trkpt lat="41.655676631" lon="2.559559835">
        <ele>640.86</ele>
        <time>2013-07-28T09:53:27Z</time>
      </trkpt>
      <trkpt lat="41.655752991" lon="2.559589340">
        <ele>641.34</ele>
        <time>2013-07-28T09:53:35Z</time>
      </trkpt>
      <trkpt lat="41.655844102" lon="2.559654048">
        <ele>642.30</ele>
        <time>2013-07-28T09:53:43Z</time>
      </trkpt>
      <trkpt lat="41.655957258" lon="2.559720516">
        <ele>642.30</ele>
        <time>2013-07-28T09:53:51Z</time>
      </trkpt>
      <trkpt lat="41.656124812" lon="2.559781872">
        <ele>644.22</ele>
        <time>2013-07-28T09:54:01Z</time>
      </trkpt>
      <trkpt lat="41.656225646" lon="2.559838450">
        <ele>644.70</ele>
        <time>2013-07-28T09:54:08Z</time>
      </trkpt>
      <trkpt lat="41.656380292" lon="2.559912713">
        <ele>645.18</ele>
        <time>2013-07-28T09:54:16Z</time>
      </trkpt>
      <trkpt lat="41.656483473" lon="2.560017906">
        <ele>645.66</ele>
        <time>2013-07-28T09:54:23Z</time>
      </trkpt>
      <trkpt lat="41.656489927" lon="2.560066270">
        <ele>646.14</ele>
        <time>2013-07-28T09:54:25Z</time>
      </trkpt>
      <trkpt lat="41.656465452" lon="2.560143216">
        <ele>646.62</ele>
        <time>2013-07-28T09:54:29Z</time>
      </trkpt>
      <trkpt lat="41.656362103" lon="2.560264083">
        <ele>647.10</ele>
        <time>2013-07-28T09:54:38Z</time>
      </trkpt>
      <trkpt lat="41.656311309" lon="2.560403055">
        <ele>648.07</ele>
        <time>2013-07-28T09:54:44Z</time>
      </trkpt>
      <trkpt lat="41.656229083" lon="2.560606148">
        <ele>649.03</ele>
        <time>2013-07-28T09:54:52Z</time>
      </trkpt>
      <trkpt lat="41.656145096" lon="2.560784012">
        <ele>649.51</ele>
        <time>2013-07-28T09:55:00Z</time>
      </trkpt>
      <trkpt lat="41.656044094" lon="2.560927594">
        <ele>650.95</ele>
        <time>2013-07-28T09:55:08Z</time>
      </trkpt>
      <trkpt lat="41.655920712" lon="2.561123312">
        <ele>651.91</ele>
        <time>2013-07-28T09:55:17Z</time>
      </trkpt>
      <trkpt lat="41.655857261" lon="2.561291536">
        <ele>653.35</ele>
        <time>2013-07-28T09:55:24Z</time>
      </trkpt>
      <trkpt lat="41.655797331" lon="2.561479123">
        <ele>654.31</ele>
        <time>2013-07-28T09:55:32Z</time>
      </trkpt>
      <trkpt lat="41.655725079" lon="2.561677355">
        <ele>655.76</ele>
        <time>2013-07-28T09:55:41Z</time>
      </trkpt>
      <trkpt lat="41.655647379" lon="2.561906852">
        <ele>657.20</ele>
        <time>2013-07-28T09:55:51Z</time>
      </trkpt>
      <trkpt lat="41.655614019" lon="2.562109526">
        <ele>659.60</ele>
        <time>2013-07-28T09:56:00Z</time>
      </trkpt>
      <trkpt lat="41.655645032" lon="2.562357715">
        <ele>660.08</ele>
        <time>2013-07-28T09:56:09Z</time>
      </trkpt>
      <trkpt lat="41.655654168" lon="2.562387470">
        <ele>660.08</ele>
        <time>2013-07-28T09:56:10Z</time>
      </trkpt>
      <trkpt lat="41.655699095" lon="2.562490232">
        <ele>660.56</ele>
        <time>2013-07-28T09:56:15Z</time>
      </trkpt>
      <trkpt lat="41.655810574" lon="2.562706569">
        <ele>661.52</ele>
        <time>2013-07-28T09:56:25Z</time>
      </trkpt>
      <trkpt lat="41.655903027" lon="2.562797513">
        <ele>662.49</ele>
        <time>2013-07-28T09:56:33Z</time>
      </trkpt>
      <trkpt lat="41.655997910" lon="2.562869094">
        <ele>663.93</ele>
        <time>2013-07-28T09:56:42Z</time>
      </trkpt>
      <trkpt lat="41.656135541" lon="2.562952830">
        <ele>665.85</ele>
        <time>2013-07-28T09:56:51Z</time>
      </trkpt>
      <trkpt lat="41.656247020" lon="2.563034888">
        <ele>667.29</ele>
        <time>2013-07-28T09:56:58Z</time>
      </trkpt>
      <trkpt lat="41.656348692" lon="2.563107979">
        <ele>668.25</ele>
        <time>2013-07-28T09:57:05Z</time>
      </trkpt>
      <trkpt lat="41.656502081" lon="2.563189786">
        <ele>670.18</ele>
        <time>2013-07-28T09:57:14Z</time>
      </trkpt>
      <trkpt lat="41.656622110" lon="2.563241167">
        <ele>670.66</ele>
        <time>2013-07-28T09:57:22Z</time>
      </trkpt>
      <trkpt lat="41.656742390" lon="2.563258518">
        <ele>671.62</ele>
        <time>2013-07-28T09:57:29Z</time>
      </trkpt>
      <trkpt lat="41.656950513" lon="2.563211495">
        <ele>672.58</ele>
        <time>2013-07-28T09:57:40Z</time>
      </trkpt>
      <trkpt lat="41.657094095" lon="2.563191714">
        <ele>673.06</ele>
        <time>2013-07-28T09:57:48Z</time>
      </trkpt>
      <trkpt lat="41.657201635" lon="2.563178135">
        <ele>674.02</ele>
        <time>2013-07-28T09:57:56Z</time>
      </trkpt>
      <trkpt lat="41.657316299" lon="2.563142931">
        <ele>675.94</ele>
        <time>2013-07-28T09:58:05Z</time>
      </trkpt>
      <trkpt lat="41.657360304" lon="2.563123234">
        <ele>676.91</ele>
        <time>2013-07-28T09:58:09Z</time>
      </trkpt>
      <trkpt lat="41.657466587" lon="2.563092472">
        <ele>678.83</ele>
        <time>2013-07-28T09:58:18Z</time>
      </trkpt>
      <trkpt lat="41.657556944" lon="2.563086018">
        <ele>680.27</ele>
        <time>2013-07-28T09:58:26Z</time>
      </trkpt>
      <trkpt lat="41.657602709" lon="2.563109320">
        <ele>680.75</ele>
        <time>2013-07-28T09:58:30Z</time>
      </trkpt>
      <trkpt lat="41.657719469" lon="2.563244939">
        <ele>682.19</ele>
        <time>2013-07-28T09:58:40Z</time>
      </trkpt>
      <trkpt lat="41.657795493" lon="2.563371506">
        <ele>684.12</ele>
        <time>2013-07-28T09:58:49Z</time>
      </trkpt>
      <trkpt lat="41.657841761" lon="2.563438309">
        <ele>684.60</ele>
        <time>2013-07-28T09:58:55Z</time>
      </trkpt>
      <trkpt lat="41.657932704" lon="2.563467478">
        <ele>686.04</ele>
        <time>2013-07-28T09:59:04Z</time>
      </trkpt>
      <trkpt lat="41.657979475" lon="2.563464712">
        <ele>687.00</ele>
        <time>2013-07-28T09:59:08Z</time>
      </trkpt>
      <trkpt lat="41.658088440" lon="2.563470077">
        <ele>688.92</ele>
        <time>2013-07-28T09:59:17Z</time>
      </trkpt>
      <trkpt lat="41.658168739" lon="2.563500419">
        <ele>689.88</ele>
        <time>2013-07-28T09:59:25Z</time>
      </trkpt>
      <trkpt lat="41.658251133" lon="2.563596811">
        <ele>691.33</ele>
        <time>2013-07-28T09:59:34Z</time>
      </trkpt>
      <trkpt lat="41.658285834" lon="2.563675517">
        <ele>692.77</ele>
        <time>2013-07-28T09:59:42Z</time>
      </trkpt>
      <trkpt lat="41.658282314" lon="2.563771658">
        <ele>694.21</ele>
        <time>2013-07-28T09:59:49Z</time>
      </trkpt>
      <trkpt lat="41.658231603" lon="2.564002412">
        <ele>695.65</ele>
        <time>2013-07-28T10:00:00Z</time>
      </trkpt>
      <trkpt lat="41.658208301" lon="2.564196034">
        <ele>696.61</ele>
        <time>2013-07-28T10:00:09Z</time>
      </trkpt>
      <trkpt lat="41.658204781" lon="2.564302651">
        <ele>697.57</ele>
        <time>2013-07-28T10:00:16Z</time>
      </trkpt>
      <trkpt lat="41.658242919" lon="2.564467104">
        <ele>698.53</ele>
        <time>2013-07-28T10:00:24Z</time>
      </trkpt>
      <trkpt lat="41.658259263" lon="2.564504823">
        <ele>699.02</ele>
        <time>2013-07-28T10:00:27Z</time>
      </trkpt>
      <trkpt lat="41.658349285" lon="2.564586630">
        <ele>700.94</ele>
        <time>2013-07-28T10:00:36Z</time>
      </trkpt>
      <trkpt lat="41.658481300" lon="2.564624852">
        <ele>701.90</ele>
        <time>2013-07-28T10:00:46Z</time>
      </trkpt>
      <trkpt lat="41.658575513" lon="2.564599874">
        <ele>703.34</ele>
        <time>2013-07-28T10:00:54Z</time>
      </trkpt>
      <trkpt lat="41.658675760" lon="2.564504739">
        <ele>704.78</ele>
        <time>2013-07-28T10:01:04Z</time>
      </trkpt>
      <trkpt lat="41.658745414" lon="2.564430140">
        <ele>706.71</ele>
        <time>2013-07-28T10:01:13Z</time>
      </trkpt>
      <trkpt lat="41.658762848" lon="2.564424105">
        <ele>706.71</ele>
        <time>2013-07-28T10:01:22Z</time>
      </trkpt>
      <trkpt lat="41.658778690" lon="2.564394098">
        <ele>706.71</ele>
        <time>2013-07-28T10:01:32Z</time>
      </trkpt>
      <trkpt lat="41.658800399" lon="2.564361492">
        <ele>706.71</ele>
        <time>2013-07-28T10:01:45Z</time>
      </trkpt>
      <trkpt lat="41.658807021" lon="2.564363672">
        <ele>706.71</ele>
        <time>2013-07-28T10:02:00Z</time>
      </trkpt>
      <trkpt lat="41.658814062" lon="2.564392757">
        <ele>706.71</ele>
        <time>2013-07-28T10:02:18Z</time>
      </trkpt>
      <trkpt lat="41.658807524" lon="2.564384459">
        <ele>706.71</ele>
        <time>2013-07-28T10:02:34Z</time>
      </trkpt>
      <trkpt lat="41.658816744" lon="2.564382279">
        <ele>706.71</ele>
        <time>2013-07-28T10:02:50Z</time>
      </trkpt>
      <trkpt lat="41.658814732" lon="2.564388147">
        <ele>706.71</ele>
        <time>2013-07-28T10:03:03Z</time>
      </trkpt>
      <trkpt lat="41.658802830" lon="2.564381609">
        <ele>706.71</ele>
        <time>2013-07-28T10:03:20Z</time>
      </trkpt>
      <trkpt lat="41.658801573" lon="2.564383956">
        <ele>706.71</ele>
        <time>2013-07-28T10:03:36Z</time>
      </trkpt>
      <trkpt lat="41.658786737" lon="2.564339867">
        <ele>706.71</ele>
        <time>2013-07-28T10:03:42Z</time>
      </trkpt>
      <trkpt lat="41.658716832" lon="2.564200979">
        <ele>706.71</ele>
        <time>2013-07-28T10:03:48Z</time>
      </trkpt>
      <trkpt lat="41.658638796" lon="2.563911468">
        <ele>703.34</ele>
        <time>2013-07-28T10:03:53Z</time>
      </trkpt>
      <trkpt lat="41.658566460" lon="2.563558003">
        <ele>702.38</ele>
        <time>2013-07-28T10:03:59Z</time>
      </trkpt>
      <trkpt lat="41.658388345" lon="2.563239072">
        <ele>700.94</ele>
        <time>2013-07-28T10:04:05Z</time>
      </trkpt>
      <trkpt lat="41.658351129" lon="2.563177884">
        <ele>700.94</ele>
        <time>2013-07-28T10:04:06Z</time>
      </trkpt>
      <trkpt lat="41.658107048" lon="2.562774714">
        <ele>700.46</ele>
        <time>2013-07-28T10:04:13Z</time>
      </trkpt>
      <trkpt lat="41.658021217" lon="2.562646639">
        <ele>701.42</ele>
        <time>2013-07-28T10:04:18Z</time>
      </trkpt>
      <trkpt lat="41.657902781" lon="2.562519234">
        <ele>704.30</ele>
        <time>2013-07-28T10:04:26Z</time>
      </trkpt>
      <trkpt lat="41.657740843" lon="2.562424854">
        <ele>705.75</ele>
        <time>2013-07-28T10:04:35Z</time>
      </trkpt>
      <trkpt lat="41.657613941" lon="2.562398451">
        <ele>707.19</ele>
        <time>2013-07-28T10:04:43Z</time>
      </trkpt>
      <trkpt lat="41.657498941" lon="2.562331312">
        <ele>708.63</ele>
        <time>2013-07-28T10:04:50Z</time>
      </trkpt>
      <trkpt lat="41.657435825" lon="2.562186053">
        <ele>710.07</ele>
        <time>2013-07-28T10:04:58Z</time>
      </trkpt>
      <trkpt lat="41.657430293" lon="2.562150933">
        <ele>710.07</ele>
        <time>2013-07-28T10:05:00Z</time>
      </trkpt>
      <trkpt lat="41.657434233" lon="2.561984468">
        <ele>710.07</ele>
        <time>2013-07-28T10:05:06Z</time>
      </trkpt>
      <trkpt lat="41.657381511" lon="2.561773412">
        <ele>710.55</ele>
        <time>2013-07-28T10:05:15Z</time>
      </trkpt>
      <trkpt lat="41.657364663" lon="2.561543413">
        <ele>711.99</ele>
        <time>2013-07-28T10:05:24Z</time>
      </trkpt>
      <trkpt lat="41.657398945" lon="2.561375523">
        <ele>713.44</ele>
        <time>2013-07-28T10:05:31Z</time>
      </trkpt>
      <trkpt lat="41.657482764" lon="2.561200677">
        <ele>714.88</ele>
        <time>2013-07-28T10:05:40Z</time>
      </trkpt>
      <trkpt lat="41.657555938" lon="2.561122138">
        <ele>715.84</ele>
        <time>2013-07-28T10:05:46Z</time>
      </trkpt>
      <trkpt lat="41.657717206" lon="2.561004289">
        <ele>716.80</ele>
        <time>2013-07-28T10:05:55Z</time>
      </trkpt>
      <trkpt lat="41.657859782" lon="2.560916362">
        <ele>717.76</ele>
        <time>2013-07-28T10:06:04Z</time>
      </trkpt>
      <trkpt lat="41.657922311" lon="2.560879147">
        <ele>718.24</ele>
        <time>2013-07-28T10:06:08Z</time>
      </trkpt>
      <trkpt lat="41.658016356" lon="2.560826508">
        <ele>718.72</ele>
        <time>2013-07-28T10:06:14Z</time>
      </trkpt>
      <trkpt lat="41.658199333" lon="2.560728692">
        <ele>720.16</ele>
        <time>2013-07-28T10:06:24Z</time>
      </trkpt>
      <trkpt lat="41.658257252" lon="2.560695415">
        <ele>720.65</ele>
        <time>2013-07-28T10:06:28Z</time>
      </trkpt>
      <trkpt lat="41.658307292" lon="2.560671024">
        <ele>720.65</ele>
        <time>2013-07-28T10:06:32Z</time>
      </trkpt>
      <trkpt lat="41.658473170" lon="2.560588798">
        <ele>722.57</ele>
        <time>2013-07-28T10:06:41Z</time>
      </trkpt>
      <trkpt lat="41.658601329" lon="2.560540015">
        <ele>723.53</ele>
        <time>2013-07-28T10:06:48Z</time>
      </trkpt>
      <trkpt lat="41.658703756" lon="2.560432475">
        <ele>724.97</ele>
        <time>2013-07-28T10:06:56Z</time>
      </trkpt>
      <trkpt lat="41.658832753" lon="2.560316721">
        <ele>726.41</ele>
        <time>2013-07-28T10:07:05Z</time>
      </trkpt>
      <trkpt lat="41.658970049" lon="2.560181605">
        <ele>726.41</ele>
        <time>2013-07-28T10:07:12Z</time>
      </trkpt>
      <trkpt lat="41.659087815" lon="2.559947917">
        <ele>726.41</ele>
        <time>2013-07-28T10:07:19Z</time>
      </trkpt>
      <trkpt lat="41.659163671" lon="2.559769970">
        <ele>726.41</ele>
        <time>2013-07-28T10:07:26Z</time>
      </trkpt>
      <trkpt lat="41.659295015" lon="2.559551370">
        <ele>724.01</ele>
        <time>2013-07-28T10:07:32Z</time>
      </trkpt>
      <trkpt lat="41.659332818" lon="2.559461264">
        <ele>724.01</ele>
        <time>2013-07-28T10:07:34Z</time>
      </trkpt>
      <trkpt lat="41.659425354" lon="2.559136549">
        <ele>723.53</ele>
        <time>2013-07-28T10:07:41Z</time>
      </trkpt>
      <trkpt lat="41.659491236" lon="2.558928343">
        <ele>723.53</ele>
        <time>2013-07-28T10:07:48Z</time>
      </trkpt>
      <trkpt lat="41.659569439" lon="2.558817618">
        <ele>719.68</ele>
        <time>2013-07-28T10:07:53Z</time>
      </trkpt>
      <trkpt lat="41.659579748" lon="2.558808398">
        <ele>719.68</ele>
        <time>2013-07-28T10:07:54Z</time>
      </trkpt>
      <trkpt lat="41.659579413" lon="2.558784425">
        <ele>719.20</ele>
        <time>2013-07-28T10:08:03Z</time>
      </trkpt>
      <trkpt lat="41.659614533" lon="2.558761962">
        <ele>719.20</ele>
        <time>2013-07-28T10:08:14Z</time>
      </trkpt>
      <trkpt lat="41.659671530" lon="2.558722315">
        <ele>718.24</ele>
        <time>2013-07-28T10:08:21Z</time>
      </trkpt>
      <trkpt lat="41.659771191" lon="2.558689710">
        <ele>714.88</ele>
        <time>2013-07-28T10:08:26Z</time>
      </trkpt>
      <trkpt lat="41.659882000" lon="2.558610585">
        <ele>711.51</ele>
        <time>2013-07-28T10:08:30Z</time>
      </trkpt>
      <trkpt lat="41.659977889" lon="2.558550654">
        <ele>707.19</ele>
        <time>2013-07-28T10:08:35Z</time>
      </trkpt>
      <trkpt lat="41.660056343" lon="2.558506398">
        <ele>702.86</ele>
        <time>2013-07-28T10:08:38Z</time>
      </trkpt>
      <trkpt lat="41.660107892" lon="2.558491143">
        <ele>701.42</ele>
        <time>2013-07-28T10:08:39Z</time>
      </trkpt>
      <trkpt lat="41.660414502" lon="2.558452670">
        <ele>696.13</ele>
        <time>2013-07-28T10:08:43Z</time>
      </trkpt>
      <trkpt lat="41.660727734" lon="2.558371449">
        <ele>691.81</ele>
        <time>2013-07-28T10:08:47Z</time>
      </trkpt>
      <trkpt lat="41.661145320" lon="2.558309423">
        <ele>688.44</ele>
        <time>2013-07-28T10:08:52Z</time>
      </trkpt>
      <trkpt lat="41.661203826" lon="2.558291150">
        <ele>687.96</ele>
        <time>2013-07-28T10:08:53Z</time>
      </trkpt>
      <trkpt lat="41.661275156" lon="2.558189143">
        <ele>686.04</ele>
        <time>2013-07-28T10:08:58Z</time>
      </trkpt>
      <trkpt lat="41.661259482" lon="2.558172463">
        <ele>686.04</ele>
        <time>2013-07-28T10:09:00Z</time>
      </trkpt>
      <trkpt lat="41.661199551" lon="2.558149329">
        <ele>684.12</ele>
        <time>2013-07-28T10:09:04Z</time>
      </trkpt>
      <trkpt lat="41.661090167" lon="2.558116472">
        <ele>683.63</ele>
        <time>2013-07-28T10:09:09Z</time>
      </trkpt>
      <trkpt lat="41.660791520" lon="2.557989905">
        <ele>680.27</ele>
        <time>2013-07-28T10:09:15Z</time>
      </trkpt>
      <trkpt lat="41.660440402" lon="2.557768455">
        <ele>677.87</ele>
        <time>2013-07-28T10:09:21Z</time>
      </trkpt>
      <trkpt lat="41.660395056" lon="2.557731323">
        <ele>677.39</ele>
        <time>2013-07-28T10:09:22Z</time>
      </trkpt>
      <trkpt lat="41.660323894" lon="2.557571983">
        <ele>676.42</ele>
        <time>2013-07-28T10:09:26Z</time>
      </trkpt>
      <trkpt lat="41.660379969" lon="2.557491098">
        <ele>674.98</ele>
        <time>2013-07-28T10:09:31Z</time>
      </trkpt>
      <trkpt lat="41.660398157" lon="2.557419852">
        <ele>674.02</ele>
        <time>2013-07-28T10:09:39Z</time>
      </trkpt>
      <trkpt lat="41.660509134" lon="2.557237210">
        <ele>671.62</ele>
        <time>2013-07-28T10:09:46Z</time>
      </trkpt>
      <trkpt lat="41.660717508" lon="2.557126485">
        <ele>670.66</ele>
        <time>2013-07-28T10:09:53Z</time>
      </trkpt>
      <trkpt lat="41.660809960" lon="2.556974521">
        <ele>670.66</ele>
        <time>2013-07-28T10:09:59Z</time>
      </trkpt>
      <trkpt lat="41.660938790" lon="2.556678975">
        <ele>673.06</ele>
        <time>2013-07-28T10:10:09Z</time>
      </trkpt>
      <trkpt lat="41.661040044" lon="2.556421986">
        <ele>673.54</ele>
        <time>2013-07-28T10:10:17Z</time>
      </trkpt>
      <trkpt lat="41.661107350" lon="2.556191651">
        <ele>673.54</ele>
        <time>2013-07-28T10:10:24Z</time>
      </trkpt>
      <trkpt lat="41.661124198" lon="2.555963747">
        <ele>674.02</ele>
        <time>2013-07-28T10:10:32Z</time>
      </trkpt>
      <trkpt lat="41.661179686" lon="2.555747913">
        <ele>674.02</ele>
        <time>2013-07-28T10:10:38Z</time>
      </trkpt>
      <trkpt lat="41.661316144" lon="2.555517662">
        <ele>674.02</ele>
        <time>2013-07-28T10:10:44Z</time>
      </trkpt>
      <trkpt lat="41.661432149" lon="2.555228906">
        <ele>670.66</ele>
        <time>2013-07-28T10:10:50Z</time>
      </trkpt>
      <trkpt lat="41.661477411" lon="2.554888433">
        <ele>666.81</ele>
        <time>2013-07-28T10:10:57Z</time>
      </trkpt>
      <trkpt lat="41.661498366" lon="2.554473445">
        <ele>663.93</ele>
        <time>2013-07-28T10:11:04Z</time>
      </trkpt>
      <trkpt lat="41.661540695" lon="2.554183599">
        <ele>660.08</ele>
        <time>2013-07-28T10:11:10Z</time>
      </trkpt>
      <trkpt lat="41.661557207" lon="2.554146467">
        <ele>660.08</ele>
        <time>2013-07-28T10:11:11Z</time>
      </trkpt>
      <trkpt lat="41.661637673" lon="2.553991653">
        <ele>656.72</ele>
        <time>2013-07-28T10:11:16Z</time>
      </trkpt>
      <trkpt lat="41.661673799" lon="2.553922083">
        <ele>655.76</ele>
        <time>2013-07-28T10:11:18Z</time>
      </trkpt>
      <trkpt lat="41.661754349" lon="2.553729886">
        <ele>651.91</ele>
        <time>2013-07-28T10:11:23Z</time>
      </trkpt>
      <trkpt lat="41.661820902" lon="2.553507598">
        <ele>649.03</ele>
        <time>2013-07-28T10:11:28Z</time>
      </trkpt>
      <trkpt lat="41.661822578" lon="2.553315150">
        <ele>646.62</ele>
        <time>2013-07-28T10:11:32Z</time>
      </trkpt>
      <trkpt lat="41.661733143" lon="2.553180788">
        <ele>643.26</ele>
        <time>2013-07-28T10:11:36Z</time>
      </trkpt>
      <trkpt lat="41.661602721" lon="2.553097639">
        <ele>640.86</ele>
        <time>2013-07-28T10:11:40Z</time>
      </trkpt>
      <trkpt lat="41.661484368" lon="2.553045755">
        <ele>637.01</ele>
        <time>2013-07-28T10:11:44Z</time>
      </trkpt>
      <trkpt lat="41.661370123" lon="2.552970402">
        <ele>634.61</ele>
        <time>2013-07-28T10:11:48Z</time>
      </trkpt>
      <trkpt lat="41.661332740" lon="2.552956740">
        <ele>634.13</ele>
        <time>2013-07-28T10:11:49Z</time>
      </trkpt>
      <trkpt lat="41.661216399" lon="2.552887170">
        <ele>632.20</ele>
        <time>2013-07-28T10:11:52Z</time>
      </trkpt>
      <trkpt lat="41.661137274" lon="2.552844254">
        <ele>631.72</ele>
        <time>2013-07-28T10:11:54Z</time>
      </trkpt>
      <trkpt lat="41.661093101" lon="2.552817097">
        <ele>630.76</ele>
        <time>2013-07-28T10:11:55Z</time>
      </trkpt>
      <trkpt lat="41.661031578" lon="2.552751970">
        <ele>629.80</ele>
        <time>2013-07-28T10:11:57Z</time>
      </trkpt>
      <trkpt lat="41.661055299" lon="2.552552648">
        <ele>628.84</ele>
        <time>2013-07-28T10:12:01Z</time>
      </trkpt>
      <trkpt lat="41.661171891" lon="2.552249642">
        <ele>627.88</ele>
        <time>2013-07-28T10:12:07Z</time>
      </trkpt>
      <trkpt lat="41.661349336" lon="2.551749243">
        <ele>625.47</ele>
        <time>2013-07-28T10:12:14Z</time>
      </trkpt>
      <trkpt lat="41.661375990" lon="2.551673889">
        <ele>624.99</ele>
        <time>2013-07-28T10:12:15Z</time>
      </trkpt>
      <trkpt lat="41.661510436" lon="2.551274240">
        <ele>624.51</ele>
        <time>2013-07-28T10:12:21Z</time>
      </trkpt>
      <trkpt lat="41.661623508" lon="2.551047091">
        <ele>624.51</ele>
        <time>2013-07-28T10:12:26Z</time>
      </trkpt>
      <trkpt lat="41.661781591" lon="2.550817343">
        <ele>624.03</ele>
        <time>2013-07-28T10:12:32Z</time>
      </trkpt>
      <trkpt lat="41.661845712" lon="2.550560018">
        <ele>622.59</ele>
        <time>2013-07-28T10:12:37Z</time>
      </trkpt>
      <trkpt lat="41.661904721" lon="2.550369665">
        <ele>622.59</ele>
        <time>2013-07-28T10:12:42Z</time>
      </trkpt>
      <trkpt lat="41.662017541" lon="2.550145030">
        <ele>622.11</ele>
        <time>2013-07-28T10:12:48Z</time>
      </trkpt>
      <trkpt lat="41.662191130" lon="2.549950821">
        <ele>618.75</ele>
        <time>2013-07-28T10:12:54Z</time>
      </trkpt>
      <trkpt lat="41.662328845" lon="2.549809167">
        <ele>616.82</ele>
        <time>2013-07-28T10:12:58Z</time>
      </trkpt>
      <trkpt lat="41.662424818" lon="2.549692072">
        <ele>615.38</ele>
        <time>2013-07-28T10:13:01Z</time>
      </trkpt>
      <trkpt lat="41.662545350" lon="2.549535917">
        <ele>612.98</ele>
        <time>2013-07-28T10:13:06Z</time>
      </trkpt>
      <trkpt lat="41.662557587" lon="2.549491996">
        <ele>612.50</ele>
        <time>2013-07-28T10:13:07Z</time>
      </trkpt>
      <trkpt lat="41.662578793" lon="2.549213968">
        <ele>610.57</ele>
        <time>2013-07-28T10:13:13Z</time>
      </trkpt>
      <trkpt lat="41.662582481" lon="2.548987741">
        <ele>606.73</ele>
        <time>2013-07-28T10:13:18Z</time>
      </trkpt>
      <trkpt lat="41.662621038" lon="2.548748018">
        <ele>602.88</ele>
        <time>2013-07-28T10:13:23Z</time>
      </trkpt>
      <trkpt lat="41.662687507" lon="2.548436295">
        <ele>599.52</ele>
        <time>2013-07-28T10:13:29Z</time>
      </trkpt>
      <trkpt lat="41.662726734" lon="2.548326995">
        <ele>599.04</ele>
        <time>2013-07-28T10:13:31Z</time>
      </trkpt>
      <trkpt lat="41.662785575" lon="2.547962969">
        <ele>597.12</ele>
        <time>2013-07-28T10:13:38Z</time>
      </trkpt>
      <trkpt lat="41.662831424" lon="2.547857776">
        <ele>596.64</ele>
        <time>2013-07-28T10:13:43Z</time>
      </trkpt>
      <trkpt lat="41.662853720" lon="2.547815615">
        <ele>596.15</ele>
        <time>2013-07-28T10:13:58Z</time>
      </trkpt>
      <trkpt lat="41.662854139" lon="2.547805892">
        <ele>595.67</ele>
        <time>2013-07-28T10:14:15Z</time>
      </trkpt>
      <trkpt lat="41.662845422" lon="2.547795583">
        <ele>595.67</ele>
        <time>2013-07-28T10:14:31Z</time>
      </trkpt>
      <trkpt lat="41.662828826" lon="2.547772952">
        <ele>595.67</ele>
        <time>2013-07-28T10:14:50Z</time>
      </trkpt>
      <trkpt lat="41.662814073" lon="2.547779322">
        <ele>595.67</ele>
        <time>2013-07-28T10:15:05Z</time>
      </trkpt>
      <trkpt lat="41.662809966" lon="2.547775215">
        <ele>595.67</ele>
        <time>2013-07-28T10:15:06Z</time>
      </trkpt>
      <trkpt lat="41.662795885" lon="2.547755517">
        <ele>595.67</ele>
        <time>2013-07-28T10:15:08Z</time>
      </trkpt>
      <trkpt lat="41.662729081" lon="2.547736742">
        <ele>594.23</ele>
        <time>2013-07-28T10:15:12Z</time>
      </trkpt>
      <trkpt lat="41.662515845" lon="2.547791895">
        <ele>591.35</ele>
        <time>2013-07-28T10:15:19Z</time>
      </trkpt>
      <trkpt lat="41.662429931" lon="2.547793990">
        <ele>590.87</ele>
        <time>2013-07-28T10:15:21Z</time>
      </trkpt>
      <trkpt lat="41.662257683" lon="2.547749566">
        <ele>589.43</ele>
        <time>2013-07-28T10:15:25Z</time>
      </trkpt>
      <trkpt lat="41.662008824" lon="2.547636075">
        <ele>588.46</ele>
        <time>2013-07-28T10:15:31Z</time>
      </trkpt>
      <trkpt lat="41.661966244" lon="2.547613192">
        <ele>588.46</ele>
        <time>2013-07-28T10:15:32Z</time>
      </trkpt>
      <trkpt lat="41.661786117" lon="2.547579749">
        <ele>588.46</ele>
        <time>2013-07-28T10:15:36Z</time>
      </trkpt>
      <trkpt lat="41.661710344" lon="2.547593746">
        <ele>588.46</ele>
        <time>2013-07-28T10:15:38Z</time>
      </trkpt>
      <trkpt lat="41.661556453" lon="2.547619144">
        <ele>588.46</ele>
        <time>2013-07-28T10:15:44Z</time>
      </trkpt>
      <trkpt lat="41.661340200" lon="2.547601123">
        <ele>587.02</ele>
        <time>2013-07-28T10:15:50Z</time>
      </trkpt>
      <trkpt lat="41.661315641" lon="2.547609253">
        <ele>586.06</ele>
        <time>2013-07-28T10:15:51Z</time>
      </trkpt>
      <trkpt lat="41.661168622" lon="2.547614198">
        <ele>584.14</ele>
        <time>2013-07-28T10:15:54Z</time>
      </trkpt>
      <trkpt lat="41.661032081" lon="2.547629705">
        <ele>583.18</ele>
        <time>2013-07-28T10:15:57Z</time>
      </trkpt>
      <trkpt lat="41.660805099" lon="2.547658203">
        <ele>580.77</ele>
        <time>2013-07-28T10:16:02Z</time>
      </trkpt>
      <trkpt lat="41.660579458" lon="2.547630292">
        <ele>578.37</ele>
        <time>2013-07-28T10:16:08Z</time>
      </trkpt>
      <trkpt lat="41.660460100" lon="2.547619479">
        <ele>577.89</ele>
        <time>2013-07-28T10:16:12Z</time>
      </trkpt>
      <trkpt lat="41.660390865" lon="2.547553932">
        <ele>575.49</ele>
        <time>2013-07-28T10:16:17Z</time>
      </trkpt>
      <trkpt lat="41.660282990" lon="2.547465503">
        <ele>573.56</ele>
        <time>2013-07-28T10:16:25Z</time>
      </trkpt>
      <trkpt lat="41.660201099" lon="2.547419990">
        <ele>570.68</ele>
        <time>2013-07-28T10:16:31Z</time>
      </trkpt>
      <trkpt lat="41.660084674" lon="2.547413536">
        <ele>568.28</ele>
        <time>2013-07-28T10:16:38Z</time>
      </trkpt>
      <trkpt lat="41.659985181" lon="2.547495846">
        <ele>565.39</ele>
        <time>2013-07-28T10:16:45Z</time>
      </trkpt>
      <trkpt lat="41.659917288" lon="2.547572959">
        <ele>562.51</ele>
        <time>2013-07-28T10:16:53Z</time>
      </trkpt>
      <trkpt lat="41.659911001" lon="2.547578491">
        <ele>562.51</ele>
        <time>2013-07-28T10:17:01Z</time>
      </trkpt>
      <trkpt lat="41.659901865" lon="2.547602967">
        <ele>562.03</ele>
        <time>2013-07-28T10:17:07Z</time>
      </trkpt>
      <trkpt lat="41.659890885" lon="2.547625095">
        <ele>561.55</ele>
        <time>2013-07-28T10:17:19Z</time>
      </trkpt>
      <trkpt lat="41.659873450" lon="2.547630375">
        <ele>560.59</ele>
        <time>2013-07-28T10:17:34Z</time>
      </trkpt>
      <trkpt lat="41.659861883" lon="2.547667842">
        <ele>559.62</ele>
        <time>2013-07-28T10:17:41Z</time>
      </trkpt>
      <trkpt lat="41.659847802" lon="2.547710758">
        <ele>558.66</ele>
        <time>2013-07-28T10:17:49Z</time>
      </trkpt>
      <trkpt lat="41.659814274" lon="2.547762474">
        <ele>556.74</ele>
        <time>2013-07-28T10:17:57Z</time>
      </trkpt>
      <trkpt lat="41.659796840" lon="2.547790805">
        <ele>556.74</ele>
        <time>2013-07-28T10:18:04Z</time>
      </trkpt>
      <trkpt lat="41.659769599" lon="2.547819974">
        <ele>555.30</ele>
        <time>2013-07-28T10:18:11Z</time>
      </trkpt>
      <trkpt lat="41.659732131" lon="2.547856687">
        <ele>554.34</ele>
        <time>2013-07-28T10:18:20Z</time>
      </trkpt>
      <trkpt lat="41.659691395" lon="2.547904128">
        <ele>552.90</ele>
        <time>2013-07-28T10:18:27Z</time>
      </trkpt>
      <trkpt lat="41.659638506" lon="2.547967244">
        <ele>551.93</ele>
        <time>2013-07-28T10:18:35Z</time>
      </trkpt>
      <trkpt lat="41.659614785" lon="2.547977721">
        <ele>551.93</ele>
        <time>2013-07-28T10:18:42Z</time>
      </trkpt>
      <trkpt lat="41.659597350" lon="2.547986187">
        <ele>551.93</ele>
        <time>2013-07-28T10:18:44Z</time>
      </trkpt>
      <trkpt lat="41.659485033" lon="2.547999598">
        <ele>550.97</ele>
        <time>2013-07-28T10:18:50Z</time>
      </trkpt>
      <trkpt lat="41.659429042" lon="2.547986020">
        <ele>550.01</ele>
        <time>2013-07-28T10:18:53Z</time>
      </trkpt>
      <trkpt lat="41.659298871" lon="2.547918461">
        <ele>547.13</ele>
        <time>2013-07-28T10:18:58Z</time>
      </trkpt>
      <trkpt lat="41.659202395" lon="2.547854759">
        <ele>545.69</ele>
        <time>2013-07-28T10:19:01Z</time>
      </trkpt>
      <trkpt lat="41.659098292" lon="2.547805222">
        <ele>544.24</ele>
        <time>2013-07-28T10:19:04Z</time>
      </trkpt>
      <trkpt lat="41.658836525" lon="2.547777645">
        <ele>542.32</ele>
        <time>2013-07-28T10:19:10Z</time>
      </trkpt>
      <trkpt lat="41.658695458" lon="2.547738167">
        <ele>539.92</ele>
        <time>2013-07-28T10:19:15Z</time>
      </trkpt>
      <trkpt lat="41.658606358" lon="2.547617719">
        <ele>536.55</ele>
        <time>2013-07-28T10:19:20Z</time>
      </trkpt>
      <trkpt lat="41.658589427" lon="2.547485033">
        <ele>533.19</ele>
        <time>2013-07-28T10:19:24Z</time>
      </trkpt>
      <trkpt lat="41.658601245" lon="2.547413536">
        <ele>532.71</ele>
        <time>2013-07-28T10:19:26Z</time>
      </trkpt>
      <trkpt lat="41.658605017" lon="2.547376739">
        <ele>531.75</ele>
        <time>2013-07-28T10:19:27Z</time>
      </trkpt>
      <trkpt lat="41.658513067" lon="2.547237767">
        <ele>527.90</ele>
        <time>2013-07-28T10:19:32Z</time>
      </trkpt>
      <trkpt lat="41.658316344" lon="2.547027800">
        <ele>524.06</ele>
        <time>2013-07-28T10:19:38Z</time>
      </trkpt>
      <trkpt lat="41.658268735" lon="2.546911879">
        <ele>521.65</ele>
        <time>2013-07-28T10:19:40Z</time>
      </trkpt>
      <trkpt lat="41.658222551" lon="2.546767039">
        <ele>519.25</ele>
        <time>2013-07-28T10:19:42Z</time>
      </trkpt>
      <trkpt lat="41.658155747" lon="2.546474008">
        <ele>516.85</ele>
        <time>2013-07-28T10:19:47Z</time>
      </trkpt>
      <trkpt lat="41.658230597" lon="2.546478283">
        <ele>515.40</ele>
        <time>2013-07-28T10:19:50Z</time>
      </trkpt>
      <trkpt lat="41.658405611" lon="2.546618931">
        <ele>513.48</ele>
        <time>2013-07-28T10:19:55Z</time>
      </trkpt>
      <trkpt lat="41.658481384" lon="2.546672324">
        <ele>513.00</ele>
        <time>2013-07-28T10:19:57Z</time>
      </trkpt>
      <trkpt lat="41.658693697" lon="2.546609040">
        <ele>507.23</ele>
        <time>2013-07-28T10:20:02Z</time>
      </trkpt>
      <trkpt lat="41.658885895" lon="2.546628151">
        <ele>505.79</ele>
        <time>2013-07-28T10:20:06Z</time>
      </trkpt>
      <trkpt lat="41.659003912" lon="2.546590516">
        <ele>505.31</ele>
        <time>2013-07-28T10:20:10Z</time>
      </trkpt>
      <trkpt lat="41.658997709" lon="2.546493873">
        <ele>502.91</ele>
        <time>2013-07-28T10:20:13Z</time>
      </trkpt>
      <trkpt lat="41.658954458" lon="2.546358589">
        <ele>500.50</ele>
        <time>2013-07-28T10:20:16Z</time>
      </trkpt>
      <trkpt lat="41.658965774" lon="2.545994563">
        <ele>497.14</ele>
        <time>2013-07-28T10:20:21Z</time>
      </trkpt>
      <trkpt lat="41.659012210" lon="2.545731036">
        <ele>492.81</ele>
        <time>2013-07-28T10:20:26Z</time>
      </trkpt>
      <trkpt lat="41.659027213" lon="2.545523249">
        <ele>489.93</ele>
        <time>2013-07-28T10:20:31Z</time>
      </trkpt>
      <trkpt lat="41.659022436" lon="2.545484273">
        <ele>489.93</ele>
        <time>2013-07-28T10:20:32Z</time>
      </trkpt>
      <trkpt lat="41.658995949" lon="2.545430545">
        <ele>489.45</ele>
        <time>2013-07-28T10:20:38Z</time>
      </trkpt>
      <trkpt lat="41.658974156" lon="2.545397604">
        <ele>489.45</ele>
        <time>2013-07-28T10:20:50Z</time>
      </trkpt>
      <trkpt lat="41.658995446" lon="2.545377907">
        <ele>489.45</ele>
        <time>2013-07-28T10:21:07Z</time>
      </trkpt>
      <trkpt lat="41.659003660" lon="2.545372458">
        <ele>489.45</ele>
        <time>2013-07-28T10:21:17Z</time>
      </trkpt>
      <trkpt lat="41.659008186" lon="2.545356449">
        <ele>488.97</ele>
        <time>2013-07-28T10:21:29Z</time>
      </trkpt>
      <trkpt lat="41.659009108" lon="2.545355359">
        <ele>488.97</ele>
        <time>2013-07-28T10:21:41Z</time>
      </trkpt>
      <trkpt lat="41.659011623" lon="2.545351420">
        <ele>488.97</ele>
        <time>2013-07-28T10:21:53Z</time>
      </trkpt>
      <trkpt lat="41.659015143" lon="2.545351923">
        <ele>488.97</ele>
        <time>2013-07-28T10:22:04Z</time>
      </trkpt>
      <trkpt lat="41.659016233" lon="2.545353264">
        <ele>488.97</ele>
        <time>2013-07-28T10:22:11Z</time>
      </trkpt>
      <trkpt lat="41.659011288" lon="2.545367010">
        <ele>488.97</ele>
        <time>2013-07-28T10:22:19Z</time>
      </trkpt>
      <trkpt lat="41.658939790" lon="2.545491984">
        <ele>488.97</ele>
        <time>2013-07-28T10:22:26Z</time>
      </trkpt>
      <trkpt lat="41.658819594" lon="2.545706142">
        <ele>488.97</ele>
        <time>2013-07-28T10:22:34Z</time>
      </trkpt>
      <trkpt lat="41.658704510" lon="2.545781411">
        <ele>488.97</ele>
        <time>2013-07-28T10:22:39Z</time>
      </trkpt>
      <trkpt lat="41.658557911" lon="2.545759115">
        <ele>489.93</ele>
        <time>2013-07-28T10:22:46Z</time>
      </trkpt>
      <trkpt lat="41.658394799" lon="2.545712847">
        <ele>491.37</ele>
        <time>2013-07-28T10:22:54Z</time>
      </trkpt>
      <trkpt lat="41.658208553" lon="2.545614360">
        <ele>493.29</ele>
        <time>2013-07-28T10:23:04Z</time>
      </trkpt>
      <trkpt lat="41.658060696" lon="2.545498522">
        <ele>493.29</ele>
        <time>2013-07-28T10:23:11Z</time>
      </trkpt>
      <trkpt lat="41.658030689" lon="2.545472203">
        <ele>493.29</ele>
        <time>2013-07-28T10:23:12Z</time>
      </trkpt>
      <trkpt lat="41.657819297" lon="2.545356616">
        <ele>491.37</ele>
        <time>2013-07-28T10:23:17Z</time>
      </trkpt>
      <trkpt lat="41.657720726" lon="2.545408584">
        <ele>491.37</ele>
        <time>2013-07-28T10:23:19Z</time>
      </trkpt>
      <trkpt lat="41.657498522" lon="2.545568427">
        <ele>490.89</ele>
        <time>2013-07-28T10:23:26Z</time>
      </trkpt>
      <trkpt lat="41.657373296" lon="2.545617629">
        <ele>492.33</ele>
        <time>2013-07-28T10:23:31Z</time>
      </trkpt>
      <trkpt lat="41.657132903" lon="2.545669764">
        <ele>492.81</ele>
        <time>2013-07-28T10:23:40Z</time>
      </trkpt>
      <trkpt lat="41.656825790" lon="2.545684433">
        <ele>493.29</ele>
        <time>2013-07-28T10:23:49Z</time>
      </trkpt>
      <trkpt lat="41.656736775" lon="2.545671525">
        <ele>493.29</ele>
        <time>2013-07-28T10:23:51Z</time>
      </trkpt>
      <trkpt lat="41.656363361" lon="2.545616875">
        <ele>491.85</ele>
        <time>2013-07-28T10:24:00Z</time>
      </trkpt>
      <trkpt lat="41.656150628" lon="2.545651659">
        <ele>491.85</ele>
        <time>2013-07-28T10:24:06Z</time>
      </trkpt>
      <trkpt lat="41.655998245" lon="2.545672530">
        <ele>491.37</ele>
        <time>2013-07-28T10:24:10Z</time>
      </trkpt>
      <trkpt lat="41.655776208" lon="2.545535822">
        <ele>489.45</ele>
        <time>2013-07-28T10:24:15Z</time>
      </trkpt>
      <trkpt lat="41.655528188" lon="2.545184787">
        <ele>483.68</ele>
        <time>2013-07-28T10:24:20Z</time>
      </trkpt>
      <trkpt lat="41.655448225" lon="2.545053108">
        <ele>482.72</ele>
        <time>2013-07-28T10:24:22Z</time>
      </trkpt>
      <trkpt lat="41.655217387" lon="2.545031399">
        <ele>480.80</ele>
        <time>2013-07-28T10:24:26Z</time>
      </trkpt>
      <trkpt lat="41.655150918" lon="2.545061909">
        <ele>480.32</ele>
        <time>2013-07-28T10:24:27Z</time>
      </trkpt>
      <trkpt lat="41.654813631" lon="2.545131143">
        <ele>475.03</ele>
        <time>2013-07-28T10:24:32Z</time>
      </trkpt>
      <trkpt lat="41.654755293" lon="2.545125108">
        <ele>474.07</ele>
        <time>2013-07-28T10:24:33Z</time>
      </trkpt>
      <trkpt lat="41.654542392" lon="2.545053108">
        <ele>469.74</ele>
        <time>2013-07-28T10:24:36Z</time>
      </trkpt>
      <trkpt lat="41.654351704" lon="2.544961494">
        <ele>465.90</ele>
        <time>2013-07-28T10:24:39Z</time>
      </trkpt>
      <trkpt lat="41.654158082" lon="2.544838950">
        <ele>461.57</ele>
        <time>2013-07-28T10:24:43Z</time>
      </trkpt>
      <trkpt lat="41.653993797" lon="2.544747839">
        <ele>457.72</ele>
        <time>2013-07-28T10:24:46Z</time>
      </trkpt>
      <trkpt lat="41.653808054" lon="2.544675754">
        <ele>453.88</ele>
        <time>2013-07-28T10:24:49Z</time>
      </trkpt>
      <trkpt lat="41.653751644" lon="2.544657482">
        <ele>452.44</ele>
        <time>2013-07-28T10:24:50Z</time>
      </trkpt>
      <trkpt lat="41.653564979" lon="2.544512978">
        <ele>448.59</ele>
        <time>2013-07-28T10:24:54Z</time>
      </trkpt>
      <trkpt lat="41.653295333" lon="2.544346010">
        <ele>445.23</ele>
        <time>2013-07-28T10:25:00Z</time>
      </trkpt>
      <trkpt lat="41.653063573" lon="2.544398900">
        <ele>442.34</ele>
        <time>2013-07-28T10:25:04Z</time>
      </trkpt>
      <trkpt lat="41.652918231" lon="2.544426141">
        <ele>441.38</ele>
        <time>2013-07-28T10:25:06Z</time>
      </trkpt>
      <trkpt lat="41.652842710" lon="2.544428572">
        <ele>439.94</ele>
        <time>2013-07-28T10:25:07Z</time>
      </trkpt>
      <trkpt lat="41.652470386" lon="2.544430584">
        <ele>437.06</ele>
        <time>2013-07-28T10:25:12Z</time>
      </trkpt>
      <trkpt lat="41.652340382" lon="2.544457909">
        <ele>436.10</ele>
        <time>2013-07-28T10:25:14Z</time>
      </trkpt>
      <trkpt lat="41.652057996" lon="2.544565113">
        <ele>433.21</ele>
        <time>2013-07-28T10:25:19Z</time>
      </trkpt>
      <trkpt lat="41.651849874" lon="2.544720514">
        <ele>429.37</ele>
        <time>2013-07-28T10:25:24Z</time>
      </trkpt>
      <trkpt lat="41.651818274" lon="2.544744067">
        <ele>428.40</ele>
        <time>2013-07-28T10:25:25Z</time>
      </trkpt>
      <trkpt lat="41.651655246" lon="2.544887649">
        <ele>426.00</ele>
        <time>2013-07-28T10:25:32Z</time>
      </trkpt>
      <trkpt lat="41.651574360" lon="2.544932241">
        <ele>424.56</ele>
        <time>2013-07-28T10:25:37Z</time>
      </trkpt>
      <trkpt lat="41.651481740" lon="2.544916399">
        <ele>424.08</ele>
        <time>2013-07-28T10:25:42Z</time>
      </trkpt>
      <trkpt lat="41.651435388" lon="2.544902317">
        <ele>424.08</ele>
        <time>2013-07-28T10:25:43Z</time>
      </trkpt>
      <trkpt lat="41.651128192" lon="2.544979179">
        <ele>421.68</ele>
        <time>2013-07-28T10:25:48Z</time>
      </trkpt>
      <trkpt lat="41.650921745" lon="2.545008684">
        <ele>419.75</ele>
        <time>2013-07-28T10:25:51Z</time>
      </trkpt>
      <trkpt lat="41.650749162" lon="2.544847751">
        <ele>417.35</ele>
        <time>2013-07-28T10:25:54Z</time>
      </trkpt>
      <trkpt lat="41.650532406" lon="2.544679862">
        <ele>415.91</ele>
        <time>2013-07-28T10:25:57Z</time>
      </trkpt>
      <trkpt lat="41.650447413" lon="2.544650693">
        <ele>414.95</ele>
        <time>2013-07-28T10:25:58Z</time>
      </trkpt>
      <trkpt lat="41.650277764" lon="2.544615153">
        <ele>413.98</ele>
        <time>2013-07-28T10:26:00Z</time>
      </trkpt>
      <trkpt lat="41.649886916" lon="2.544722023">
        <ele>411.10</ele>
        <time>2013-07-28T10:26:05Z</time>
      </trkpt>
      <trkpt lat="41.649754901" lon="2.544723783">
        <ele>410.14</ele>
        <time>2013-07-28T10:26:07Z</time>
      </trkpt>
      <trkpt lat="41.649598913" lon="2.544553211">
        <ele>408.70</ele>
        <time>2013-07-28T10:26:10Z</time>
      </trkpt>
      <trkpt lat="41.649516519" lon="2.544408707">
        <ele>407.74</ele>
        <time>2013-07-28T10:26:12Z</time>
      </trkpt>
      <trkpt lat="41.649434628" lon="2.543920377">
        <ele>405.81</ele>
        <time>2013-07-28T10:26:18Z</time>
      </trkpt>
      <trkpt lat="41.649429012" lon="2.543827003">
        <ele>405.33</ele>
        <time>2013-07-28T10:26:19Z</time>
      </trkpt>
      <trkpt lat="41.649314767" lon="2.543195510">
        <ele>403.41</ele>
        <time>2013-07-28T10:26:25Z</time>
      </trkpt>
      <trkpt lat="41.649055850" lon="2.542316165">
        <ele>399.08</ele>
        <time>2013-07-28T10:26:33Z</time>
      </trkpt>
      <trkpt lat="41.649046462" lon="2.541871254">
        <ele>397.64</ele>
        <time>2013-07-28T10:26:37Z</time>
      </trkpt>
      <trkpt lat="41.648899695" lon="2.541536899">
        <ele>396.20</ele>
        <time>2013-07-28T10:26:41Z</time>
      </trkpt>
      <trkpt lat="41.648605909" lon="2.541390970">
        <ele>394.76</ele>
        <time>2013-07-28T10:26:45Z</time>
      </trkpt>
      <trkpt lat="41.648440534" lon="2.541366411">
        <ele>393.80</ele>
        <time>2013-07-28T10:26:47Z</time>
      </trkpt>
      <trkpt lat="41.648109952" lon="2.541266248">
        <ele>391.39</ele>
        <time>2013-07-28T10:26:51Z</time>
      </trkpt>
      <trkpt lat="41.647848018" lon="2.541168766">
        <ele>388.03</ele>
        <time>2013-07-28T10:26:56Z</time>
      </trkpt>
      <trkpt lat="41.647644924" lon="2.540973216">
        <ele>385.15</ele>
        <time>2013-07-28T10:27:00Z</time>
      </trkpt>
      <trkpt lat="41.647596393" lon="2.540923679">
        <ele>383.70</ele>
        <time>2013-07-28T10:27:01Z</time>
      </trkpt>
      <trkpt lat="41.647231110" lon="2.540769788">
        <ele>380.34</ele>
        <time>2013-07-28T10:27:06Z</time>
      </trkpt>
      <trkpt lat="41.646960206" lon="2.540774481">
        <ele>377.94</ele>
        <time>2013-07-28T10:27:09Z</time>
      </trkpt>
      <trkpt lat="41.646789719" lon="2.540802729">
        <ele>376.97</ele>
        <time>2013-07-28T10:27:11Z</time>
      </trkpt>
      <trkpt lat="41.646710929" lon="2.540819660">
        <ele>376.01</ele>
        <time>2013-07-28T10:27:12Z</time>
      </trkpt>
      <trkpt lat="41.646376155" lon="2.540747240">
        <ele>371.69</ele>
        <time>2013-07-28T10:27:16Z</time>
      </trkpt>
      <trkpt lat="41.646190580" lon="2.540670294">
        <ele>368.80</ele>
        <time>2013-07-28T10:27:18Z</time>
      </trkpt>
      <trkpt lat="41.646105085" lon="2.540624278">
        <ele>367.36</ele>
        <time>2013-07-28T10:27:19Z</time>
      </trkpt>
      <trkpt lat="41.645812556" lon="2.540319847">
        <ele>362.07</ele>
        <time>2013-07-28T10:27:23Z</time>
      </trkpt>
      <trkpt lat="41.645733012" lon="2.540275674">
        <ele>360.63</ele>
        <time>2013-07-28T10:27:24Z</time>
      </trkpt>
      <trkpt lat="41.645544419" lon="2.540183893">
        <ele>359.19</ele>
        <time>2013-07-28T10:27:27Z</time>
      </trkpt>
      <trkpt lat="41.645325903" lon="2.540150449">
        <ele>358.71</ele>
        <time>2013-07-28T10:27:32Z</time>
      </trkpt>
      <trkpt lat="41.645298913" lon="2.540144665">
        <ele>358.71</ele>
        <time>2013-07-28T10:27:33Z</time>
      </trkpt>
      <trkpt lat="41.645252478" lon="2.540138295">
        <ele>360.15</ele>
        <time>2013-07-28T10:27:35Z</time>
      </trkpt>
      <trkpt lat="41.645102022" lon="2.540085238">
        <ele>361.11</ele>
        <time>2013-07-28T10:27:42Z</time>
      </trkpt>
      <trkpt lat="41.644977216" lon="2.539994797">
        <ele>362.07</ele>
        <time>2013-07-28T10:27:49Z</time>
      </trkpt>
      <trkpt lat="41.644835394" lon="2.539924640">
        <ele>363.52</ele>
        <time>2013-07-28T10:27:57Z</time>
      </trkpt>
      <trkpt lat="41.644691309" lon="2.539860603">
        <ele>365.44</ele>
        <time>2013-07-28T10:28:05Z</time>
      </trkpt>
      <trkpt lat="41.644574298" lon="2.539950121">
        <ele>366.40</ele>
        <time>2013-07-28T10:28:12Z</time>
      </trkpt>
      <trkpt lat="41.644531131" lon="2.540139301">
        <ele>368.80</ele>
        <time>2013-07-28T10:28:20Z</time>
      </trkpt>
      <trkpt lat="41.644479247" lon="2.540338455">
        <ele>371.21</ele>
        <time>2013-07-28T10:28:29Z</time>
      </trkpt>
      <trkpt lat="41.644385956" lon="2.540446581">
        <ele>372.17</ele>
        <time>2013-07-28T10:28:35Z</time>
      </trkpt>
      <trkpt lat="41.644303227" lon="2.540434595">
        <ele>373.61</ele>
        <time>2013-07-28T10:28:40Z</time>
      </trkpt>
      <trkpt lat="41.644261401" lon="2.540306352">
        <ele>375.05</ele>
        <time>2013-07-28T10:28:47Z</time>
      </trkpt>
      <trkpt lat="41.644213122" lon="2.540175343">
        <ele>376.49</ele>
        <time>2013-07-28T10:28:54Z</time>
      </trkpt>
      <trkpt lat="41.644140450" lon="2.540069061">
        <ele>377.94</ele>
        <time>2013-07-28T10:29:01Z</time>
      </trkpt>
      <trkpt lat="41.644049088" lon="2.539948026">
        <ele>379.38</ele>
        <time>2013-07-28T10:29:09Z</time>
      </trkpt>
      <trkpt lat="41.644012962" lon="2.539904021">
        <ele>380.34</ele>
        <time>2013-07-28T10:29:12Z</time>
      </trkpt>
      <trkpt lat="41.643955797" lon="2.539828835">
        <ele>380.82</ele>
        <time>2013-07-28T10:29:17Z</time>
      </trkpt>
      <trkpt lat="41.643848173" lon="2.539706878">
        <ele>382.26</ele>
        <time>2013-07-28T10:29:25Z</time>
      </trkpt>
      <trkpt lat="41.643717583" lon="2.539603530">
        <ele>383.70</ele>
        <time>2013-07-28T10:29:34Z</time>
      </trkpt>
      <trkpt lat="41.643560004" lon="2.539523063">
        <ele>385.63</ele>
        <time>2013-07-28T10:29:44Z</time>
      </trkpt>
      <trkpt lat="41.643442573" lon="2.539461289">
        <ele>387.55</ele>
        <time>2013-07-28T10:29:52Z</time>
      </trkpt>
      <trkpt lat="41.643372668" lon="2.539363807">
        <ele>388.51</ele>
        <time>2013-07-28T10:29:59Z</time>
      </trkpt>
      <trkpt lat="41.643287173" lon="2.539222321">
        <ele>389.95</ele>
        <time>2013-07-28T10:30:08Z</time>
      </trkpt>
      <trkpt lat="41.643168233" lon="2.539103130">
        <ele>391.87</ele>
        <time>2013-07-28T10:30:18Z</time>
      </trkpt>
      <trkpt lat="41.643054743" lon="2.539048229">
        <ele>392.84</ele>
        <time>2013-07-28T10:30:25Z</time>
      </trkpt>
      <trkpt lat="41.642922057" lon="2.538983101">
        <ele>393.80</ele>
        <time>2013-07-28T10:30:34Z</time>
      </trkpt>
      <trkpt lat="41.642784929" lon="2.538875226">
        <ele>394.76</ele>
        <time>2013-07-28T10:30:42Z</time>
      </trkpt>
      <trkpt lat="41.642643610" lon="2.538750168">
        <ele>395.72</ele>
        <time>2013-07-28T10:30:50Z</time>
      </trkpt>
      <trkpt lat="41.642526515" lon="2.538620249">
        <ele>396.20</ele>
        <time>2013-07-28T10:30:59Z</time>
      </trkpt>
      <trkpt lat="41.642358458" lon="2.538538693">
        <ele>396.20</ele>
        <time>2013-07-28T10:31:07Z</time>
      </trkpt>
      <trkpt lat="41.642264329" lon="2.538542967">
        <ele>394.76</ele>
        <time>2013-07-28T10:31:11Z</time>
      </trkpt>
      <trkpt lat="41.642032318" lon="2.538491335">
        <ele>393.80</ele>
        <time>2013-07-28T10:31:18Z</time>
      </trkpt>
      <trkpt lat="41.641837858" lon="2.538365942">
        <ele>393.80</ele>
        <time>2013-07-28T10:31:25Z</time>
      </trkpt>
      <trkpt lat="41.641729899" lon="2.538205596">
        <ele>393.80</ele>
        <time>2013-07-28T10:31:33Z</time>
      </trkpt>
      <trkpt lat="41.641627137" lon="2.537979871">
        <ele>394.76</ele>
        <time>2013-07-28T10:31:42Z</time>
      </trkpt>
      <trkpt lat="41.641587993" lon="2.537662029">
        <ele>393.80</ele>
        <time>2013-07-28T10:31:49Z</time>
      </trkpt>
      <trkpt lat="41.641565195" lon="2.537461450">
        <ele>393.32</ele>
        <time>2013-07-28T10:31:53Z</time>
      </trkpt>
      <trkpt lat="41.641614229" lon="2.537120307">
        <ele>392.84</ele>
        <time>2013-07-28T10:32:00Z</time>
      </trkpt>
      <trkpt lat="41.641536277" lon="2.536846805">
        <ele>392.84</ele>
        <time>2013-07-28T10:32:08Z</time>
      </trkpt>
      <trkpt lat="41.641473077" lon="2.536757538">
        <ele>392.84</ele>
        <time>2013-07-28T10:32:10Z</time>
      </trkpt>
      <trkpt lat="41.641364448" lon="2.536488311">
        <ele>390.91</ele>
        <time>2013-07-28T10:32:14Z</time>
      </trkpt>
      <trkpt lat="41.641166300" lon="2.535821112">
        <ele>387.07</ele>
        <time>2013-07-28T10:32:21Z</time>
      </trkpt>
      <trkpt lat="41.641082565" lon="2.535617013">
        <ele>386.11</ele>
        <time>2013-07-28T10:32:23Z</time>
      </trkpt>
      <trkpt lat="41.640857343" lon="2.535338650">
        <ele>384.66</ele>
        <time>2013-07-28T10:32:28Z</time>
      </trkpt>
      <trkpt lat="41.640777799" lon="2.535245359">
        <ele>384.66</ele>
        <time>2013-07-28T10:32:33Z</time>
      </trkpt>
      <trkpt lat="41.640767656" lon="2.535232116">
        <ele>384.18</ele>
        <time>2013-07-28T10:32:38Z</time>
      </trkpt>
      <trkpt lat="41.640755000" lon="2.535231864">
        <ele>384.18</ele>
        <time>2013-07-28T10:32:40Z</time>
      </trkpt>
      <trkpt lat="41.640674953" lon="2.535216441">
        <ele>384.18</ele>
        <time>2013-07-28T10:32:44Z</time>
      </trkpt>
      <trkpt lat="41.640330205" lon="2.535242174">
        <ele>383.70</ele>
        <time>2013-07-28T10:32:53Z</time>
      </trkpt>
      <trkpt lat="41.640109845" lon="2.535205294">
        <ele>383.22</ele>
        <time>2013-07-28T10:32:59Z</time>
      </trkpt>
      <trkpt lat="41.639989313" lon="2.535127426">
        <ele>382.26</ele>
        <time>2013-07-28T10:33:02Z</time>
      </trkpt>
      <trkpt lat="41.639769204" lon="2.535035476">
        <ele>380.82</ele>
        <time>2013-07-28T10:33:06Z</time>
      </trkpt>
      <trkpt lat="41.639572565" lon="2.534975881">
        <ele>379.38</ele>
        <time>2013-07-28T10:33:09Z</time>
      </trkpt>
      <trkpt lat="41.639388917" lon="2.534966326">
        <ele>377.94</ele>
        <time>2013-07-28T10:33:12Z</time>
      </trkpt>
      <trkpt lat="41.639273666" lon="2.534946293">
        <ele>376.01</ele>
        <time>2013-07-28T10:33:14Z</time>
      </trkpt>
      <trkpt lat="41.639160594" lon="2.534936234">
        <ele>375.05</ele>
        <time>2013-07-28T10:33:16Z</time>
      </trkpt>
      <trkpt lat="41.638884159" lon="2.534836825">
        <ele>374.57</ele>
        <time>2013-07-28T10:33:21Z</time>
      </trkpt>
      <trkpt lat="41.638834035" lon="2.534804136">
        <ele>374.57</ele>
        <time>2013-07-28T10:33:22Z</time>
      </trkpt>
      <trkpt lat="41.638545865" lon="2.534641359">
        <ele>374.09</ele>
        <time>2013-07-28T10:33:29Z</time>
      </trkpt>
      <trkpt lat="41.638300779" lon="2.534603892">
        <ele>374.09</ele>
        <time>2013-07-28T10:33:36Z</time>
      </trkpt>
      <trkpt lat="41.638128279" lon="2.534726016">
        <ele>374.09</ele>
        <time>2013-07-28T10:33:42Z</time>
      </trkpt>
      <trkpt lat="41.637955863" lon="2.534893571">
        <ele>375.53</ele>
        <time>2013-07-28T10:33:50Z</time>
      </trkpt>
      <trkpt lat="41.637883192" lon="2.534936234">
        <ele>376.49</ele>
        <time>2013-07-28T10:33:54Z</time>
      </trkpt>
      <trkpt lat="41.637768192" lon="2.534859875">
        <ele>376.49</ele>
        <time>2013-07-28T10:34:00Z</time>
      </trkpt>
      <trkpt lat="41.637708681" lon="2.534779577">
        <ele>377.45</ele>
        <time>2013-07-28T10:34:04Z</time>
      </trkpt>
      <trkpt lat="41.637557136" lon="2.534625853">
        <ele>378.42</ele>
        <time>2013-07-28T10:34:13Z</time>
      </trkpt>
      <trkpt lat="41.637380110" lon="2.534558797">
        <ele>378.90</ele>
        <time>2013-07-28T10:34:21Z</time>
      </trkpt>
      <trkpt lat="41.637192859" lon="2.534473805">
        <ele>379.38</ele>
        <time>2013-07-28T10:34:29Z</time>
      </trkpt>
      <trkpt lat="41.637054557" lon="2.534367271">
        <ele>379.38</ele>
        <time>2013-07-28T10:34:35Z</time>
      </trkpt>
      <trkpt lat="41.636893457" lon="2.534261407">
        <ele>380.82</ele>
        <time>2013-07-28T10:34:42Z</time>
      </trkpt>
      <trkpt lat="41.636731183" lon="2.534199884">
        <ele>381.78</ele>
        <time>2013-07-28T10:34:49Z</time>
      </trkpt>
      <trkpt lat="41.636611490" lon="2.534157891">
        <ele>382.74</ele>
        <time>2013-07-28T10:34:54Z</time>
      </trkpt>
      <trkpt lat="41.636571340" lon="2.533969801">
        <ele>382.74</ele>
        <time>2013-07-28T10:35:00Z</time>
      </trkpt>
      <trkpt lat="41.636585841" lon="2.533936609">
        <ele>382.74</ele>
        <time>2013-07-28T10:35:01Z</time>
      </trkpt>
      <trkpt lat="41.636688436" lon="2.533659838">
        <ele>382.74</ele>
        <time>2013-07-28T10:35:09Z</time>
      </trkpt>
      <trkpt lat="41.636732357" lon="2.533401424">
        <ele>382.26</ele>
        <time>2013-07-28T10:35:16Z</time>
      </trkpt>
      <trkpt lat="41.636667397" lon="2.533165138">
        <ele>382.26</ele>
        <time>2013-07-28T10:35:22Z</time>
      </trkpt>
      <trkpt lat="41.636525324" lon="2.533004457">
        <ele>382.26</ele>
        <time>2013-07-28T10:35:28Z</time>
      </trkpt>
      <trkpt lat="41.636426417" lon="2.532825420">
        <ele>382.26</ele>
        <time>2013-07-28T10:35:34Z</time>
      </trkpt>
      <trkpt lat="41.636481403" lon="2.532599192">
        <ele>382.26</ele>
        <time>2013-07-28T10:35:40Z</time>
      </trkpt>
      <trkpt lat="41.636532197" lon="2.532259641">
        <ele>382.74</ele>
        <time>2013-07-28T10:35:49Z</time>
      </trkpt>
      <trkpt lat="41.636392303" lon="2.531942219">
        <ele>382.74</ele>
        <time>2013-07-28T10:35:57Z</time>
      </trkpt>
      <trkpt lat="41.636339497" lon="2.531664275">
        <ele>382.74</ele>
        <time>2013-07-28T10:36:03Z</time>
      </trkpt>
      <trkpt lat="41.636342263" lon="2.531341655">
        <ele>382.74</ele>
        <time>2013-07-28T10:36:10Z</time>
      </trkpt>
      <trkpt lat="41.636286942" lon="2.531001685">
        <ele>382.74</ele>
        <time>2013-07-28T10:36:18Z</time>
      </trkpt>
      <trkpt lat="41.636139505" lon="2.530905964">
        <ele>382.74</ele>
        <time>2013-07-28T10:36:24Z</time>
      </trkpt>
      <trkpt lat="41.635885952" lon="2.530945107">
        <ele>382.74</ele>
        <time>2013-07-28T10:36:30Z</time>
      </trkpt>
      <trkpt lat="41.635747735" lon="2.531041164">
        <ele>379.86</ele>
        <time>2013-07-28T10:36:33Z</time>
      </trkpt>
      <trkpt lat="41.635698700" lon="2.531168234">
        <ele>378.90</ele>
        <time>2013-07-28T10:36:35Z</time>
      </trkpt>
      <trkpt lat="41.635596609" lon="2.531704843">
        <ele>374.57</ele>
        <time>2013-07-28T10:36:42Z</time>
      </trkpt>
      <trkpt lat="41.635575151" lon="2.531862591">
        <ele>374.09</ele>
        <time>2013-07-28T10:36:44Z</time>
      </trkpt>
      <trkpt lat="41.635568865" lon="2.531932747">
        <ele>374.09</ele>
        <time>2013-07-28T10:36:45Z</time>
      </trkpt>
      <trkpt lat="41.635472305" lon="2.532138104">
        <ele>373.13</ele>
        <time>2013-07-28T10:36:49Z</time>
      </trkpt>
      <trkpt lat="41.635329981" lon="2.532094518">
        <ele>373.61</ele>
        <time>2013-07-28T10:36:53Z</time>
      </trkpt>
      <trkpt lat="41.635271643" lon="2.532039868">
        <ele>373.61</ele>
        <time>2013-07-28T10:36:55Z</time>
      </trkpt>
      <trkpt lat="41.635138035" lon="2.531907769">
        <ele>373.61</ele>
        <time>2013-07-28T10:36:59Z</time>
      </trkpt>
      <trkpt lat="41.634917842" lon="2.531768462">
        <ele>370.24</ele>
        <time>2013-07-28T10:37:04Z</time>
      </trkpt>
      <trkpt lat="41.634813320" lon="2.531881115">
        <ele>368.32</ele>
        <time>2013-07-28T10:37:07Z</time>
      </trkpt>
      <trkpt lat="41.634701086" lon="2.532070043">
        <ele>367.36</ele>
        <time>2013-07-28T10:37:10Z</time>
      </trkpt>
      <trkpt lat="41.634610059" lon="2.532363577">
        <ele>366.40</ele>
        <time>2013-07-28T10:37:14Z</time>
      </trkpt>
      <trkpt lat="41.634632103" lon="2.532690555">
        <ele>367.84</ele>
        <time>2013-07-28T10:37:21Z</time>
      </trkpt>
      <trkpt lat="41.634657081" lon="2.532939246">
        <ele>370.24</ele>
        <time>2013-07-28T10:37:28Z</time>
      </trkpt>
      <trkpt lat="41.634711396" lon="2.533161450">
        <ele>371.69</ele>
        <time>2013-07-28T10:37:35Z</time>
      </trkpt>
      <trkpt lat="41.634655070" lon="2.533377200">
        <ele>372.65</ele>
        <time>2013-07-28T10:37:42Z</time>
      </trkpt>
      <trkpt lat="41.634533532" lon="2.533429504">
        <ele>373.61</ele>
        <time>2013-07-28T10:37:47Z</time>
      </trkpt>
      <trkpt lat="41.634419538" lon="2.533396898">
        <ele>374.57</ele>
        <time>2013-07-28T10:37:52Z</time>
      </trkpt>
      <trkpt lat="41.634240585" lon="2.533458253">
        <ele>376.97</ele>
        <time>2013-07-28T10:38:00Z</time>
      </trkpt>
      <trkpt lat="41.634093147" lon="2.533519944">
        <ele>377.45</ele>
        <time>2013-07-28T10:38:07Z</time>
      </trkpt>
      <trkpt lat="41.634071354" lon="2.533538887">
        <ele>377.94</ele>
        <time>2013-07-28T10:38:09Z</time>
      </trkpt>
      <trkpt lat="41.633970604" lon="2.533538217">
        <ele>377.94</ele>
        <time>2013-07-28T10:38:13Z</time>
      </trkpt>
      <trkpt lat="41.633878654" lon="2.533510137">
        <ele>376.97</ele>
        <time>2013-07-28T10:38:15Z</time>
      </trkpt>
      <trkpt lat="41.633788046" lon="2.533432940">
        <ele>376.01</ele>
        <time>2013-07-28T10:38:17Z</time>
      </trkpt>
      <trkpt lat="41.633628622" lon="2.533221046">
        <ele>378.42</ele>
        <time>2013-07-28T10:38:24Z</time>
      </trkpt>
      <trkpt lat="41.633503312" lon="2.533032956">
        <ele>381.30</ele>
        <time>2013-07-28T10:38:32Z</time>
      </trkpt>
      <trkpt lat="41.633368783" lon="2.532888871">
        <ele>383.70</ele>
        <time>2013-07-28T10:38:40Z</time>
      </trkpt>
      <trkpt lat="41.633215310" lon="2.532744283">
        <ele>384.66</ele>
        <time>2013-07-28T10:38:50Z</time>
      </trkpt>
      <trkpt lat="41.633215310" lon="2.532542447">
        <ele>383.22</ele>
        <time>2013-07-28T10:38:55Z</time>
      </trkpt>
      <trkpt lat="41.633219417" lon="2.532459298">
        <ele>382.74</ele>
        <time>2013-07-28T10:38:56Z</time>
      </trkpt>
      <trkpt lat="41.633202570" lon="2.532062164">
        <ele>379.38</ele>
        <time>2013-07-28T10:39:00Z</time>
      </trkpt>
      <trkpt lat="41.632990340" lon="2.531589508">
        <ele>376.97</ele>
        <time>2013-07-28T10:39:05Z</time>
      </trkpt>
      <trkpt lat="41.632871065" lon="2.531397311">
        <ele>375.53</ele>
        <time>2013-07-28T10:39:07Z</time>
      </trkpt>
      <trkpt lat="41.632582896" lon="2.531049127">
        <ele>376.97</ele>
        <time>2013-07-28T10:39:12Z</time>
      </trkpt>
      <trkpt lat="41.632539142" lon="2.530998165">
        <ele>376.97</ele>
        <time>2013-07-28T10:39:13Z</time>
      </trkpt>
      <trkpt lat="41.632333534" lon="2.530802364">
        <ele>376.97</ele>
        <time>2013-07-28T10:39:18Z</time>
      </trkpt>
      <trkpt lat="41.632113006" lon="2.530586613">
        <ele>377.45</ele>
        <time>2013-07-28T10:39:26Z</time>
      </trkpt>
      <trkpt lat="41.632037066" lon="2.530520061">
        <ele>378.42</ele>
        <time>2013-07-28T10:39:31Z</time>
      </trkpt>
      <trkpt lat="41.631997084" lon="2.530530622">
        <ele>378.90</ele>
        <time>2013-07-28T10:39:35Z</time>
      </trkpt>
      <trkpt lat="41.631914774" lon="2.530602623">
        <ele>379.86</ele>
        <time>2013-07-28T10:39:43Z</time>
      </trkpt>
      <trkpt lat="41.631906895" lon="2.530647634">
        <ele>380.34</ele>
        <time>2013-07-28T10:39:46Z</time>
      </trkpt>
      <trkpt lat="41.631871021" lon="2.530716868">
        <ele>379.86</ele>
        <time>2013-07-28T10:39:50Z</time>
      </trkpt>
      <trkpt lat="41.631757446" lon="2.530868413">
        <ele>380.82</ele>
        <time>2013-07-28T10:39:58Z</time>
      </trkpt>
      <trkpt lat="41.631649738" lon="2.531030268">
        <ele>381.30</ele>
        <time>2013-07-28T10:40:05Z</time>
      </trkpt>
      <trkpt lat="41.631529709" lon="2.531221040">
        <ele>381.78</ele>
        <time>2013-07-28T10:40:12Z</time>
      </trkpt>
      <trkpt lat="41.631408004" lon="2.531383230">
        <ele>382.74</ele>
        <time>2013-07-28T10:40:19Z</time>
      </trkpt>
      <trkpt lat="41.631232320" lon="2.531422960">
        <ele>383.22</ele>
        <time>2013-07-28T10:40:26Z</time>
      </trkpt>
      <trkpt lat="41.630963847" lon="2.531394713">
        <ele>383.22</ele>
        <time>2013-07-28T10:40:35Z</time>
      </trkpt>
      <trkpt lat="41.630702080" lon="2.531477945">
        <ele>383.70</ele>
        <time>2013-07-28T10:40:43Z</time>
      </trkpt>
      <trkpt lat="41.630431010" lon="2.531603338">
        <ele>384.18</ele>
        <time>2013-07-28T10:40:52Z</time>
      </trkpt>
      <trkpt lat="41.630221127" lon="2.531589508">
        <ele>384.66</ele>
        <time>2013-07-28T10:40:59Z</time>
      </trkpt>
      <trkpt lat="41.629988948" lon="2.531498062">
        <ele>386.11</ele>
        <time>2013-07-28T10:41:08Z</time>
      </trkpt>
      <trkpt lat="41.629808989" lon="2.531424552">
        <ele>387.55</ele>
        <time>2013-07-28T10:41:16Z</time>
      </trkpt>
      <trkpt lat="41.629633136" lon="2.531314749">
        <ele>388.99</ele>
        <time>2013-07-28T10:41:24Z</time>
      </trkpt>
      <trkpt lat="41.629471282" lon="2.531198744">
        <ele>389.95</ele>
        <time>2013-07-28T10:41:32Z</time>
      </trkpt>
      <trkpt lat="41.629390480" lon="2.531020712">
        <ele>390.43</ele>
        <time>2013-07-28T10:41:38Z</time>
      </trkpt>
      <trkpt lat="41.629374890" lon="2.530887105">
        <ele>390.43</ele>
        <time>2013-07-28T10:41:41Z</time>
      </trkpt>
      <trkpt lat="41.629362820" lon="2.530651406">
        <ele>388.99</ele>
        <time>2013-07-28T10:41:45Z</time>
      </trkpt>
      <trkpt lat="41.629338177" lon="2.530377150">
        <ele>387.07</ele>
        <time>2013-07-28T10:41:49Z</time>
      </trkpt>
      <trkpt lat="41.629218484" lon="2.529880438">
        <ele>384.18</ele>
        <time>2013-07-28T10:41:55Z</time>
      </trkpt>
      <trkpt lat="41.629111614" lon="2.529604590">
        <ele>382.74</ele>
        <time>2013-07-28T10:41:58Z</time>
      </trkpt>
      <trkpt lat="41.628827049" lon="2.529062783">
        <ele>383.22</ele>
        <time>2013-07-28T10:42:05Z</time>
      </trkpt>
      <trkpt lat="41.628679108" lon="2.528754581">
        <ele>382.74</ele>
        <time>2013-07-28T10:42:10Z</time>
      </trkpt>
      <trkpt lat="41.628550278" lon="2.528497927">
        <ele>382.26</ele>
        <time>2013-07-28T10:42:15Z</time>
      </trkpt>
      <trkpt lat="41.628233694" lon="2.528144127">
        <ele>381.78</ele>
        <time>2013-07-28T10:42:23Z</time>
      </trkpt>
      <trkpt lat="41.628017022" lon="2.527948745">
        <ele>378.42</ele>
        <time>2013-07-28T10:42:27Z</time>
      </trkpt>
      <trkpt lat="41.627667831" lon="2.527729558">
        <ele>375.05</ele>
        <time>2013-07-28T10:42:33Z</time>
      </trkpt>
      <trkpt lat="41.627268350" lon="2.527503833">
        <ele>371.69</ele>
        <time>2013-07-28T10:42:40Z</time>
      </trkpt>
      <trkpt lat="41.626984287" lon="2.527399479">
        <ele>368.80</ele>
        <time>2013-07-28T10:42:45Z</time>
      </trkpt>
      <trkpt lat="41.626765520" lon="2.527351869">
        <ele>365.44</ele>
        <time>2013-07-28T10:42:49Z</time>
      </trkpt>
      <trkpt lat="41.626599893" lon="2.527317923">
        <ele>362.07</ele>
        <time>2013-07-28T10:42:53Z</time>
      </trkpt>
      <trkpt lat="41.626567958" lon="2.527285401">
        <ele>361.11</ele>
        <time>2013-07-28T10:42:55Z</time>
      </trkpt>
      <trkpt lat="41.626565863" lon="2.527258411">
        <ele>361.11</ele>
        <time>2013-07-28T10:43:00Z</time>
      </trkpt>
      <trkpt lat="41.626573155" lon="2.527242318">
        <ele>361.11</ele>
        <time>2013-07-28T10:43:13Z</time>
      </trkpt>
      <trkpt lat="41.626571562" lon="2.527223710">
        <ele>361.11</ele>
        <time>2013-07-28T10:43:28Z</time>
      </trkpt>
      <trkpt lat="41.626571981" lon="2.527212311">
        <ele>361.11</ele>
        <time>2013-07-28T10:43:39Z</time>
      </trkpt>
      <trkpt lat="41.626568293" lon="2.527205438">
        <ele>360.63</ele>
        <time>2013-07-28T10:43:49Z</time>
      </trkpt>
      <trkpt lat="41.626550105" lon="2.527145675">
        <ele>360.63</ele>
        <time>2013-07-28T10:43:53Z</time>
      </trkpt>
      <trkpt lat="41.626532586" lon="2.527121786">
        <ele>360.63</ele>
        <time>2013-07-28T10:44:02Z</time>
      </trkpt>
      <trkpt lat="41.626535017" lon="2.527122624">
        <ele>360.63</ele>
        <time>2013-07-28T10:44:22Z</time>
      </trkpt>
      <trkpt lat="41.626524456" lon="2.527125307">
        <ele>360.63</ele>
        <time>2013-07-28T10:44:37Z</time>
      </trkpt>
      <trkpt lat="41.626477182" lon="2.527115919">
        <ele>360.63</ele>
        <time>2013-07-28T10:44:40Z</time>
      </trkpt>
      <trkpt lat="41.626350615" lon="2.526975690">
        <ele>358.71</ele>
        <time>2013-07-28T10:44:49Z</time>
      </trkpt>
      <trkpt lat="41.626326559" lon="2.526880387">
        <ele>358.71</ele>
        <time>2013-07-28T10:44:53Z</time>
      </trkpt>
      <trkpt lat="41.626319267" lon="2.526679473">
        <ele>358.71</ele>
        <time>2013-07-28T10:45:00Z</time>
      </trkpt>
      <trkpt lat="41.626310885" lon="2.526635887">
        <ele>359.67</ele>
        <time>2013-07-28T10:45:02Z</time>
      </trkpt>
      <trkpt lat="41.626236957" lon="2.526473697">
        <ele>361.59</ele>
        <time>2013-07-28T10:45:10Z</time>
      </trkpt>
      <trkpt lat="41.626196304" lon="2.526242357">
        <ele>363.52</ele>
        <time>2013-07-28T10:45:20Z</time>
      </trkpt>
      <trkpt lat="41.626098907" lon="2.526096260">
        <ele>364.96</ele>
        <time>2013-07-28T10:45:29Z</time>
      </trkpt>
      <trkpt lat="41.626003353" lon="2.525942033">
        <ele>367.84</ele>
        <time>2013-07-28T10:45:39Z</time>
      </trkpt>
      <trkpt lat="41.625905033" lon="2.525816808">
        <ele>370.24</ele>
        <time>2013-07-28T10:45:48Z</time>
      </trkpt>
      <trkpt lat="41.625842504" lon="2.525764002">
        <ele>372.17</ele>
        <time>2013-07-28T10:45:54Z</time>
      </trkpt>
      <trkpt lat="41.625789363" lon="2.525588904">
        <ele>375.05</ele>
        <time>2013-07-28T10:46:05Z</time>
      </trkpt>
      <trkpt lat="41.625791123" lon="2.525493099">
        <ele>376.01</ele>
        <time>2013-07-28T10:46:11Z</time>
      </trkpt>
      <trkpt lat="41.625811408" lon="2.525469294">
        <ele>376.97</ele>
        <time>2013-07-28T10:46:14Z</time>
      </trkpt>
      <trkpt lat="41.625850216" lon="2.525527967">
        <ele>377.45</ele>
        <time>2013-07-28T10:46:20Z</time>
      </trkpt>
      <trkpt lat="41.625956079" lon="2.525613044">
        <ele>376.97</ele>
        <time>2013-07-28T10:46:29Z</time>
      </trkpt>
      <trkpt lat="41.626101924" lon="2.525733911">
        <ele>377.45</ele>
        <time>2013-07-28T10:46:38Z</time>
      </trkpt>
      <trkpt lat="41.626289427" lon="2.525818316">
        <ele>377.45</ele>
        <time>2013-07-28T10:46:46Z</time>
      </trkpt>
      <trkpt lat="41.626436697" lon="2.525895430">
        <ele>378.42</ele>
        <time>2013-07-28T10:46:54Z</time>
      </trkpt>
      <trkpt lat="41.626553374" lon="2.525976315">
        <ele>379.86</ele>
        <time>2013-07-28T10:47:02Z</time>
      </trkpt>
      <trkpt lat="41.626694692" lon="2.526080586">
        <ele>379.86</ele>
        <time>2013-07-28T10:47:09Z</time>
      </trkpt>
      <trkpt lat="41.626811369" lon="2.526152587">
        <ele>378.42</ele>
        <time>2013-07-28T10:47:14Z</time>
      </trkpt>
      <trkpt lat="41.626835508" lon="2.526139176">
        <ele>378.42</ele>
        <time>2013-07-28T10:47:25Z</time>
      </trkpt>
      <trkpt lat="41.626857553" lon="2.526131716">
        <ele>378.42</ele>
        <time>2013-07-28T10:47:34Z</time>
      </trkpt>
      <trkpt lat="41.626867443" lon="2.526126100">
        <ele>378.42</ele>
        <time>2013-07-28T10:47:43Z</time>
      </trkpt>
      <trkpt lat="41.626873143" lon="2.526106989">
        <ele>377.94</ele>
        <time>2013-07-28T10:47:45Z</time>
      </trkpt>
      <trkpt lat="41.626852272" lon="2.526070528">
        <ele>377.94</ele>
        <time>2013-07-28T10:47:48Z</time>
      </trkpt>
      <trkpt lat="41.626791671" lon="2.525900878">
        <ele>379.38</ele>
        <time>2013-07-28T10:47:58Z</time>
      </trkpt>
      <trkpt lat="41.626783289" lon="2.525864920">
        <ele>379.86</ele>
        <time>2013-07-28T10:48:00Z</time>
      </trkpt>
      <trkpt lat="41.626739619" lon="2.525724355">
        <ele>381.30</ele>
        <time>2013-07-28T10:48:09Z</time>
      </trkpt>
      <trkpt lat="41.626683545" lon="2.525565434">
        <ele>382.74</ele>
        <time>2013-07-28T10:48:18Z</time>
      </trkpt>
      <trkpt lat="41.626600145" lon="2.525377680">
        <ele>385.15</ele>
        <time>2013-07-28T10:48:28Z</time>
      </trkpt>
      <trkpt lat="41.626540633" lon="2.525263853">
        <ele>387.55</ele>
        <time>2013-07-28T10:48:35Z</time>
      </trkpt>
      <trkpt lat="41.626533173" lon="2.525251113">
        <ele>387.55</ele>
        <time>2013-07-28T10:48:36Z</time>
      </trkpt>
      <trkpt lat="41.626490174" lon="2.525149441">
        <ele>387.55</ele>
        <time>2013-07-28T10:48:42Z</time>
      </trkpt>
      <trkpt lat="41.626425214" lon="2.524990771">
        <ele>388.99</ele>
        <time>2013-07-28T10:48:52Z</time>
      </trkpt>
      <trkpt lat="41.626390597" lon="2.524832688">
        <ele>390.43</ele>
        <time>2013-07-28T10:49:01Z</time>
      </trkpt>
      <trkpt lat="41.626388334" lon="2.524818691">
        <ele>390.43</ele>
        <time>2013-07-28T10:49:02Z</time>
      </trkpt>
      <trkpt lat="41.626379701" lon="2.524788683">
        <ele>390.91</ele>
        <time>2013-07-28T10:49:04Z</time>
      </trkpt>
      <trkpt lat="41.626369223" lon="2.524745517">
        <ele>391.39</ele>
        <time>2013-07-28T10:49:10Z</time>
      </trkpt>
      <trkpt lat="41.626372073" lon="2.524666559">
        <ele>392.36</ele>
        <time>2013-07-28T10:49:17Z</time>
      </trkpt>
      <trkpt lat="41.626341395" lon="2.524626074">
        <ele>392.84</ele>
        <time>2013-07-28T10:49:25Z</time>
      </trkpt>
      <trkpt lat="41.626302168" lon="2.524480397">
        <ele>394.28</ele>
        <time>2013-07-28T10:49:32Z</time>
      </trkpt>
      <trkpt lat="41.626245171" lon="2.524325332">
        <ele>396.20</ele>
        <time>2013-07-28T10:49:41Z</time>
      </trkpt>
      <trkpt lat="41.626198903" lon="2.524193652">
        <ele>398.60</ele>
        <time>2013-07-28T10:49:50Z</time>
      </trkpt>
      <trkpt lat="41.626154646" lon="2.524064403">
        <ele>400.05</ele>
        <time>2013-07-28T10:49:58Z</time>
      </trkpt>
      <trkpt lat="41.626102762" lon="2.523874637">
        <ele>401.97</ele>
        <time>2013-07-28T10:50:09Z</time>
      </trkpt>
      <trkpt lat="41.626075018" lon="2.523743963">
        <ele>404.37</ele>
        <time>2013-07-28T10:50:17Z</time>
      </trkpt>
      <trkpt lat="41.626039563" lon="2.523604488">
        <ele>405.81</ele>
        <time>2013-07-28T10:50:25Z</time>
      </trkpt>
      <trkpt lat="41.626002347" lon="2.523469037">
        <ele>407.74</ele>
        <time>2013-07-28T10:50:33Z</time>
      </trkpt>
      <trkpt lat="41.625956750" lon="2.523343643">
        <ele>409.18</ele>
        <time>2013-07-28T10:50:42Z</time>
      </trkpt>
      <trkpt lat="41.625922887" lon="2.523227051">
        <ele>410.14</ele>
        <time>2013-07-28T10:50:48Z</time>
      </trkpt>
      <trkpt lat="41.625891538" lon="2.523077937">
        <ele>411.10</ele>
        <time>2013-07-28T10:50:56Z</time>
      </trkpt>
      <trkpt lat="41.625880977" lon="2.523047846">
        <ele>411.58</ele>
        <time>2013-07-28T10:50:58Z</time>
      </trkpt>
      <trkpt lat="41.625859520" lon="2.522962267">
        <ele>412.06</ele>
        <time>2013-07-28T10:51:02Z</time>
      </trkpt>
      <trkpt lat="41.625844265" lon="2.522782726">
        <ele>412.06</ele>
        <time>2013-07-28T10:51:10Z</time>
      </trkpt>
      <trkpt lat="41.625835966" lon="2.522589356">
        <ele>414.47</ele>
        <time>2013-07-28T10:51:20Z</time>
      </trkpt>
      <trkpt lat="41.625847031" lon="2.522439152">
        <ele>414.95</ele>
        <time>2013-07-28T10:51:28Z</time>
      </trkpt>
      <trkpt lat="41.625858179" lon="2.522409480">
        <ele>415.43</ele>
        <time>2013-07-28T10:51:30Z</time>
      </trkpt>
      <trkpt lat="41.625907967" lon="2.522234801">
        <ele>418.31</ele>
        <time>2013-07-28T10:51:40Z</time>
      </trkpt>
      <trkpt lat="41.625938896" lon="2.522058949">
        <ele>420.23</ele>
        <time>2013-07-28T10:51:49Z</time>
      </trkpt>
      <trkpt lat="41.625962198" lon="2.521914277">
        <ele>421.68</ele>
        <time>2013-07-28T10:51:57Z</time>
      </trkpt>
      <trkpt lat="41.625982147" lon="2.521818472">
        <ele>423.12</ele>
        <time>2013-07-28T10:52:03Z</time>
      </trkpt>
      <trkpt lat="41.626077281" lon="2.521703640">
        <ele>423.60</ele>
        <time>2013-07-28T10:52:12Z</time>
      </trkpt>
      <trkpt lat="41.626176104" lon="2.521543043">
        <ele>424.56</ele>
        <time>2013-07-28T10:52:21Z</time>
      </trkpt>
      <trkpt lat="41.626210218" lon="2.521464756">
        <ele>425.04</ele>
        <time>2013-07-28T10:52:25Z</time>
      </trkpt>
      <trkpt lat="41.626256487" lon="2.521308769">
        <ele>425.52</ele>
        <time>2013-07-28T10:52:33Z</time>
      </trkpt>
      <trkpt lat="41.626262941" lon="2.521287814">
        <ele>426.00</ele>
        <time>2013-07-28T10:52:34Z</time>
      </trkpt>
      <trkpt lat="41.626291439" lon="2.521105088">
        <ele>426.48</ele>
        <time>2013-07-28T10:52:41Z</time>
      </trkpt>
      <trkpt lat="41.626318596" lon="2.520884812">
        <ele>427.44</ele>
        <time>2013-07-28T10:52:50Z</time>
      </trkpt>
      <trkpt lat="41.626383891" lon="2.520677695">
        <ele>428.40</ele>
        <time>2013-07-28T10:52:58Z</time>
      </trkpt>
      <trkpt lat="41.626453042" lon="2.520604856">
        <ele>428.40</ele>
        <time>2013-07-28T10:53:01Z</time>
      </trkpt>
      <trkpt lat="41.626558906" lon="2.520301851">
        <ele>426.48</ele>
        <time>2013-07-28T10:53:06Z</time>
      </trkpt>
      <trkpt lat="41.626673235" lon="2.519997420">
        <ele>425.52</ele>
        <time>2013-07-28T10:53:11Z</time>
      </trkpt>
      <trkpt lat="41.626737105" lon="2.519669520">
        <ele>425.04</ele>
        <time>2013-07-28T10:53:17Z</time>
      </trkpt>
      <trkpt lat="41.626732076" lon="2.519621492">
        <ele>425.04</ele>
        <time>2013-07-28T10:53:18Z</time>
      </trkpt>
      <trkpt lat="41.626709696" lon="2.519401383">
        <ele>426.48</ele>
        <time>2013-07-28T10:53:23Z</time>
      </trkpt>
      <trkpt lat="41.626696369" lon="2.519206671">
        <ele>427.44</ele>
        <time>2013-07-28T10:53:30Z</time>
      </trkpt>
      <trkpt lat="41.626681952" lon="2.519053282">
        <ele>428.40</ele>
        <time>2013-07-28T10:53:37Z</time>
      </trkpt>
      <trkpt lat="41.626676085" lon="2.519015228">
        <ele>428.89</ele>
        <time>2013-07-28T10:53:39Z</time>
      </trkpt>
      <trkpt lat="41.626609113" lon="2.518829486">
        <ele>429.37</ele>
        <time>2013-07-28T10:53:48Z</time>
      </trkpt>
      <trkpt lat="41.626544824" lon="2.518630499">
        <ele>427.92</ele>
        <time>2013-07-28T10:53:54Z</time>
      </trkpt>
      <trkpt lat="41.626541220" lon="2.518591356">
        <ele>427.92</ele>
        <time>2013-07-28T10:53:55Z</time>
      </trkpt>
      <trkpt lat="41.626547171" lon="2.518336043">
        <ele>426.96</ele>
        <time>2013-07-28T10:54:01Z</time>
      </trkpt>
      <trkpt lat="41.626544489" lon="2.518072683">
        <ele>426.96</ele>
        <time>2013-07-28T10:54:08Z</time>
      </trkpt>
      <trkpt lat="41.626534933" lon="2.517821813">
        <ele>426.96</ele>
        <time>2013-07-28T10:54:15Z</time>
      </trkpt>
      <trkpt lat="41.626532419" lon="2.517717123">
        <ele>428.40</ele>
        <time>2013-07-28T10:54:18Z</time>
      </trkpt>
      <trkpt lat="41.626537532" lon="2.517502714">
        <ele>429.37</ele>
        <time>2013-07-28T10:54:25Z</time>
      </trkpt>
      <trkpt lat="41.626566282" lon="2.517281348">
        <ele>430.81</ele>
        <time>2013-07-28T10:54:32Z</time>
      </trkpt>
      <trkpt lat="41.626604336" lon="2.517073561">
        <ele>431.77</ele>
        <time>2013-07-28T10:54:39Z</time>
      </trkpt>
      <trkpt lat="41.626648927" lon="2.516751696">
        <ele>433.21</ele>
        <time>2013-07-28T10:54:49Z</time>
      </trkpt>
      <trkpt lat="41.626666948" lon="2.516590931">
        <ele>433.69</ele>
        <time>2013-07-28T10:54:54Z</time>
      </trkpt>
      <trkpt lat="41.626691340" lon="2.516394710">
        <ele>434.65</ele>
        <time>2013-07-28T10:55:01Z</time>
      </trkpt>
      <trkpt lat="41.626737105" lon="2.516155910">
        <ele>435.61</ele>
        <time>2013-07-28T10:55:09Z</time>
      </trkpt>
      <trkpt lat="41.626774069" lon="2.515911996">
        <ele>437.54</ele>
        <time>2013-07-28T10:55:17Z</time>
      </trkpt>
      <trkpt lat="41.626813296" lon="2.515762296">
        <ele>438.02</ele>
        <time>2013-07-28T10:55:22Z</time>
      </trkpt>
      <trkpt lat="41.626956375" lon="2.515591137">
        <ele>439.94</ele>
        <time>2013-07-28T10:55:31Z</time>
      </trkpt>
      <trkpt lat="41.627102221" lon="2.515436323">
        <ele>440.90</ele>
        <time>2013-07-28T10:55:39Z</time>
      </trkpt>
      <trkpt lat="41.627229039" lon="2.515249994">
        <ele>443.31</ele>
        <time>2013-07-28T10:55:49Z</time>
      </trkpt>
      <trkpt lat="41.627306236" lon="2.515125020">
        <ele>444.27</ele>
        <time>2013-07-28T10:55:55Z</time>
      </trkpt>
      <trkpt lat="41.627392234" lon="2.514925530">
        <ele>446.67</ele>
        <time>2013-07-28T10:56:04Z</time>
      </trkpt>
      <trkpt lat="41.627464151" lon="2.514642222">
        <ele>448.11</ele>
        <time>2013-07-28T10:56:14Z</time>
      </trkpt>
      <trkpt lat="41.627475634" lon="2.514433177">
        <ele>449.07</ele>
        <time>2013-07-28T10:56:21Z</time>
      </trkpt>
      <trkpt lat="41.627438167" lon="2.514127405">
        <ele>451.00</ele>
        <time>2013-07-28T10:56:31Z</time>
      </trkpt>
      <trkpt lat="41.627416123" lon="2.513922133">
        <ele>451.96</ele>
        <time>2013-07-28T10:56:38Z</time>
      </trkpt>
      <trkpt lat="41.627332471" lon="2.513685763">
        <ele>452.92</ele>
        <time>2013-07-28T10:56:46Z</time>
      </trkpt>
      <trkpt lat="41.627237253" lon="2.513498260">
        <ele>454.36</ele>
        <time>2013-07-28T10:56:54Z</time>
      </trkpt>
      <trkpt lat="41.627126277" lon="2.513285359">
        <ele>454.36</ele>
        <time>2013-07-28T10:57:00Z</time>
      </trkpt>
      <trkpt lat="41.627074057" lon="2.513181424">
        <ele>452.92</ele>
        <time>2013-07-28T10:57:02Z</time>
      </trkpt>
      <trkpt lat="41.626843807" lon="2.512975313">
        <ele>452.44</ele>
        <time>2013-07-28T10:57:08Z</time>
      </trkpt>
      <trkpt lat="41.626796365" lon="2.512961483">
        <ele>451.48</ele>
        <time>2013-07-28T10:57:09Z</time>
      </trkpt>
      <trkpt lat="41.626558570" lon="2.512932817">
        <ele>451.48</ele>
        <time>2013-07-28T10:57:14Z</time>
      </trkpt>
      <trkpt lat="41.626378779" lon="2.512857882">
        <ele>450.52</ele>
        <time>2013-07-28T10:57:19Z</time>
      </trkpt>
      <trkpt lat="41.626359500" lon="2.512747577">
        <ele>449.55</ele>
        <time>2013-07-28T10:57:21Z</time>
      </trkpt>
      <trkpt lat="41.626319016" lon="2.512306353">
        <ele>446.67</ele>
        <time>2013-07-28T10:57:28Z</time>
      </trkpt>
      <trkpt lat="41.626269227" lon="2.512102086">
        <ele>445.71</ele>
        <time>2013-07-28T10:57:32Z</time>
      </trkpt>
      <trkpt lat="41.626174679" lon="2.511857670">
        <ele>442.82</ele>
        <time>2013-07-28T10:57:37Z</time>
      </trkpt>
      <trkpt lat="41.625975106" lon="2.511736049">
        <ele>440.42</ele>
        <time>2013-07-28T10:57:43Z</time>
      </trkpt>
      <trkpt lat="41.625826327" lon="2.511636471">
        <ele>438.50</ele>
        <time>2013-07-28T10:57:47Z</time>
      </trkpt>
      <trkpt lat="41.625825070" lon="2.511400605">
        <ele>436.58</ele>
        <time>2013-07-28T10:57:51Z</time>
      </trkpt>
      <trkpt lat="41.625846779" lon="2.511293149">
        <ele>435.61</ele>
        <time>2013-07-28T10:57:53Z</time>
      </trkpt>
      <trkpt lat="41.626013914" lon="2.510798700">
        <ele>432.73</ele>
        <time>2013-07-28T10:58:02Z</time>
      </trkpt>
      <trkpt lat="41.626101086" lon="2.510500221">
        <ele>430.81</ele>
        <time>2013-07-28T10:58:07Z</time>
      </trkpt>
      <trkpt lat="41.626249027" lon="2.510032594">
        <ele>428.40</ele>
        <time>2013-07-28T10:58:14Z</time>
      </trkpt>
      <trkpt lat="41.626429321" lon="2.509656331">
        <ele>427.44</ele>
        <time>2013-07-28T10:58:20Z</time>
      </trkpt>
      <trkpt lat="41.626435440" lon="2.509289539">
        <ele>426.00</ele>
        <time>2013-07-28T10:58:25Z</time>
      </trkpt>
      <trkpt lat="41.626422364" lon="2.508926435">
        <ele>425.52</ele>
        <time>2013-07-28T10:58:30Z</time>
      </trkpt>
      <trkpt lat="41.626504591" lon="2.508740859">
        <ele>425.04</ele>
        <time>2013-07-28T10:58:33Z</time>
      </trkpt>
      <trkpt lat="41.626666110" lon="2.508415222">
        <ele>423.12</ele>
        <time>2013-07-28T10:58:39Z</time>
      </trkpt>
      <trkpt lat="41.626721934" lon="2.508152701">
        <ele>421.68</ele>
        <time>2013-07-28T10:58:43Z</time>
      </trkpt>
      <trkpt lat="41.626796365" lon="2.507925971">
        <ele>419.75</ele>
        <time>2013-07-28T10:58:48Z</time>
      </trkpt>
      <trkpt lat="41.626714055" lon="2.507859837">
        <ele>419.27</ele>
        <time>2013-07-28T10:58:51Z</time>
      </trkpt>
      <trkpt lat="41.626624536" lon="2.507836620">
        <ele>418.31</ele>
        <time>2013-07-28T10:58:53Z</time>
      </trkpt>
      <trkpt lat="41.626350532" lon="2.507841732">
        <ele>415.91</ele>
        <time>2013-07-28T10:58:58Z</time>
      </trkpt>
      <trkpt lat="41.626234777" lon="2.507875931">
        <ele>415.91</ele>
        <time>2013-07-28T10:59:00Z</time>
      </trkpt>
      <trkpt lat="41.625998072" lon="2.507923875">
        <ele>414.47</ele>
        <time>2013-07-28T10:59:04Z</time>
      </trkpt>
      <trkpt lat="41.625578977" lon="2.507908704">
        <ele>412.06</ele>
        <time>2013-07-28T10:59:12Z</time>
      </trkpt>
      <trkpt lat="41.625527932" lon="2.507902920">
        <ele>412.06</ele>
        <time>2013-07-28T10:59:13Z</time>
      </trkpt>
      <trkpt lat="41.625413183" lon="2.507745089">
        <ele>410.62</ele>
        <time>2013-07-28T10:59:17Z</time>
      </trkpt>
      <trkpt lat="41.625408741" lon="2.507690104">
        <ele>411.10</ele>
        <time>2013-07-28T10:59:18Z</time>
      </trkpt>
      <trkpt lat="41.625372950" lon="2.507329933">
        <ele>411.10</ele>
        <time>2013-07-28T10:59:27Z</time>
      </trkpt>
      <trkpt lat="41.625321821" lon="2.507095575">
        <ele>412.54</ele>
        <time>2013-07-28T10:59:34Z</time>
      </trkpt>
      <trkpt lat="41.625276894" lon="2.506923914">
        <ele>413.02</ele>
        <time>2013-07-28T10:59:40Z</time>
      </trkpt>
      <trkpt lat="41.625238756" lon="2.506680504">
        <ele>413.50</ele>
        <time>2013-07-28T10:59:48Z</time>
      </trkpt>
      <trkpt lat="41.625173545" lon="2.506521918">
        <ele>414.95</ele>
        <time>2013-07-28T10:59:55Z</time>
      </trkpt>
      <trkpt lat="41.625072207" lon="2.506355621">
        <ele>416.39</ele>
        <time>2013-07-28T11:00:03Z</time>
      </trkpt>
      <trkpt lat="41.625003643" lon="2.506180020">
        <ele>417.83</ele>
        <time>2013-07-28T11:00:11Z</time>
      </trkpt>
      <trkpt lat="41.624897277" lon="2.506114222">
        <ele>419.27</ele>
        <time>2013-07-28T11:00:18Z</time>
      </trkpt>
      <trkpt lat="41.624802226" lon="2.506143307">
        <ele>421.68</ele>
        <time>2013-07-28T11:00:25Z</time>
      </trkpt>
      <trkpt lat="41.624692004" lon="2.506210279">
        <ele>422.16</ele>
        <time>2013-07-28T11:00:32Z</time>
      </trkpt>
      <trkpt lat="41.624558229" lon="2.506230228">
        <ele>425.04</ele>
        <time>2013-07-28T11:00:42Z</time>
      </trkpt>
      <trkpt lat="41.624451779" lon="2.506245231">
        <ele>425.52</ele>
        <time>2013-07-28T11:00:49Z</time>
      </trkpt>
      <trkpt lat="41.624344239" lon="2.506256463">
        <ele>426.96</ele>
        <time>2013-07-28T11:00:58Z</time>
      </trkpt>
      <trkpt lat="41.624226306" lon="2.506261995">
        <ele>428.89</ele>
        <time>2013-07-28T11:01:07Z</time>
      </trkpt>
      <trkpt lat="41.624209123" lon="2.506260067">
        <ele>428.89</ele>
        <time>2013-07-28T11:01:08Z</time>
      </trkpt>
      <trkpt lat="41.624125136" lon="2.506243723">
        <ele>428.89</ele>
        <time>2013-07-28T11:01:14Z</time>
      </trkpt>
      <trkpt lat="41.623981219" lon="2.506186810">
        <ele>429.85</ele>
        <time>2013-07-28T11:01:24Z</time>
      </trkpt>
      <trkpt lat="41.623834284" lon="2.506100141">
        <ele>431.29</ele>
        <time>2013-07-28T11:01:34Z</time>
      </trkpt>
      <trkpt lat="41.623740491" lon="2.506007102">
        <ele>432.73</ele>
        <time>2013-07-28T11:01:42Z</time>
      </trkpt>
      <trkpt lat="41.623655917" lon="2.505928144">
        <ele>434.17</ele>
        <time>2013-07-28T11:01:50Z</time>
      </trkpt>
      <trkpt lat="41.623588527" lon="2.505805098">
        <ele>434.65</ele>
        <time>2013-07-28T11:01:57Z</time>
      </trkpt>
      <trkpt lat="41.623633957" lon="2.505635364">
        <ele>435.61</ele>
        <time>2013-07-28T11:02:05Z</time>
      </trkpt>
      <trkpt lat="41.623715010" lon="2.505492788">
        <ele>436.10</ele>
        <time>2013-07-28T11:02:14Z</time>
      </trkpt>
      <trkpt lat="41.623816934" lon="2.505316517">
        <ele>438.02</ele>
        <time>2013-07-28T11:02:25Z</time>
      </trkpt>
      <trkpt lat="41.623907626" lon="2.505160781">
        <ele>439.46</ele>
        <time>2013-07-28T11:02:34Z</time>
      </trkpt>
      <trkpt lat="41.623970322" lon="2.505086349">
        <ele>441.38</ele>
        <time>2013-07-28T11:02:40Z</time>
      </trkpt>
      <trkpt lat="41.624033271" lon="2.505048044">
        <ele>441.86</ele>
        <time>2013-07-28T11:02:45Z</time>
      </trkpt>
      <trkpt lat="41.624188084" lon="2.504890548">
        <ele>442.82</ele>
        <time>2013-07-28T11:02:55Z</time>
      </trkpt>
      <trkpt lat="41.624274083" lon="2.504673960">
        <ele>442.82</ele>
        <time>2013-07-28T11:03:02Z</time>
      </trkpt>
      <trkpt lat="41.624321943" lon="2.504455779">
        <ele>443.31</ele>
        <time>2013-07-28T11:03:09Z</time>
      </trkpt>
      <trkpt lat="41.624314316" lon="2.504324854">
        <ele>444.27</ele>
        <time>2013-07-28T11:03:14Z</time>
      </trkpt>
      <trkpt lat="41.624203004" lon="2.504244890">
        <ele>445.23</ele>
        <time>2013-07-28T11:03:20Z</time>
      </trkpt>
      <trkpt lat="41.624057075" lon="2.504265761">
        <ele>445.71</ele>
        <time>2013-07-28T11:03:26Z</time>
      </trkpt>
      <trkpt lat="41.623972083" lon="2.504241621">
        <ele>445.71</ele>
        <time>2013-07-28T11:03:28Z</time>
      </trkpt>
      <trkpt lat="41.623835541" lon="2.504141793">
        <ele>444.27</ele>
        <time>2013-07-28T11:03:31Z</time>
      </trkpt>
      <trkpt lat="41.623718865" lon="2.504012125">
        <ele>442.82</ele>
        <time>2013-07-28T11:03:34Z</time>
      </trkpt>
      <trkpt lat="41.623611326" lon="2.504067110">
        <ele>442.34</ele>
        <time>2013-07-28T11:03:37Z</time>
      </trkpt>
      <trkpt lat="41.623541840" lon="2.504198874">
        <ele>440.42</ele>
        <time>2013-07-28T11:03:41Z</time>
      </trkpt>
      <trkpt lat="41.623433545" lon="2.504262911">
        <ele>438.98</ele>
        <time>2013-07-28T11:03:45Z</time>
      </trkpt>
      <trkpt lat="41.623399347" lon="2.504267773">
        <ele>438.50</ele>
        <time>2013-07-28T11:03:46Z</time>
      </trkpt>
      <trkpt lat="41.623273116" lon="2.504232820">
        <ele>437.06</ele>
        <time>2013-07-28T11:03:49Z</time>
      </trkpt>
      <trkpt lat="41.623013612" lon="2.504237430">
        <ele>434.65</ele>
        <time>2013-07-28T11:03:54Z</time>
      </trkpt>
      <trkpt lat="41.622787217" lon="2.504058980">
        <ele>431.29</ele>
        <time>2013-07-28T11:03:58Z</time>
      </trkpt>
      <trkpt lat="41.622760227" lon="2.503872650">
        <ele>430.33</ele>
        <time>2013-07-28T11:04:00Z</time>
      </trkpt>
      <trkpt lat="41.622762239" lon="2.503773911">
        <ele>429.85</ele>
        <time>2013-07-28T11:04:01Z</time>
      </trkpt>
      <trkpt lat="41.622776572" lon="2.503604094">
        <ele>429.37</ele>
        <time>2013-07-28T11:04:03Z</time>
      </trkpt>
      <trkpt lat="41.622813620" lon="2.503405778">
        <ele>429.37</ele>
        <time>2013-07-28T11:04:06Z</time>
      </trkpt>
      <trkpt lat="41.622781852" lon="2.503182316">
        <ele>428.89</ele>
        <time>2013-07-28T11:04:10Z</time>
      </trkpt>
      <trkpt lat="41.622707421" lon="2.503087936">
        <ele>428.40</ele>
        <time>2013-07-28T11:04:12Z</time>
      </trkpt>
      <trkpt lat="41.622521678" lon="2.503062036">
        <ele>427.44</ele>
        <time>2013-07-28T11:04:16Z</time>
      </trkpt>
      <trkpt lat="41.622429310" lon="2.503096067">
        <ele>427.44</ele>
        <time>2013-07-28T11:04:18Z</time>
      </trkpt>
      <trkpt lat="41.622189671" lon="2.503028257">
        <ele>425.52</ele>
        <time>2013-07-28T11:04:22Z</time>
      </trkpt>
      <trkpt lat="41.621996468" lon="2.502966147">
        <ele>422.64</ele>
        <time>2013-07-28T11:04:25Z</time>
      </trkpt>
      <trkpt lat="41.621842493" lon="2.502865397">
        <ele>420.71</ele>
        <time>2013-07-28T11:04:28Z</time>
      </trkpt>
      <trkpt lat="41.621771330" lon="2.502701027">
        <ele>417.35</ele>
        <time>2013-07-28T11:04:31Z</time>
      </trkpt>
      <trkpt lat="41.621729840" lon="2.502498688">
        <ele>415.91</ele>
        <time>2013-07-28T11:04:34Z</time>
      </trkpt>
      <trkpt lat="41.621719027" lon="2.502179170">
        <ele>413.50</ele>
        <time>2013-07-28T11:04:38Z</time>
      </trkpt>
      <trkpt lat="41.621791531" lon="2.501742976">
        <ele>410.62</ele>
        <time>2013-07-28T11:04:43Z</time>
      </trkpt>
      <trkpt lat="41.621715339" lon="2.501625462">
        <ele>410.14</ele>
        <time>2013-07-28T11:04:46Z</time>
      </trkpt>
      <trkpt lat="41.621555329" lon="2.501535524">
        <ele>409.18</ele>
        <time>2013-07-28T11:04:50Z</time>
      </trkpt>
      <trkpt lat="41.621351732" lon="2.501356151">
        <ele>409.18</ele>
        <time>2013-07-28T11:04:57Z</time>
      </trkpt>
      <trkpt lat="41.621247377" lon="2.501192788">
        <ele>410.62</ele>
        <time>2013-07-28T11:05:04Z</time>
      </trkpt>
      <trkpt lat="41.621240756" lon="2.501176443">
        <ele>410.62</ele>
        <time>2013-07-28T11:05:05Z</time>
      </trkpt>
      <trkpt lat="41.621234218" lon="2.501142413">
        <ele>410.62</ele>
        <time>2013-07-28T11:05:11Z</time>
      </trkpt>
      <trkpt lat="41.621215694" lon="2.501118189">
        <ele>410.62</ele>
        <time>2013-07-28T11:05:21Z</time>
      </trkpt>
      <trkpt lat="41.621221394" lon="2.501112154">
        <ele>410.62</ele>
        <time>2013-07-28T11:05:36Z</time>
      </trkpt>
      <trkpt lat="41.621216113" lon="2.501104778">
        <ele>410.62</ele>
        <time>2013-07-28T11:05:50Z</time>
      </trkpt>
      <trkpt lat="41.621218376" lon="2.501102682">
        <ele>410.62</ele>
        <time>2013-07-28T11:06:00Z</time>
      </trkpt>
      <trkpt lat="41.621228015" lon="2.501109220">
        <ele>410.62</ele>
        <time>2013-07-28T11:06:18Z</time>
      </trkpt>
      <trkpt lat="41.621231619" lon="2.501103521">
        <ele>410.62</ele>
        <time>2013-07-28T11:06:35Z</time>
      </trkpt>
      <trkpt lat="41.621238660" lon="2.501083236">
        <ele>410.62</ele>
        <time>2013-07-28T11:06:43Z</time>
      </trkpt>
      <trkpt lat="41.621263806" lon="2.501064545">
        <ele>410.62</ele>
        <time>2013-07-28T11:06:47Z</time>
      </trkpt>
      <trkpt lat="41.621340249" lon="2.501108298">
        <ele>410.62</ele>
        <time>2013-07-28T11:06:55Z</time>
      </trkpt>
      <trkpt lat="41.621362796" lon="2.501139227">
        <ele>411.10</ele>
        <time>2013-07-28T11:06:58Z</time>
      </trkpt>
      <trkpt lat="41.621419542" lon="2.501237463">
        <ele>413.02</ele>
        <time>2013-07-28T11:07:06Z</time>
      </trkpt>
      <trkpt lat="41.621454159" lon="2.501235284">
        <ele>413.50</ele>
        <time>2013-07-28T11:07:09Z</time>
      </trkpt>
      <trkpt lat="41.621463044" lon="2.501187591">
        <ele>413.98</ele>
        <time>2013-07-28T11:07:13Z</time>
      </trkpt>
      <trkpt lat="41.621417530" lon="2.501009643">
        <ele>415.43</ele>
        <time>2013-07-28T11:07:25Z</time>
      </trkpt>
      <trkpt lat="41.621373693" lon="2.500893805">
        <ele>417.83</ele>
        <time>2013-07-28T11:07:33Z</time>
      </trkpt>
      <trkpt lat="41.621352906" lon="2.500788445">
        <ele>418.31</ele>
        <time>2013-07-28T11:07:39Z</time>
      </trkpt>
      <trkpt lat="41.621318875" lon="2.500620807">
        <ele>420.23</ele>
        <time>2013-07-28T11:07:49Z</time>
      </trkpt>
      <trkpt lat="41.621297417" lon="2.500533132">
        <ele>421.68</ele>
        <time>2013-07-28T11:07:55Z</time>
      </trkpt>
      <trkpt lat="41.621261459" lon="2.500407823">
        <ele>423.60</ele>
        <time>2013-07-28T11:08:04Z</time>
      </trkpt>
      <trkpt lat="41.621231368" lon="2.500317717">
        <ele>424.08</ele>
        <time>2013-07-28T11:08:10Z</time>
      </trkpt>
      <trkpt lat="41.621222735" lon="2.500192072">
        <ele>425.04</ele>
        <time>2013-07-28T11:08:18Z</time>
      </trkpt>
      <trkpt lat="41.621224579" lon="2.500128035">
        <ele>425.52</ele>
        <time>2013-07-28T11:08:22Z</time>
      </trkpt>
      <trkpt lat="41.621201109" lon="2.500051424">
        <ele>426.96</ele>
        <time>2013-07-28T11:08:28Z</time>
      </trkpt>
      <trkpt lat="41.621095497" lon="2.500004150">
        <ele>427.44</ele>
        <time>2013-07-28T11:08:36Z</time>
      </trkpt>
      <trkpt lat="41.621070352" lon="2.499992583">
        <ele>427.44</ele>
        <time>2013-07-28T11:08:38Z</time>
      </trkpt>
      <trkpt lat="41.620978654" lon="2.500036504">
        <ele>427.92</ele>
        <time>2013-07-28T11:08:45Z</time>
      </trkpt>
      <trkpt lat="41.620874131" lon="2.500130382">
        <ele>428.89</ele>
        <time>2013-07-28T11:08:54Z</time>
      </trkpt>
      <trkpt lat="41.620783271" lon="2.500245046">
        <ele>429.85</ele>
        <time>2013-07-28T11:09:03Z</time>
      </trkpt>
      <trkpt lat="41.620645305" lon="2.500356190">
        <ele>429.85</ele>
        <time>2013-07-28T11:09:11Z</time>
      </trkpt>
      <trkpt lat="41.620528797" lon="2.500369098">
        <ele>429.85</ele>
        <time>2013-07-28T11:09:16Z</time>
      </trkpt>
      <trkpt lat="41.620447911" lon="2.500298103">
        <ele>430.33</ele>
        <time>2013-07-28T11:09:23Z</time>
      </trkpt>
      <trkpt lat="41.620399548" lon="2.500111606">
        <ele>431.29</ele>
        <time>2013-07-28T11:09:32Z</time>
      </trkpt>
      <trkpt lat="41.620353950" lon="2.499907088">
        <ele>433.21</ele>
        <time>2013-07-28T11:09:43Z</time>
      </trkpt>
      <trkpt lat="41.620301144" lon="2.499767780">
        <ele>434.65</ele>
        <time>2013-07-28T11:09:52Z</time>
      </trkpt>
      <trkpt lat="41.620230485" lon="2.499645488">
        <ele>436.10</ele>
        <time>2013-07-28T11:10:00Z</time>
      </trkpt>
      <trkpt lat="41.620183127" lon="2.499610201">
        <ele>436.58</ele>
        <time>2013-07-28T11:10:04Z</time>
      </trkpt>
      <trkpt lat="41.620040132" lon="2.499528309">
        <ele>438.98</ele>
        <time>2013-07-28T11:10:15Z</time>
      </trkpt>
      <trkpt lat="41.619945500" lon="2.499448849">
        <ele>439.94</ele>
        <time>2013-07-28T11:10:23Z</time>
      </trkpt>
      <trkpt lat="41.619937789" lon="2.499317840">
        <ele>440.90</ele>
        <time>2013-07-28T11:10:31Z</time>
      </trkpt>
      <trkpt lat="41.619953212" lon="2.499195799">
        <ele>441.86</ele>
        <time>2013-07-28T11:10:38Z</time>
      </trkpt>
      <trkpt lat="41.619938208" lon="2.499086583">
        <ele>443.79</ele>
        <time>2013-07-28T11:10:45Z</time>
      </trkpt>
      <trkpt lat="41.619859586" lon="2.498984659">
        <ele>444.75</ele>
        <time>2013-07-28T11:10:53Z</time>
      </trkpt>
      <trkpt lat="41.619797141" lon="2.498898745">
        <ele>445.71</ele>
        <time>2013-07-28T11:11:00Z</time>
      </trkpt>
      <trkpt lat="41.619755566" lon="2.498762455">
        <ele>447.15</ele>
        <time>2013-07-28T11:11:09Z</time>
      </trkpt>
      <trkpt lat="41.619747855" lon="2.498735549">
        <ele>447.15</ele>
        <time>2013-07-28T11:11:10Z</time>
      </trkpt>
      <trkpt lat="41.619736707" lon="2.498565732">
        <ele>447.63</ele>
        <time>2013-07-28T11:11:16Z</time>
      </trkpt>
      <trkpt lat="41.619732013" lon="2.498528013">
        <ele>447.63</ele>
        <time>2013-07-28T11:11:17Z</time>
      </trkpt>
      <trkpt lat="41.619596813" lon="2.498428436">
        <ele>447.15</ele>
        <time>2013-07-28T11:11:24Z</time>
      </trkpt>
      <trkpt lat="41.619571248" lon="2.498401027">
        <ele>447.15</ele>
        <time>2013-07-28T11:11:26Z</time>
      </trkpt>
      <trkpt lat="41.619554568" lon="2.498218637">
        <ele>449.07</ele>
        <time>2013-07-28T11:11:35Z</time>
      </trkpt>
      <trkpt lat="41.619558089" lon="2.498054771">
        <ele>449.55</ele>
        <time>2013-07-28T11:11:43Z</time>
      </trkpt>
      <trkpt lat="41.619479550" lon="2.497946980">
        <ele>451.48</ele>
        <time>2013-07-28T11:11:51Z</time>
      </trkpt>
      <trkpt lat="41.619404867" lon="2.497748580">
        <ele>453.40</ele>
        <time>2013-07-28T11:12:02Z</time>
      </trkpt>
      <trkpt lat="41.619395396" lon="2.497712035">
        <ele>453.40</ele>
        <time>2013-07-28T11:12:04Z</time>
      </trkpt>
      <trkpt lat="41.619228596" lon="2.497552108">
        <ele>453.88</ele>
        <time>2013-07-28T11:12:12Z</time>
      </trkpt>
      <trkpt lat="41.619199762" lon="2.497529058">
        <ele>452.92</ele>
        <time>2013-07-28T11:12:13Z</time>
      </trkpt>
      <trkpt lat="41.619147124" lon="2.497528387">
        <ele>451.96</ele>
        <time>2013-07-28T11:12:15Z</time>
      </trkpt>
      <trkpt lat="41.619095240" lon="2.497543223">
        <ele>451.96</ele>
        <time>2013-07-28T11:12:18Z</time>
      </trkpt>
      <trkpt lat="41.619026508" lon="2.497639615">
        <ele>451.96</ele>
        <time>2013-07-28T11:12:26Z</time>
      </trkpt>
      <trkpt lat="41.618985353" lon="2.497683453">
        <ele>451.96</ele>
        <time>2013-07-28T11:12:30Z</time>
      </trkpt>
      <trkpt lat="41.618885022" lon="2.497780096">
        <ele>453.88</ele>
        <time>2013-07-28T11:12:38Z</time>
      </trkpt>
      <trkpt lat="41.618855685" lon="2.497801721">
        <ele>453.88</ele>
        <time>2013-07-28T11:12:40Z</time>
      </trkpt>
      <trkpt lat="41.618781170" lon="2.497869615">
        <ele>454.84</ele>
        <time>2013-07-28T11:12:46Z</time>
      </trkpt>
      <trkpt lat="41.618717551" lon="2.497960391">
        <ele>455.80</ele>
        <time>2013-07-28T11:12:52Z</time>
      </trkpt>
      <trkpt lat="41.618670864" lon="2.497998361">
        <ele>457.24</ele>
        <time>2013-07-28T11:12:56Z</time>
      </trkpt>
      <trkpt lat="41.618561816" lon="2.498104559">
        <ele>459.17</ele>
        <time>2013-07-28T11:13:05Z</time>
      </trkpt>
      <trkpt lat="41.618539604" lon="2.498127693">
        <ele>459.65</ele>
        <time>2013-07-28T11:13:07Z</time>
      </trkpt>
      <trkpt lat="41.618435249" lon="2.498216206">
        <ele>460.61</ele>
        <time>2013-07-28T11:13:15Z</time>
      </trkpt>
      <trkpt lat="41.618301138" lon="2.498304384">
        <ele>462.05</ele>
        <time>2013-07-28T11:13:24Z</time>
      </trkpt>
      <trkpt lat="41.618182954" lon="2.498322740">
        <ele>462.53</ele>
        <time>2013-07-28T11:13:31Z</time>
      </trkpt>
      <trkpt lat="41.618059069" lon="2.498377055">
        <ele>463.01</ele>
        <time>2013-07-28T11:13:38Z</time>
      </trkpt>
      <trkpt lat="41.617946584" lon="2.498554165">
        <ele>463.49</ele>
        <time>2013-07-28T11:13:47Z</time>
      </trkpt>
      <trkpt lat="41.617845750" lon="2.498673020">
        <ele>463.49</ele>
        <time>2013-07-28T11:13:51Z</time>
      </trkpt>
      <trkpt lat="41.617727816" lon="2.498775531">
        <ele>462.05</ele>
        <time>2013-07-28T11:13:54Z</time>
      </trkpt>
      <trkpt lat="41.617564788" lon="2.498853063">
        <ele>460.13</ele>
        <time>2013-07-28T11:13:57Z</time>
      </trkpt>
      <trkpt lat="41.617376363" lon="2.498932021">
        <ele>457.24</ele>
        <time>2013-07-28T11:14:00Z</time>
      </trkpt>
      <trkpt lat="41.617187854" lon="2.498919867">
        <ele>454.84</ele>
        <time>2013-07-28T11:14:04Z</time>
      </trkpt>
      <trkpt lat="41.617165307" lon="2.498865049">
        <ele>453.40</ele>
        <time>2013-07-28T11:14:05Z</time>
      </trkpt>
      <trkpt lat="41.617070424" lon="2.498637397">
        <ele>452.44</ele>
        <time>2013-07-28T11:14:09Z</time>
      </trkpt>
      <trkpt lat="41.616999680" lon="2.498412510">
        <ele>450.03</ele>
        <time>2013-07-28T11:14:13Z</time>
      </trkpt>
      <trkpt lat="41.616869426" lon="2.498208663">
        <ele>447.15</ele>
        <time>2013-07-28T11:14:17Z</time>
      </trkpt>
      <trkpt lat="41.616768759" lon="2.497962654">
        <ele>443.31</ele>
        <time>2013-07-28T11:14:21Z</time>
      </trkpt>
      <trkpt lat="41.616618388" lon="2.497846061">
        <ele>440.42</ele>
        <time>2013-07-28T11:14:25Z</time>
      </trkpt>
      <trkpt lat="41.616573544" lon="2.497859473">
        <ele>440.42</ele>
        <time>2013-07-28T11:14:26Z</time>
      </trkpt>
      <trkpt lat="41.616478158" lon="2.497754363">
        <ele>437.54</ele>
        <time>2013-07-28T11:14:29Z</time>
      </trkpt>
      <trkpt lat="41.616473381" lon="2.497696947">
        <ele>437.54</ele>
        <time>2013-07-28T11:14:30Z</time>
      </trkpt>
      <trkpt lat="41.616381096" lon="2.497391679">
        <ele>436.10</ele>
        <time>2013-07-28T11:14:37Z</time>
      </trkpt>
      <trkpt lat="41.616290488" lon="2.497521514">
        <ele>435.13</ele>
        <time>2013-07-28T11:14:41Z</time>
      </trkpt>
      <trkpt lat="41.616214464" lon="2.497724440">
        <ele>434.17</ele>
        <time>2013-07-28T11:14:45Z</time>
      </trkpt>
      <trkpt lat="41.616141122" lon="2.497827286">
        <ele>433.69</ele>
        <time>2013-07-28T11:14:47Z</time>
      </trkpt>
      <trkpt lat="41.616037103" lon="2.497906998">
        <ele>432.25</ele>
        <time>2013-07-28T11:14:49Z</time>
      </trkpt>
      <trkpt lat="41.615841469" lon="2.498148983">
        <ele>430.81</ele>
        <time>2013-07-28T11:14:53Z</time>
      </trkpt>
      <trkpt lat="41.615556987" lon="2.498378396">
        <ele>426.96</ele>
        <time>2013-07-28T11:14:58Z</time>
      </trkpt>
      <trkpt lat="41.615396977" lon="2.498387532">
        <ele>425.52</ele>
        <time>2013-07-28T11:15:00Z</time>
      </trkpt>
      <trkpt lat="41.615135713" lon="2.498179829">
        <ele>422.16</ele>
        <time>2013-07-28T11:15:05Z</time>
      </trkpt>
      <trkpt lat="41.615073016" lon="2.498030044">
        <ele>421.19</ele>
        <time>2013-07-28T11:15:07Z</time>
      </trkpt>
      <trkpt lat="41.614932703" lon="2.497770457">
        <ele>417.83</ele>
        <time>2013-07-28T11:15:11Z</time>
      </trkpt>
      <trkpt lat="41.614902109" lon="2.497690745">
        <ele>416.87</ele>
        <time>2013-07-28T11:15:12Z</time>
      </trkpt>
      <trkpt lat="41.614802532" lon="2.497378938">
        <ele>413.98</ele>
        <time>2013-07-28T11:15:16Z</time>
      </trkpt>
      <trkpt lat="41.614742769" lon="2.497220101">
        <ele>413.50</ele>
        <time>2013-07-28T11:15:18Z</time>
      </trkpt>
      <trkpt lat="41.614648556" lon="2.497029664">
        <ele>412.06</ele>
        <time>2013-07-28T11:15:21Z</time>
      </trkpt>
      <trkpt lat="41.614457533" lon="2.496892871">
        <ele>412.06</ele>
        <time>2013-07-28T11:15:26Z</time>
      </trkpt>
      <trkpt lat="41.614398189" lon="2.496856578">
        <ele>412.54</ele>
        <time>2013-07-28T11:15:28Z</time>
      </trkpt>
      <trkpt lat="41.614254691" lon="2.496732609">
        <ele>412.54</ele>
        <time>2013-07-28T11:15:35Z</time>
      </trkpt>
      <trkpt lat="41.614187300" lon="2.496779883">
        <ele>413.50</ele>
        <time>2013-07-28T11:15:39Z</time>
      </trkpt>
      <trkpt lat="41.614194341" lon="2.496979959">
        <ele>414.47</ele>
        <time>2013-07-28T11:15:46Z</time>
      </trkpt>
      <trkpt lat="41.614170453" lon="2.497211803">
        <ele>414.95</ele>
        <time>2013-07-28T11:15:52Z</time>
      </trkpt>
      <trkpt lat="41.614008933" lon="2.497344572">
        <ele>413.98</ele>
        <time>2013-07-28T11:15:57Z</time>
      </trkpt>
      <trkpt lat="41.613979932" lon="2.497357732">
        <ele>413.98</ele>
        <time>2013-07-28T11:15:58Z</time>
      </trkpt>
      <trkpt lat="41.613759153" lon="2.497388410">
        <ele>413.98</ele>
        <time>2013-07-28T11:16:06Z</time>
      </trkpt>
      <trkpt lat="41.613606602" lon="2.497280954">
        <ele>413.98</ele>
        <time>2013-07-28T11:16:11Z</time>
      </trkpt>
      <trkpt lat="41.613395881" lon="2.497194536">
        <ele>412.06</ele>
        <time>2013-07-28T11:16:17Z</time>
      </trkpt>
      <trkpt lat="41.613351625" lon="2.497237368">
        <ele>411.58</ele>
        <time>2013-07-28T11:16:24Z</time>
      </trkpt>
      <trkpt lat="41.613350367" lon="2.497229321">
        <ele>411.58</ele>
        <time>2013-07-28T11:16:40Z</time>
      </trkpt>
      <trkpt lat="41.613362018" lon="2.497225884">
        <ele>411.10</ele>
        <time>2013-07-28T11:17:01Z</time>
      </trkpt>
      <trkpt lat="41.613358665" lon="2.497225465">
        <ele>411.10</ele>
        <time>2013-07-28T11:17:13Z</time>
      </trkpt>
      <trkpt lat="41.613338381" lon="2.497265447">
        <ele>411.10</ele>
        <time>2013-07-28T11:17:23Z</time>
      </trkpt>
      <trkpt lat="41.613192285" lon="2.497336526">
        <ele>412.54</ele>
        <time>2013-07-28T11:17:31Z</time>
      </trkpt>
      <trkpt lat="41.613073848" lon="2.497302327">
        <ele>413.98</ele>
        <time>2013-07-28T11:17:37Z</time>
      </trkpt>
      <trkpt lat="41.612989191" lon="2.497141646">
        <ele>414.47</ele>
        <time>2013-07-28T11:17:45Z</time>
      </trkpt>
      <trkpt lat="41.612922723" lon="2.496950623">
        <ele>415.91</ele>
        <time>2013-07-28T11:17:54Z</time>
      </trkpt>
      <trkpt lat="41.612869665" lon="2.496813076">
        <ele>417.35</ele>
        <time>2013-07-28T11:18:01Z</time>
      </trkpt>
      <trkpt lat="41.612824319" lon="2.496670919">
        <ele>419.27</ele>
        <time>2013-07-28T11:18:08Z</time>
      </trkpt>
      <trkpt lat="41.612812082" lon="2.496598667">
        <ele>419.75</ele>
        <time>2013-07-28T11:18:11Z</time>
      </trkpt>
      <trkpt lat="41.612757180" lon="2.496425077">
        <ele>420.23</ele>
        <time>2013-07-28T11:18:19Z</time>
      </trkpt>
      <trkpt lat="41.612685347" lon="2.496245202">
        <ele>422.16</ele>
        <time>2013-07-28T11:18:28Z</time>
      </trkpt>
      <trkpt lat="41.612614604" lon="2.496019058">
        <ele>423.60</ele>
        <time>2013-07-28T11:18:37Z</time>
      </trkpt>
      <trkpt lat="41.612586944" lon="2.495823927">
        <ele>425.52</ele>
        <time>2013-07-28T11:18:46Z</time>
      </trkpt>
      <trkpt lat="41.612578059" lon="2.495762991">
        <ele>426.00</ele>
        <time>2013-07-28T11:18:49Z</time>
      </trkpt>
      <trkpt lat="41.612512512" lon="2.495639777">
        <ele>426.00</ele>
        <time>2013-07-28T11:18:55Z</time>
      </trkpt>
      <trkpt lat="41.612354262" lon="2.495599963">
        <ele>422.64</ele>
        <time>2013-07-28T11:19:01Z</time>
      </trkpt>
      <trkpt lat="41.612188049" lon="2.495668024">
        <ele>421.68</ele>
        <time>2013-07-28T11:19:06Z</time>
      </trkpt>
      <trkpt lat="41.612103811" lon="2.495734157">
        <ele>421.68</ele>
        <time>2013-07-28T11:19:10Z</time>
      </trkpt>
      <trkpt lat="41.612081180" lon="2.495878242">
        <ele>420.71</ele>
        <time>2013-07-28T11:19:15Z</time>
      </trkpt>
      <trkpt lat="41.612008089" lon="2.496036241">
        <ele>419.75</ele>
        <time>2013-07-28T11:19:21Z</time>
      </trkpt>
      <trkpt lat="41.611967018" lon="2.496088125">
        <ele>419.75</ele>
        <time>2013-07-28T11:19:28Z</time>
      </trkpt>
      <trkpt lat="41.611950841" lon="2.496109750">
        <ele>419.75</ele>
        <time>2013-07-28T11:19:40Z</time>
      </trkpt>
      <trkpt lat="41.611949500" lon="2.496095417">
        <ele>419.75</ele>
        <time>2013-07-28T11:19:51Z</time>
      </trkpt>
      <trkpt lat="41.611962743" lon="2.496045545">
        <ele>419.75</ele>
        <time>2013-07-28T11:20:00Z</time>
      </trkpt>
      <trkpt lat="41.611988979" lon="2.496010509">
        <ele>419.75</ele>
        <time>2013-07-28T11:20:08Z</time>
      </trkpt>
      <trkpt lat="41.611995600" lon="2.496000953">
        <ele>419.75</ele>
        <time>2013-07-28T11:20:09Z</time>
      </trkpt>
      <trkpt lat="41.612012951" lon="2.495967006">
        <ele>420.71</ele>
        <time>2013-07-28T11:20:11Z</time>
      </trkpt>
      <trkpt lat="41.611983530" lon="2.495873381">
        <ele>421.19</ele>
        <time>2013-07-28T11:20:17Z</time>
      </trkpt>
      <trkpt lat="41.611937430" lon="2.495926103">
        <ele>421.19</ele>
        <time>2013-07-28T11:20:20Z</time>
      </trkpt>
      <trkpt lat="41.611796279" lon="2.496059543">
        <ele>423.12</ele>
        <time>2013-07-28T11:20:29Z</time>
      </trkpt>
      <trkpt lat="41.611679770" lon="2.496211758">
        <ele>423.60</ele>
        <time>2013-07-28T11:20:37Z</time>
      </trkpt>
      <trkpt lat="41.611490088" lon="2.496377301">
        <ele>422.64</ele>
        <time>2013-07-28T11:20:43Z</time>
      </trkpt>
      <trkpt lat="41.611315660" lon="2.496465981">
        <ele>422.16</ele>
        <time>2013-07-28T11:20:47Z</time>
      </trkpt>
      <trkpt lat="41.611086331" lon="2.496634625">
        <ele>421.68</ele>
        <time>2013-07-28T11:20:54Z</time>
      </trkpt>
      <trkpt lat="41.610961525" lon="2.496766221">
        <ele>423.60</ele>
        <time>2013-07-28T11:21:02Z</time>
      </trkpt>
      <trkpt lat="41.610916263" lon="2.496820117">
        <ele>424.08</ele>
        <time>2013-07-28T11:21:06Z</time>
      </trkpt>
      <trkpt lat="41.610842837" lon="2.496922627">
        <ele>425.52</ele>
        <time>2013-07-28T11:21:13Z</time>
      </trkpt>
      <trkpt lat="41.610710235" lon="2.497105939">
        <ele>427.44</ele>
        <time>2013-07-28T11:21:25Z</time>
      </trkpt>
      <trkpt lat="41.610587357" lon="2.497227142">
        <ele>428.89</ele>
        <time>2013-07-28T11:21:34Z</time>
      </trkpt>
      <trkpt lat="41.610483756" lon="2.497333592">
        <ele>429.37</ele>
        <time>2013-07-28T11:21:42Z</time>
      </trkpt>
      <trkpt lat="41.610429693" lon="2.497454710">
        <ele>429.85</ele>
        <time>2013-07-28T11:21:50Z</time>
      </trkpt>
      <trkpt lat="41.610394322" lon="2.497534925">
        <ele>431.29</ele>
        <time>2013-07-28T11:21:55Z</time>
      </trkpt>
      <trkpt lat="41.610376971" lon="2.497696277">
        <ele>433.69</ele>
        <time>2013-07-28T11:22:05Z</time>
      </trkpt>
      <trkpt lat="41.610295583" lon="2.497798620">
        <ele>436.10</ele>
        <time>2013-07-28T11:22:16Z</time>
      </trkpt>
      <trkpt lat="41.610190055" lon="2.497927198">
        <ele>438.50</ele>
        <time>2013-07-28T11:22:27Z</time>
      </trkpt>
      <trkpt lat="41.610103889" lon="2.498038594">
        <ele>439.94</ele>
        <time>2013-07-28T11:22:35Z</time>
      </trkpt>
      <trkpt lat="41.610079749" lon="2.498112941">
        <ele>441.38</ele>
        <time>2013-07-28T11:22:41Z</time>
      </trkpt>
      <trkpt lat="41.610096010" lon="2.498198353">
        <ele>442.82</ele>
        <time>2013-07-28T11:22:46Z</time>
      </trkpt>
      <trkpt lat="41.610109002" lon="2.498235233">
        <ele>443.79</ele>
        <time>2013-07-28T11:22:49Z</time>
      </trkpt>
      <trkpt lat="41.610186618" lon="2.498258200">
        <ele>445.71</ele>
        <time>2013-07-28T11:22:58Z</time>
      </trkpt>
      <trkpt lat="41.610266078" lon="2.498220313">
        <ele>446.67</ele>
        <time>2013-07-28T11:23:06Z</time>
      </trkpt>
      <trkpt lat="41.610350652" lon="2.498182008">
        <ele>447.63</ele>
        <time>2013-07-28T11:23:14Z</time>
      </trkpt>
      <trkpt lat="41.610523654" lon="2.498192737">
        <ele>446.19</ele>
        <time>2013-07-28T11:23:21Z</time>
      </trkpt>
      <trkpt lat="41.610569336" lon="2.498222493">
        <ele>446.19</ele>
        <time>2013-07-28T11:23:22Z</time>
      </trkpt>
      <trkpt lat="41.610605462" lon="2.498256439">
        <ele>446.19</ele>
        <time>2013-07-28T11:23:23Z</time>
      </trkpt>
      <trkpt lat="41.610767316" lon="2.498403542">
        <ele>447.63</ele>
        <time>2013-07-28T11:23:31Z</time>
      </trkpt>
      <trkpt lat="41.610976864" lon="2.498605127">
        <ele>445.71</ele>
        <time>2013-07-28T11:23:37Z</time>
      </trkpt>
      <trkpt lat="41.611118769" lon="2.498910312">
        <ele>443.79</ele>
        <time>2013-07-28T11:23:42Z</time>
      </trkpt>
      <trkpt lat="41.611163864" lon="2.499004357">
        <ele>442.34</ele>
        <time>2013-07-28T11:23:45Z</time>
      </trkpt>
      <trkpt lat="41.611180712" lon="2.499078620">
        <ele>441.86</ele>
        <time>2013-07-28T11:23:51Z</time>
      </trkpt>
      <trkpt lat="41.611211809" lon="2.499105191">
        <ele>441.86</ele>
        <time>2013-07-28T11:24:06Z</time>
      </trkpt>
      <trkpt lat="41.611211557" lon="2.499164367">
        <ele>442.34</ele>
        <time>2013-07-28T11:24:12Z</time>
      </trkpt>
      <trkpt lat="41.611201666" lon="2.499218011">
        <ele>443.79</ele>
        <time>2013-07-28T11:24:17Z</time>
      </trkpt>
      <trkpt lat="41.611185489" lon="2.499326808">
        <ele>446.67</ele>
        <time>2013-07-28T11:24:25Z</time>
      </trkpt>
      <trkpt lat="41.611201918" lon="2.499444490">
        <ele>449.07</ele>
        <time>2013-07-28T11:24:32Z</time>
      </trkpt>
      <trkpt lat="41.611201750" lon="2.499562340">
        <ele>451.00</ele>
        <time>2013-07-28T11:24:40Z</time>
      </trkpt>
      <trkpt lat="41.611199906" lon="2.499662420">
        <ele>451.00</ele>
        <time>2013-07-28T11:24:45Z</time>
      </trkpt>
      <trkpt lat="41.611182891" lon="2.499873560">
        <ele>451.48</ele>
        <time>2013-07-28T11:24:55Z</time>
      </trkpt>
      <trkpt lat="41.611145172" lon="2.500032481">
        <ele>452.44</ele>
        <time>2013-07-28T11:25:03Z</time>
      </trkpt>
      <trkpt lat="41.611091780" lon="2.500169525">
        <ele>453.40</ele>
        <time>2013-07-28T11:25:11Z</time>
      </trkpt>
      <trkpt lat="41.611066299" lon="2.500316627">
        <ele>455.32</ele>
        <time>2013-07-28T11:25:20Z</time>
      </trkpt>
      <trkpt lat="41.611008212" lon="2.500467418">
        <ele>455.80</ele>
        <time>2013-07-28T11:25:28Z</time>
      </trkpt>
      <trkpt lat="41.610923220" lon="2.500605133">
        <ele>457.24</ele>
        <time>2013-07-28T11:25:36Z</time>
      </trkpt>
      <trkpt lat="41.610832779" lon="2.500665734">
        <ele>459.17</ele>
        <time>2013-07-28T11:25:42Z</time>
      </trkpt>
      <trkpt lat="41.610759856" lon="2.500670679">
        <ele>460.13</ele>
        <time>2013-07-28T11:25:47Z</time>
      </trkpt>
      <trkpt lat="41.610727083" lon="2.500679564">
        <ele>460.61</ele>
        <time>2013-07-28T11:25:49Z</time>
      </trkpt>
      <trkpt lat="41.610578807" lon="2.500770005">
        <ele>459.17</ele>
        <time>2013-07-28T11:25:56Z</time>
      </trkpt>
      <trkpt lat="41.610526756" lon="2.500827337">
        <ele>458.69</ele>
        <time>2013-07-28T11:25:58Z</time>
      </trkpt>
      <trkpt lat="41.610332379" lon="2.500905372">
        <ele>455.80</ele>
        <time>2013-07-28T11:26:04Z</time>
      </trkpt>
      <trkpt lat="41.610083772" lon="2.500980390">
        <ele>451.96</ele>
        <time>2013-07-28T11:26:09Z</time>
      </trkpt>
      <trkpt lat="41.610006072" lon="2.501012158">
        <ele>450.52</ele>
        <time>2013-07-28T11:26:11Z</time>
      </trkpt>
      <trkpt lat="41.609985620" lon="2.501230003">
        <ele>450.03</ele>
        <time>2013-07-28T11:26:15Z</time>
      </trkpt>
      <trkpt lat="41.609969694" lon="2.501726380">
        <ele>445.23</ele>
        <time>2013-07-28T11:26:21Z</time>
      </trkpt>
      <trkpt lat="41.609955864" lon="2.501931736">
        <ele>443.31</ele>
        <time>2013-07-28T11:26:24Z</time>
      </trkpt>
      <trkpt lat="41.609810941" lon="2.502049167">
        <ele>442.34</ele>
        <time>2013-07-28T11:26:28Z</time>
      </trkpt>
      <trkpt lat="41.609556383" lon="2.502090238">
        <ele>440.42</ele>
        <time>2013-07-28T11:26:32Z</time>
      </trkpt>
      <trkpt lat="41.609243402" lon="2.502246058">
        <ele>438.50</ele>
        <time>2013-07-28T11:26:37Z</time>
      </trkpt>
      <trkpt lat="41.609180957" lon="2.502343958">
        <ele>438.50</ele>
        <time>2013-07-28T11:26:39Z</time>
      </trkpt>
      <trkpt lat="41.609148352" lon="2.502543867">
        <ele>438.50</ele>
        <time>2013-07-28T11:26:44Z</time>
      </trkpt>
      <trkpt lat="41.609178107" lon="2.502669260">
        <ele>439.94</ele>
        <time>2013-07-28T11:26:49Z</time>
      </trkpt>
      <trkpt lat="41.609196631" lon="2.502756432">
        <ele>439.94</ele>
        <time>2013-07-28T11:26:54Z</time>
      </trkpt>
      <trkpt lat="41.609257568" lon="2.502957597">
        <ele>436.58</ele>
        <time>2013-07-28T11:26:59Z</time>
      </trkpt>
      <trkpt lat="41.609383883" lon="2.503258843">
        <ele>433.21</ele>
        <time>2013-07-28T11:27:04Z</time>
      </trkpt>
      <trkpt lat="41.609482706" lon="2.503500745">
        <ele>430.33</ele>
        <time>2013-07-28T11:27:07Z</time>
      </trkpt>
      <trkpt lat="41.609616229" lon="2.504040120">
        <ele>427.92</ele>
        <time>2013-07-28T11:27:13Z</time>
      </trkpt>
      <trkpt lat="41.609728128" lon="2.504305324">
        <ele>427.92</ele>
        <time>2013-07-28T11:27:17Z</time>
      </trkpt>
      <trkpt lat="41.609763332" lon="2.504338851">
        <ele>427.92</ele>
        <time>2013-07-28T11:27:18Z</time>
      </trkpt>
      <trkpt lat="41.609943124" lon="2.504535407">
        <ele>428.40</ele>
        <time>2013-07-28T11:27:23Z</time>
      </trkpt>
      <trkpt lat="41.610040605" lon="2.504756689">
        <ele>426.00</ele>
        <time>2013-07-28T11:27:27Z</time>
      </trkpt>
      <trkpt lat="41.610154431" lon="2.505010409">
        <ele>420.71</ele>
        <time>2013-07-28T11:27:32Z</time>
      </trkpt>
      <trkpt lat="41.610189719" lon="2.505115351">
        <ele>419.27</ele>
        <time>2013-07-28T11:27:34Z</time>
      </trkpt>
      <trkpt lat="41.610219894" lon="2.505243510">
        <ele>417.35</ele>
        <time>2013-07-28T11:27:36Z</time>
      </trkpt>
      <trkpt lat="41.610241939" lon="2.505423134">
        <ele>414.95</ele>
        <time>2013-07-28T11:27:39Z</time>
      </trkpt>
      <trkpt lat="41.610255853" lon="2.505634274">
        <ele>412.54</ele>
        <time>2013-07-28T11:27:43Z</time>
      </trkpt>
      <trkpt lat="41.610254679" lon="2.505726978">
        <ele>411.10</ele>
        <time>2013-07-28T11:27:45Z</time>
      </trkpt>
      <trkpt lat="41.610201622" lon="2.506008191">
        <ele>408.22</ele>
        <time>2013-07-28T11:27:50Z</time>
      </trkpt>
      <trkpt lat="41.610191396" lon="2.506165436">
        <ele>406.29</ele>
        <time>2013-07-28T11:27:53Z</time>
      </trkpt>
      <trkpt lat="41.610125933" lon="2.506343132">
        <ele>402.93</ele>
        <time>2013-07-28T11:27:58Z</time>
      </trkpt>
      <trkpt lat="41.609832985" lon="2.506483529">
        <ele>399.08</ele>
        <time>2013-07-28T11:28:05Z</time>
      </trkpt>
      <trkpt lat="41.609673646" lon="2.506354950">
        <ele>396.68</ele>
        <time>2013-07-28T11:28:09Z</time>
      </trkpt>
      <trkpt lat="41.609549258" lon="2.506202987">
        <ele>396.20</ele>
        <time>2013-07-28T11:28:12Z</time>
      </trkpt>
      <trkpt lat="41.609332418" lon="2.506071558">
        <ele>394.28</ele>
        <time>2013-07-28T11:28:17Z</time>
      </trkpt>
      <trkpt lat="41.609263184" lon="2.506198712">
        <ele>393.80</ele>
        <time>2013-07-28T11:28:21Z</time>
      </trkpt>
      <trkpt lat="41.609265195" lon="2.506236011">
        <ele>393.80</ele>
        <time>2013-07-28T11:28:22Z</time>
      </trkpt>
      <trkpt lat="41.609292017" lon="2.506485457">
        <ele>396.20</ele>
        <time>2013-07-28T11:28:30Z</time>
      </trkpt>
      <trkpt lat="41.609247593" lon="2.506700369">
        <ele>397.16</ele>
        <time>2013-07-28T11:28:38Z</time>
      </trkpt>
      <trkpt lat="41.609183891" lon="2.506923579">
        <ele>397.64</ele>
        <time>2013-07-28T11:28:46Z</time>
      </trkpt>
      <trkpt lat="41.609133097" lon="2.507174533">
        <ele>399.08</ele>
        <time>2013-07-28T11:28:54Z</time>
      </trkpt>
      <trkpt lat="41.609114321" lon="2.507550126">
        <ele>399.08</ele>
        <time>2013-07-28T11:29:02Z</time>
      </trkpt>
      <trkpt lat="41.609149190" lon="2.507765290">
        <ele>399.08</ele>
        <time>2013-07-28T11:29:07Z</time>
      </trkpt>
      <trkpt lat="41.609230243" lon="2.507989170">
        <ele>399.57</ele>
        <time>2013-07-28T11:29:14Z</time>
      </trkpt>
      <trkpt lat="41.609253042" lon="2.508057902">
        <ele>399.57</ele>
        <time>2013-07-28T11:29:16Z</time>
      </trkpt>
      <trkpt lat="41.609362845" lon="2.508131746">
        <ele>399.57</ele>
        <time>2013-07-28T11:29:21Z</time>
      </trkpt>
      <trkpt lat="41.609438114" lon="2.508226965">
        <ele>398.60</ele>
        <time>2013-07-28T11:29:25Z</time>
      </trkpt>
      <trkpt lat="41.609663084" lon="2.508477919">
        <ele>397.64</ele>
        <time>2013-07-28T11:29:35Z</time>
      </trkpt>
      <trkpt lat="41.609886294" lon="2.508652095">
        <ele>396.68</ele>
        <time>2013-07-28T11:29:42Z</time>
      </trkpt>
      <trkpt lat="41.610095674" lon="2.508871114">
        <ele>396.20</ele>
        <time>2013-07-28T11:29:50Z</time>
      </trkpt>
      <trkpt lat="41.610346209" lon="2.509161966">
        <ele>395.72</ele>
        <time>2013-07-28T11:30:01Z</time>
      </trkpt>
      <trkpt lat="41.610401781" lon="2.509240421">
        <ele>397.16</ele>
        <time>2013-07-28T11:30:04Z</time>
      </trkpt>
      <trkpt lat="41.610502448" lon="2.509409567">
        <ele>398.60</ele>
        <time>2013-07-28T11:30:11Z</time>
      </trkpt>
      <trkpt lat="41.610571850" lon="2.509580726">
        <ele>400.05</ele>
        <time>2013-07-28T11:30:18Z</time>
      </trkpt>
      <trkpt lat="41.610631781" lon="2.509798488">
        <ele>401.49</ele>
        <time>2013-07-28T11:30:26Z</time>
      </trkpt>
      <trkpt lat="41.610730101" lon="2.510088502">
        <ele>401.49</ele>
        <time>2013-07-28T11:30:35Z</time>
      </trkpt>
      <trkpt lat="41.610774441" lon="2.510211799">
        <ele>401.49</ele>
        <time>2013-07-28T11:30:38Z</time>
      </trkpt>
      <trkpt lat="41.610965464" lon="2.510386730">
        <ele>399.08</ele>
        <time>2013-07-28T11:30:44Z</time>
      </trkpt>
      <trkpt lat="41.611106364" lon="2.510565180">
        <ele>397.64</ele>
        <time>2013-07-28T11:30:51Z</time>
      </trkpt>
      <trkpt lat="41.611198314" lon="2.510758719">
        <ele>396.68</ele>
        <time>2013-07-28T11:30:57Z</time>
      </trkpt>
      <trkpt lat="41.611318426" lon="2.510962566">
        <ele>395.72</ele>
        <time>2013-07-28T11:31:02Z</time>
      </trkpt>
      <trkpt lat="41.611434851" lon="2.511128947">
        <ele>394.76</ele>
        <time>2013-07-28T11:31:06Z</time>
      </trkpt>
      <trkpt lat="41.611624282" lon="2.511432288">
        <ele>394.28</ele>
        <time>2013-07-28T11:31:14Z</time>
      </trkpt>
      <trkpt lat="41.611675160" lon="2.511538571">
        <ele>394.28</ele>
        <time>2013-07-28T11:31:18Z</time>
      </trkpt>
      <trkpt lat="41.611868112" lon="2.511564136">
        <ele>391.39</ele>
        <time>2013-07-28T11:31:24Z</time>
      </trkpt>
      <trkpt lat="41.612070451" lon="2.511571009">
        <ele>388.99</ele>
        <time>2013-07-28T11:31:30Z</time>
      </trkpt>
      <trkpt lat="41.612186624" lon="2.511735043">
        <ele>386.11</ele>
        <time>2013-07-28T11:31:35Z</time>
      </trkpt>
      <trkpt lat="41.612339845" lon="2.512102421">
        <ele>383.70</ele>
        <time>2013-07-28T11:31:41Z</time>
      </trkpt>
      <trkpt lat="41.612409499" lon="2.512304258">
        <ele>382.26</ele>
        <time>2013-07-28T11:31:44Z</time>
      </trkpt>
      <trkpt lat="41.612530701" lon="2.512676666">
        <ele>381.30</ele>
        <time>2013-07-28T11:31:50Z</time>
      </trkpt>
      <trkpt lat="41.612560205" lon="2.512840783">
        <ele>381.30</ele>
        <time>2013-07-28T11:31:54Z</time>
      </trkpt>
      <trkpt lat="41.612589039" lon="2.513117386">
        <ele>380.34</ele>
        <time>2013-07-28T11:31:58Z</time>
      </trkpt>
      <trkpt lat="41.612550650" lon="2.513285946">
        <ele>380.34</ele>
        <time>2013-07-28T11:32:02Z</time>
      </trkpt>
      <trkpt lat="41.612538748" lon="2.513312433">
        <ele>380.34</ele>
        <time>2013-07-28T11:32:03Z</time>
      </trkpt>
      <trkpt lat="41.612389550" lon="2.513533715">
        <ele>380.34</ele>
        <time>2013-07-28T11:32:10Z</time>
      </trkpt>
      <trkpt lat="41.612217218" lon="2.513837056">
        <ele>380.34</ele>
        <time>2013-07-28T11:32:17Z</time>
      </trkpt>
      <trkpt lat="41.612141026" lon="2.514050124">
        <ele>380.34</ele>
        <time>2013-07-28T11:32:22Z</time>
      </trkpt>
      <trkpt lat="41.612089897" lon="2.514191276">
        <ele>381.30</ele>
        <time>2013-07-28T11:32:26Z</time>
      </trkpt>
      <trkpt lat="41.612021249" lon="2.514419515">
        <ele>381.78</ele>
        <time>2013-07-28T11:32:31Z</time>
      </trkpt>
      <trkpt lat="41.612003647" lon="2.514479613">
        <ele>381.78</ele>
        <time>2013-07-28T11:32:32Z</time>
      </trkpt>
      <trkpt lat="41.611929216" lon="2.514667200">
        <ele>381.78</ele>
        <time>2013-07-28T11:32:35Z</time>
      </trkpt>
      <trkpt lat="41.611865262" lon="2.514902732">
        <ele>380.34</ele>
        <time>2013-07-28T11:32:39Z</time>
      </trkpt>
      <trkpt lat="41.611819245" lon="2.515183106">
        <ele>379.86</ele>
        <time>2013-07-28T11:32:44Z</time>
      </trkpt>
      <trkpt lat="41.611828884" lon="2.515383266">
        <ele>381.30</ele>
        <time>2013-07-28T11:32:49Z</time>
      </trkpt>
      <trkpt lat="41.611933993" lon="2.515464570">
        <ele>381.30</ele>
        <time>2013-07-28T11:32:54Z</time>
      </trkpt>
      <trkpt lat="41.612051843" lon="2.515530452">
        <ele>379.86</ele>
        <time>2013-07-28T11:33:00Z</time>
      </trkpt>
      <trkpt lat="41.612076905" lon="2.515518801">
        <ele>379.86</ele>
        <time>2013-07-28T11:33:01Z</time>
      </trkpt>
      <trkpt lat="41.612100458" lon="2.515505558">
        <ele>379.38</ele>
        <time>2013-07-28T11:33:02Z</time>
      </trkpt>
      <trkpt lat="41.612208501" lon="2.515472701">
        <ele>377.45</ele>
        <time>2013-07-28T11:33:06Z</time>
      </trkpt>
      <trkpt lat="41.612256110" lon="2.515486866">
        <ele>376.97</ele>
        <time>2013-07-28T11:33:09Z</time>
      </trkpt>
      <trkpt lat="41.612272371" lon="2.515527016">
        <ele>375.05</ele>
        <time>2013-07-28T11:33:12Z</time>
      </trkpt>
      <trkpt lat="41.612219816" lon="2.515651906">
        <ele>372.65</ele>
        <time>2013-07-28T11:33:16Z</time>
      </trkpt>
      <trkpt lat="41.612135327" lon="2.515917109">
        <ele>368.80</ele>
        <time>2013-07-28T11:33:21Z</time>
      </trkpt>
      <trkpt lat="41.612065841" lon="2.516037138">
        <ele>367.84</ele>
        <time>2013-07-28T11:33:26Z</time>
      </trkpt>
      <trkpt lat="41.611887055" lon="2.516255235">
        <ele>365.92</ele>
        <time>2013-07-28T11:33:32Z</time>
      </trkpt>
      <trkpt lat="41.611876577" lon="2.516326482">
        <ele>364.96</ele>
        <time>2013-07-28T11:33:34Z</time>
      </trkpt>
      <trkpt lat="41.611874482" lon="2.516356237">
        <ele>364.00</ele>
        <time>2013-07-28T11:33:35Z</time>
      </trkpt>
      <trkpt lat="41.611885797" lon="2.516427819">
        <ele>362.55</ele>
        <time>2013-07-28T11:33:42Z</time>
      </trkpt>
      <trkpt lat="41.611882696" lon="2.516485822">
        <ele>362.55</ele>
        <time>2013-07-28T11:33:55Z</time>
      </trkpt>
      <trkpt lat="41.611867944" lon="2.516678270">
        <ele>361.11</ele>
        <time>2013-07-28T11:34:03Z</time>
      </trkpt>
      <trkpt lat="41.611867106" lon="2.516797042">
        <ele>360.63</ele>
        <time>2013-07-28T11:34:07Z</time>
      </trkpt>
      <trkpt lat="41.611865178" lon="2.516939618">
        <ele>360.15</ele>
        <time>2013-07-28T11:34:12Z</time>
      </trkpt>
      <trkpt lat="41.611787226" lon="2.517116225">
        <ele>358.23</ele>
        <time>2013-07-28T11:34:18Z</time>
      </trkpt>
      <trkpt lat="41.611731151" lon="2.517181184">
        <ele>357.27</ele>
        <time>2013-07-28T11:34:20Z</time>
      </trkpt>
      <trkpt lat="41.611708353" lon="2.517247317">
        <ele>356.31</ele>
        <time>2013-07-28T11:34:22Z</time>
      </trkpt>
      <trkpt lat="41.611713214" lon="2.517352175">
        <ele>354.86</ele>
        <time>2013-07-28T11:34:28Z</time>
      </trkpt>
      <trkpt lat="41.611674406" lon="2.517528363">
        <ele>352.46</ele>
        <time>2013-07-28T11:34:35Z</time>
      </trkpt>
      <trkpt lat="41.611650517" lon="2.517760541">
        <ele>349.58</ele>
        <time>2013-07-28T11:34:42Z</time>
      </trkpt>
      <trkpt lat="41.611624031" lon="2.517941171">
        <ele>347.65</ele>
        <time>2013-07-28T11:34:47Z</time>
      </trkpt>
      <trkpt lat="41.611614727" lon="2.518034881">
        <ele>347.17</ele>
        <time>2013-07-28T11:34:50Z</time>
      </trkpt>
      <trkpt lat="41.611622187" lon="2.518240908">
        <ele>344.77</ele>
        <time>2013-07-28T11:34:56Z</time>
      </trkpt>
      <trkpt lat="41.611616822" lon="2.518270161">
        <ele>344.77</ele>
        <time>2013-07-28T11:34:57Z</time>
      </trkpt>
      <trkpt lat="41.611628557" lon="2.518344928">
        <ele>343.33</ele>
        <time>2013-07-28T11:35:01Z</time>
      </trkpt>
      <trkpt lat="41.611684548" lon="2.518253397">
        <ele>341.89</ele>
        <time>2013-07-28T11:35:07Z</time>
      </trkpt>
      <trkpt lat="41.611758644" lon="2.518100595">
        <ele>339.48</ele>
        <time>2013-07-28T11:35:12Z</time>
      </trkpt>
      <trkpt lat="41.611855455" lon="2.517923653">
        <ele>336.60</ele>
        <time>2013-07-28T11:35:17Z</time>
      </trkpt>
      <trkpt lat="41.611948578" lon="2.517769342">
        <ele>334.68</ele>
        <time>2013-07-28T11:35:21Z</time>
      </trkpt>
      <trkpt lat="41.611968527" lon="2.517740425">
        <ele>334.20</ele>
        <time>2013-07-28T11:35:22Z</time>
      </trkpt>
      <trkpt lat="41.612149241" lon="2.517667251">
        <ele>332.27</ele>
        <time>2013-07-28T11:35:28Z</time>
      </trkpt>
      <trkpt lat="41.612314448" lon="2.517516544">
        <ele>330.83</ele>
        <time>2013-07-28T11:35:33Z</time>
      </trkpt>
      <trkpt lat="41.612407236" lon="2.517313535">
        <ele>329.87</ele>
        <time>2013-07-28T11:35:38Z</time>
      </trkpt>
      <trkpt lat="41.612470854" lon="2.517170288">
        <ele>329.39</ele>
        <time>2013-07-28T11:35:41Z</time>
      </trkpt>
      <trkpt lat="41.612598259" lon="2.516872814">
        <ele>328.43</ele>
        <time>2013-07-28T11:35:47Z</time>
      </trkpt>
      <trkpt lat="41.612680234" lon="2.516850770">
        <ele>328.43</ele>
        <time>2013-07-28T11:35:49Z</time>
      </trkpt>
      <trkpt lat="41.612824068" lon="2.516841047">
        <ele>327.47</ele>
        <time>2013-07-28T11:35:52Z</time>
      </trkpt>
      <trkpt lat="41.612970499" lon="2.516791845">
        <ele>326.50</ele>
        <time>2013-07-28T11:35:55Z</time>
      </trkpt>
      <trkpt lat="41.613118775" lon="2.516758233">
        <ele>324.58</ele>
        <time>2013-07-28T11:36:00Z</time>
      </trkpt>
      <trkpt lat="41.613100754" lon="2.516806932">
        <ele>323.62</ele>
        <time>2013-07-28T11:36:03Z</time>
      </trkpt>
      <trkpt lat="41.612903109" lon="2.516930314">
        <ele>321.22</ele>
        <time>2013-07-28T11:36:10Z</time>
      </trkpt>
      <trkpt lat="41.612730442" lon="2.516970379">
        <ele>320.26</ele>
        <time>2013-07-28T11:36:17Z</time>
      </trkpt>
      <trkpt lat="41.612703704" lon="2.517005500">
        <ele>320.26</ele>
        <time>2013-07-28T11:36:19Z</time>
      </trkpt>
      <trkpt lat="41.612688197" lon="2.517301297">
        <ele>319.30</ele>
        <time>2013-07-28T11:36:25Z</time>
      </trkpt>
      <trkpt lat="41.612686102" lon="2.517351756">
        <ele>318.81</ele>
        <time>2013-07-28T11:36:26Z</time>
      </trkpt>
      <trkpt lat="41.612651317" lon="2.517577564">
        <ele>317.85</ele>
        <time>2013-07-28T11:36:30Z</time>
      </trkpt>
      <trkpt lat="41.612514692" lon="2.517789040">
        <ele>314.49</ele>
        <time>2013-07-28T11:36:35Z</time>
      </trkpt>
      <trkpt lat="41.612495078" lon="2.517834889">
        <ele>314.49</ele>
        <time>2013-07-28T11:36:36Z</time>
      </trkpt>
      <trkpt lat="41.612352502" lon="2.518072516">
        <ele>310.16</ele>
        <time>2013-07-28T11:36:42Z</time>
      </trkpt>
      <trkpt lat="41.612360045" lon="2.518117527">
        <ele>310.16</ele>
        <time>2013-07-28T11:36:43Z</time>
      </trkpt>
      <trkpt lat="41.612403380" lon="2.518317938">
        <ele>307.76</ele>
        <time>2013-07-28T11:36:47Z</time>
      </trkpt>
      <trkpt lat="41.612444703" lon="2.518296480">
        <ele>306.32</ele>
        <time>2013-07-28T11:36:52Z</time>
      </trkpt>
      <trkpt lat="41.612539502" lon="2.518174943">
        <ele>303.43</ele>
        <time>2013-07-28T11:36:57Z</time>
      </trkpt>
      <trkpt lat="41.612634553" lon="2.518060446">
        <ele>301.03</ele>
        <time>2013-07-28T11:37:01Z</time>
      </trkpt>
      <trkpt lat="41.612742763" lon="2.518070337">
        <ele>297.67</ele>
        <time>2013-07-28T11:37:05Z</time>
      </trkpt>
      <trkpt lat="41.612819877" lon="2.518062458">
        <ele>295.74</ele>
        <time>2013-07-28T11:37:08Z</time>
      </trkpt>
      <trkpt lat="41.612846950" lon="2.518050304">
        <ele>294.78</ele>
        <time>2013-07-28T11:37:09Z</time>
      </trkpt>
      <trkpt lat="41.612931775" lon="2.517987356">
        <ele>291.90</ele>
        <time>2013-07-28T11:37:13Z</time>
      </trkpt>
      <trkpt lat="41.612990197" lon="2.517760122">
        <ele>290.46</ele>
        <time>2013-07-28T11:37:18Z</time>
      </trkpt>
      <trkpt lat="41.613165127" lon="2.517659456">
        <ele>289.49</ele>
        <time>2013-07-28T11:37:23Z</time>
      </trkpt>
      <trkpt lat="41.613317426" lon="2.517724667">
        <ele>289.97</ele>
        <time>2013-07-28T11:37:28Z</time>
      </trkpt>
      <trkpt lat="41.613420105" lon="2.517853078">
        <ele>288.05</ele>
        <time>2013-07-28T11:37:31Z</time>
      </trkpt>
      <trkpt lat="41.613657480" lon="2.517891970">
        <ele>285.17</ele>
        <time>2013-07-28T11:37:36Z</time>
      </trkpt>
      <trkpt lat="41.613926036" lon="2.517906135">
        <ele>280.84</ele>
        <time>2013-07-28T11:37:42Z</time>
      </trkpt>
      <trkpt lat="41.614067355" lon="2.517922983">
        <ele>277.48</ele>
        <time>2013-07-28T11:37:47Z</time>
      </trkpt>
      <trkpt lat="41.614180260" lon="2.517937651">
        <ele>276.04</ele>
        <time>2013-07-28T11:37:51Z</time>
      </trkpt>
      <trkpt lat="41.614272880" lon="2.517939495">
        <ele>274.59</ele>
        <time>2013-07-28T11:37:54Z</time>
      </trkpt>
      <trkpt lat="41.614407158" lon="2.517936980">
        <ele>271.71</ele>
        <time>2013-07-28T11:37:58Z</time>
      </trkpt>
      <trkpt lat="41.614569431" lon="2.517914685">
        <ele>269.31</ele>
        <time>2013-07-28T11:38:02Z</time>
      </trkpt>
      <trkpt lat="41.614730364" lon="2.517830530">
        <ele>266.42</ele>
        <time>2013-07-28T11:38:07Z</time>
      </trkpt>
      <trkpt lat="41.614744445" lon="2.517809408">
        <ele>265.46</ele>
        <time>2013-07-28T11:38:08Z</time>
      </trkpt>
      <trkpt lat="41.614772692" lon="2.517719722">
        <ele>264.02</ele>
        <time>2013-07-28T11:38:14Z</time>
      </trkpt>
      <trkpt lat="41.614788031" lon="2.517675800">
        <ele>262.58</ele>
        <time>2013-07-28T11:38:17Z</time>
      </trkpt>
      <trkpt lat="41.614828348" lon="2.517491482">
        <ele>258.73</ele>
        <time>2013-07-28T11:38:22Z</time>
      </trkpt>
      <trkpt lat="41.614841173" lon="2.517429289">
        <ele>258.73</ele>
        <time>2013-07-28T11:38:23Z</time>
      </trkpt>
      <trkpt lat="41.614898924" lon="2.517068364">
        <ele>255.37</ele>
        <time>2013-07-28T11:38:29Z</time>
      </trkpt>
      <trkpt lat="41.614910072" lon="2.516977672">
        <ele>254.41</ele>
        <time>2013-07-28T11:38:31Z</time>
      </trkpt>
      <trkpt lat="41.614976708" lon="2.517042548">
        <ele>253.44</ele>
        <time>2013-07-28T11:38:35Z</time>
      </trkpt>
      <trkpt lat="41.615026329" lon="2.517232901">
        <ele>252.00</ele>
        <time>2013-07-28T11:38:38Z</time>
      </trkpt>
      <trkpt lat="41.615061533" lon="2.517396767">
        <ele>250.08</ele>
        <time>2013-07-28T11:38:41Z</time>
      </trkpt>
      <trkpt lat="41.615122888" lon="2.517462732">
        <ele>247.68</ele>
        <time>2013-07-28T11:38:45Z</time>
      </trkpt>
      <trkpt lat="41.615134875" lon="2.517430881">
        <ele>247.20</ele>
        <time>2013-07-28T11:38:46Z</time>
      </trkpt>
      <trkpt lat="41.615163289" lon="2.517273637">
        <ele>245.27</ele>
        <time>2013-07-28T11:38:49Z</time>
      </trkpt>
      <trkpt lat="41.615180724" lon="2.517166348">
        <ele>244.79</ele>
        <time>2013-07-28T11:38:51Z</time>
      </trkpt>
      <trkpt lat="41.615283653" lon="2.517113794">
        <ele>243.35</ele>
        <time>2013-07-28T11:38:55Z</time>
      </trkpt>
      <trkpt lat="41.615308128" lon="2.517241785">
        <ele>241.91</ele>
        <time>2013-07-28T11:38:58Z</time>
      </trkpt>
      <trkpt lat="41.615327994" lon="2.517361647">
        <ele>240.95</ele>
        <time>2013-07-28T11:39:00Z</time>
      </trkpt>
      <trkpt lat="41.615371412" lon="2.517761128">
        <ele>237.10</ele>
        <time>2013-07-28T11:39:06Z</time>
      </trkpt>
      <trkpt lat="41.615393540" lon="2.517705472">
        <ele>236.14</ele>
        <time>2013-07-28T11:39:09Z</time>
      </trkpt>
      <trkpt lat="41.615443329" lon="2.517508917">
        <ele>234.22</ele>
        <time>2013-07-28T11:39:12Z</time>
      </trkpt>
      <trkpt lat="41.615573248" lon="2.517094683">
        <ele>229.89</ele>
        <time>2013-07-28T11:39:17Z</time>
      </trkpt>
      <trkpt lat="41.615628736" lon="2.516853452">
        <ele>226.53</ele>
        <time>2013-07-28T11:39:21Z</time>
      </trkpt>
      <trkpt lat="41.615717752" lon="2.516792264">
        <ele>225.57</ele>
        <time>2013-07-28T11:39:24Z</time>
      </trkpt>
      <trkpt lat="41.615783885" lon="2.516801065">
        <ele>225.09</ele>
        <time>2013-07-28T11:39:25Z</time>
      </trkpt>
      <trkpt lat="41.615987063" lon="2.516953532">
        <ele>221.72</ele>
        <time>2013-07-28T11:39:30Z</time>
      </trkpt>
      <trkpt lat="41.615994523" lon="2.516992256">
        <ele>220.76</ele>
        <time>2013-07-28T11:39:31Z</time>
      </trkpt>
      <trkpt lat="41.616029894" lon="2.517237930">
        <ele>220.28</ele>
        <time>2013-07-28T11:39:38Z</time>
      </trkpt>
      <trkpt lat="41.616033582" lon="2.517490896">
        <ele>218.36</ele>
        <time>2013-07-28T11:39:44Z</time>
      </trkpt>
      <trkpt lat="41.616064260" lon="2.517767163">
        <ele>217.40</ele>
        <time>2013-07-28T11:39:50Z</time>
      </trkpt>
      <trkpt lat="41.616057638" lon="2.517921306">
        <ele>216.91</ele>
        <time>2013-07-28T11:39:54Z</time>
      </trkpt>
      <trkpt lat="41.616064008" lon="2.518161029">
        <ele>215.47</ele>
        <time>2013-07-28T11:40:00Z</time>
      </trkpt>
      <trkpt lat="41.616097536" lon="2.518432183">
        <ele>215.47</ele>
        <time>2013-07-28T11:40:07Z</time>
      </trkpt>
      <trkpt lat="41.616221840" lon="2.518588171">
        <ele>214.51</ele>
        <time>2013-07-28T11:40:13Z</time>
      </trkpt>
      <trkpt lat="41.616266851" lon="2.518757066">
        <ele>213.55</ele>
        <time>2013-07-28T11:40:18Z</time>
      </trkpt>
      <trkpt lat="41.616266431" lon="2.519030064">
        <ele>213.07</ele>
        <time>2013-07-28T11:40:24Z</time>
      </trkpt>
      <trkpt lat="41.616306078" lon="2.519429462">
        <ele>211.15</ele>
        <time>2013-07-28T11:40:31Z</time>
      </trkpt>
      <trkpt lat="41.616328290" lon="2.519495679">
        <ele>211.15</ele>
        <time>2013-07-28T11:40:32Z</time>
      </trkpt>
      <trkpt lat="41.616352262" lon="2.519780412">
        <ele>209.70</ele>
        <time>2013-07-28T11:40:37Z</time>
      </trkpt>
      <trkpt lat="41.616278418" lon="2.520050729">
        <ele>208.26</ele>
        <time>2013-07-28T11:40:43Z</time>
      </trkpt>
      <trkpt lat="41.616182948" lon="2.520359015">
        <ele>207.78</ele>
        <time>2013-07-28T11:40:49Z</time>
      </trkpt>
      <trkpt lat="41.616084125" lon="2.520714324">
        <ele>206.82</ele>
        <time>2013-07-28T11:40:56Z</time>
      </trkpt>
      <trkpt lat="41.615968455" lon="2.521244312">
        <ele>205.86</ele>
        <time>2013-07-28T11:41:05Z</time>
      </trkpt>
      <trkpt lat="41.615936520" lon="2.521519574">
        <ele>205.86</ele>
        <time>2013-07-28T11:41:09Z</time>
      </trkpt>
      <trkpt lat="41.615905255" lon="2.521714704">
        <ele>205.38</ele>
        <time>2013-07-28T11:41:12Z</time>
      </trkpt>
      <trkpt lat="41.615862927" lon="2.522010334">
        <ele>203.94</ele>
        <time>2013-07-28T11:41:17Z</time>
      </trkpt>
      <trkpt lat="41.615838619" lon="2.522288194">
        <ele>202.98</ele>
        <time>2013-07-28T11:41:21Z</time>
      </trkpt>
      <trkpt lat="41.615752705" lon="2.522874760">
        <ele>201.53</ele>
        <time>2013-07-28T11:41:29Z</time>
      </trkpt>
      <trkpt lat="41.615675926" lon="2.523515975">
        <ele>199.61</ele>
        <time>2013-07-28T11:41:37Z</time>
      </trkpt>
      <trkpt lat="41.615659749" lon="2.523666095">
        <ele>199.61</ele>
        <time>2013-07-28T11:41:39Z</time>
      </trkpt>
      <trkpt lat="41.615645249" lon="2.523966670">
        <ele>198.17</ele>
        <time>2013-07-28T11:41:43Z</time>
      </trkpt>
      <trkpt lat="41.615571236" lon="2.524652394">
        <ele>194.80</ele>
        <time>2013-07-28T11:41:51Z</time>
      </trkpt>
      <trkpt lat="41.615521196" lon="2.525097892">
        <ele>193.36</ele>
        <time>2013-07-28T11:41:56Z</time>
      </trkpt>
      <trkpt lat="41.615498146" lon="2.525468037">
        <ele>191.44</ele>
        <time>2013-07-28T11:42:00Z</time>
      </trkpt>
      <trkpt lat="41.615522118" lon="2.526191143">
        <ele>190.00</ele>
        <time>2013-07-28T11:42:08Z</time>
      </trkpt>
      <trkpt lat="41.615542570" lon="2.526879884">
        <ele>188.56</ele>
        <time>2013-07-28T11:42:15Z</time>
      </trkpt>
      <trkpt lat="41.615435282" lon="2.527619839">
        <ele>185.67</ele>
        <time>2013-07-28T11:42:22Z</time>
      </trkpt>
      <trkpt lat="41.615398066" lon="2.527831230">
        <ele>185.19</ele>
        <time>2013-07-28T11:42:24Z</time>
      </trkpt>
      <trkpt lat="41.615207965" lon="2.528765896">
        <ele>182.31</ele>
        <time>2013-07-28T11:42:33Z</time>
      </trkpt>
      <trkpt lat="41.615169743" lon="2.529336536">
        <ele>180.87</ele>
        <time>2013-07-28T11:42:39Z</time>
      </trkpt>
      <trkpt lat="41.615152896" lon="2.530143043">
        <ele>178.94</ele>
        <time>2013-07-28T11:42:47Z</time>
      </trkpt>
      <trkpt lat="41.615125738" lon="2.530963212">
        <ele>177.02</ele>
        <time>2013-07-28T11:42:55Z</time>
      </trkpt>
      <trkpt lat="41.615100760" lon="2.531332268">
        <ele>175.10</ele>
        <time>2013-07-28T11:42:59Z</time>
      </trkpt>
      <trkpt lat="41.615111908" lon="2.531460678">
        <ele>174.14</ele>
        <time>2013-07-28T11:43:01Z</time>
      </trkpt>
      <trkpt lat="41.615146358" lon="2.531544916">
        <ele>173.66</ele>
        <time>2013-07-28T11:43:03Z</time>
      </trkpt>
      <trkpt lat="41.615208971" lon="2.531889496">
        <ele>172.69</ele>
        <time>2013-07-28T11:43:08Z</time>
      </trkpt>
      <trkpt lat="41.615084583" lon="2.532545883">
        <ele>170.77</ele>
        <time>2013-07-28T11:43:17Z</time>
      </trkpt>
      <trkpt lat="41.614915688" lon="2.533141837">
        <ele>169.33</ele>
        <time>2013-07-28T11:43:25Z</time>
      </trkpt>
      <trkpt lat="41.614680240" lon="2.533853460">
        <ele>166.93</ele>
        <time>2013-07-28T11:43:34Z</time>
      </trkpt>
      <trkpt lat="41.614448397" lon="2.534561396">
        <ele>164.52</ele>
        <time>2013-07-28T11:43:43Z</time>
      </trkpt>
      <trkpt lat="41.614254272" lon="2.535187272">
        <ele>162.60</ele>
        <time>2013-07-28T11:43:51Z</time>
      </trkpt>
      <trkpt lat="41.614182439" lon="2.535409225">
        <ele>161.64</ele>
        <time>2013-07-28T11:43:54Z</time>
      </trkpt>
      <trkpt lat="41.614015890" lon="2.535947846">
        <ele>160.20</ele>
        <time>2013-07-28T11:44:02Z</time>
      </trkpt>
      <trkpt lat="41.613946404" lon="2.536183713">
        <ele>159.24</ele>
        <time>2013-07-28T11:44:07Z</time>
      </trkpt>
      <trkpt lat="41.613855712" lon="2.536382197">
        <ele>158.75</ele>
        <time>2013-07-28T11:44:13Z</time>
      </trkpt>
      <trkpt lat="41.613823107" lon="2.536446151">
        <ele>157.79</ele>
        <time>2013-07-28T11:44:19Z</time>
      </trkpt>
      <trkpt lat="41.613800056" lon="2.536450341">
        <ele>157.79</ele>
        <time>2013-07-28T11:44:30Z</time>
      </trkpt>
      <trkpt lat="41.613795279" lon="2.536491329">
        <ele>157.79</ele>
        <time>2013-07-28T11:44:33Z</time>
      </trkpt>
      <trkpt lat="41.613668796" lon="2.536687801">
        <ele>157.79</ele>
        <time>2013-07-28T11:44:40Z</time>
      </trkpt>
      <trkpt lat="41.613549605" lon="2.536878405">
        <ele>157.31</ele>
        <time>2013-07-28T11:44:45Z</time>
      </trkpt>
      <trkpt lat="41.613401329" lon="2.537154254">
        <ele>155.87</ele>
        <time>2013-07-28T11:44:53Z</time>
      </trkpt>
      <trkpt lat="41.613383895" lon="2.537197169">
        <ele>155.87</ele>
        <time>2013-07-28T11:44:55Z</time>
      </trkpt>
      <trkpt lat="41.613355564" lon="2.537288197">
        <ele>155.87</ele>
        <time>2013-07-28T11:45:00Z</time>
      </trkpt>
      <trkpt lat="41.613207288" lon="2.537515514">
        <ele>155.39</ele>
        <time>2013-07-28T11:45:08Z</time>
      </trkpt>
      <trkpt lat="41.613055324" lon="2.537703771">
        <ele>154.43</ele>
        <time>2013-07-28T11:45:15Z</time>
      </trkpt>
      <trkpt lat="41.612947617" lon="2.537783399">
        <ele>153.95</ele>
        <time>2013-07-28T11:45:22Z</time>
      </trkpt>
      <trkpt lat="41.612835635" lon="2.537864452">
        <ele>152.99</ele>
        <time>2013-07-28T11:45:29Z</time>
      </trkpt>
      <trkpt lat="41.612715019" lon="2.537983392">
        <ele>152.51</ele>
        <time>2013-07-28T11:45:36Z</time>
      </trkpt>
      <trkpt lat="41.612594487" lon="2.538120017">
        <ele>152.03</ele>
        <time>2013-07-28T11:45:42Z</time>
      </trkpt>
      <trkpt lat="41.612414109" lon="2.538296288">
        <ele>151.54</ele>
        <time>2013-07-28T11:45:49Z</time>
      </trkpt>
      <trkpt lat="41.612275221" lon="2.538480690">
        <ele>151.06</ele>
        <time>2013-07-28T11:45:55Z</time>
      </trkpt>
      <trkpt lat="41.612180421" lon="2.538716976">
        <ele>150.10</ele>
        <time>2013-07-28T11:46:02Z</time>
      </trkpt>
      <trkpt lat="41.612079084" lon="2.538909927">
        <ele>149.62</ele>
        <time>2013-07-28T11:46:08Z</time>
      </trkpt>
      <trkpt lat="41.611982022" lon="2.539014533">
        <ele>149.14</ele>
        <time>2013-07-28T11:46:13Z</time>
      </trkpt>
      <trkpt lat="41.611932485" lon="2.538943371">
        <ele>149.14</ele>
        <time>2013-07-28T11:46:17Z</time>
      </trkpt>
      <trkpt lat="41.611849252" lon="2.538691076">
        <ele>151.54</ele>
        <time>2013-07-28T11:46:26Z</time>
      </trkpt>
      <trkpt lat="41.611744395" lon="2.538700380">
        <ele>152.03</ele>
        <time>2013-07-28T11:46:30Z</time>
      </trkpt>
      <trkpt lat="41.611410795" lon="2.538725274">
        <ele>150.58</ele>
        <time>2013-07-28T11:46:36Z</time>
      </trkpt>
      <trkpt lat="41.611152129" lon="2.538743546">
        <ele>149.62</ele>
        <time>2013-07-28T11:46:40Z</time>
      </trkpt>
      <trkpt lat="41.610744350" lon="2.538915794">
        <ele>147.22</ele>
        <time>2013-07-28T11:46:48Z</time>
      </trkpt>
      <trkpt lat="41.610539412" lon="2.539040769">
        <ele>146.26</ele>
        <time>2013-07-28T11:46:52Z</time>
      </trkpt>
      <trkpt lat="41.610156443" lon="2.539270349">
        <ele>143.85</ele>
        <time>2013-07-28T11:46:59Z</time>
      </trkpt>
      <trkpt lat="41.609775653" lon="2.539497750">
        <ele>141.93</ele>
        <time>2013-07-28T11:47:07Z</time>
      </trkpt>
      <trkpt lat="41.609623438" lon="2.539609397">
        <ele>140.97</ele>
        <time>2013-07-28T11:47:13Z</time>
      </trkpt>
      <trkpt lat="41.609416573" lon="2.539725067">
        <ele>140.01</ele>
        <time>2013-07-28T11:47:19Z</time>
      </trkpt>
      <trkpt lat="41.609224292" lon="2.539884323">
        <ele>139.05</ele>
        <time>2013-07-28T11:47:25Z</time>
      </trkpt>
      <trkpt lat="41.609147011" lon="2.540019104">
        <ele>138.57</ele>
        <time>2013-07-28T11:47:32Z</time>
      </trkpt>
      <trkpt lat="41.609128151" lon="2.540089009">
        <ele>138.09</ele>
        <time>2013-07-28T11:47:36Z</time>
      </trkpt>
      <trkpt lat="41.609109711" lon="2.540161178">
        <ele>138.09</ele>
        <time>2013-07-28T11:47:40Z</time>
      </trkpt>
      <trkpt lat="41.608999740" lon="2.540248852">
        <ele>137.61</ele>
        <time>2013-07-28T11:47:47Z</time>
      </trkpt>
      <trkpt lat="41.608889770" lon="2.540382795">
        <ele>137.61</ele>
        <time>2013-07-28T11:47:55Z</time>
      </trkpt>
      <trkpt lat="41.608840233" lon="2.540448006">
        <ele>137.13</ele>
        <time>2013-07-28T11:48:02Z</time>
      </trkpt>
      <trkpt lat="41.608862613" lon="2.540505506">
        <ele>137.13</ele>
        <time>2013-07-28T11:48:17Z</time>
      </trkpt>
      <trkpt lat="41.608873341" lon="2.540520510">
        <ele>137.13</ele>
        <time>2013-07-28T11:48:31Z</time>
      </trkpt>
      <trkpt lat="41.608892368" lon="2.540490754">
        <ele>137.13</ele>
        <time>2013-07-28T11:48:45Z</time>
      </trkpt>
      <trkpt lat="41.608896811" lon="2.540481702">
        <ele>137.13</ele>
        <time>2013-07-28T11:49:01Z</time>
      </trkpt>
      <trkpt lat="41.608907623" lon="2.540480193">
        <ele>137.13</ele>
        <time>2013-07-28T11:49:20Z</time>
      </trkpt>
      <trkpt lat="41.608908378" lon="2.540482121">
        <ele>137.13</ele>
        <time>2013-07-28T11:49:32Z</time>
      </trkpt>
      <trkpt lat="41.608900583" lon="2.540489245">
        <ele>137.13</ele>
        <time>2013-07-28T11:49:44Z</time>
      </trkpt>
      <trkpt lat="41.608884825" lon="2.540486312">
        <ele>137.13</ele>
        <time>2013-07-28T11:49:52Z</time>
      </trkpt>
      <trkpt lat="41.608831013" lon="2.540292941">
        <ele>136.16</ele>
        <time>2013-07-28T11:49:59Z</time>
      </trkpt>
      <trkpt lat="41.608738057" lon="2.540284643">
        <ele>136.16</ele>
        <time>2013-07-28T11:50:02Z</time>
      </trkpt>
      <trkpt lat="41.608403620" lon="2.540328564">
        <ele>135.68</ele>
        <time>2013-07-28T11:50:09Z</time>
      </trkpt>
      <trkpt lat="41.607876398" lon="2.540401403">
        <ele>134.72</ele>
        <time>2013-07-28T11:50:21Z</time>
      </trkpt>
      <trkpt lat="41.607618068" lon="2.540469213">
        <ele>133.76</ele>
        <time>2013-07-28T11:50:28Z</time>
      </trkpt>
      <trkpt lat="41.607495608" lon="2.540688232">
        <ele>133.76</ele>
        <time>2013-07-28T11:50:34Z</time>
      </trkpt>
      <trkpt lat="41.607468618" lon="2.540731315">
        <ele>133.76</ele>
        <time>2013-07-28T11:50:36Z</time>
      </trkpt>
      <trkpt lat="41.607345320" lon="2.540762998">
        <ele>133.28</ele>
        <time>2013-07-28T11:50:40Z</time>
      </trkpt>
      <trkpt lat="41.606977271" lon="2.540688399">
        <ele>132.32</ele>
        <time>2013-07-28T11:50:49Z</time>
      </trkpt>
      <trkpt lat="41.606889429" lon="2.540667361">
        <ele>132.32</ele>
        <time>2013-07-28T11:50:51Z</time>
      </trkpt>
      <trkpt lat="41.606437393" lon="2.540452616">
        <ele>130.40</ele>
        <time>2013-07-28T11:51:01Z</time>
      </trkpt>
      <trkpt lat="41.606235305" lon="2.540351195">
        <ele>129.92</ele>
        <time>2013-07-28T11:51:05Z</time>
      </trkpt>
      <trkpt lat="41.606123910" lon="2.540313393">
        <ele>129.92</ele>
        <time>2013-07-28T11:51:07Z</time>
      </trkpt>
      <trkpt lat="41.605928360" lon="2.540324457">
        <ele>129.43</ele>
        <time>2013-07-28T11:51:11Z</time>
      </trkpt>
      <trkpt lat="41.605917966" lon="2.540412970">
        <ele>129.43</ele>
        <time>2013-07-28T11:51:15Z</time>
      </trkpt>
      <trkpt lat="41.605950572" lon="2.540446078">
        <ele>129.43</ele>
        <time>2013-07-28T11:51:17Z</time>
      </trkpt>
      <trkpt lat="41.606067499" lon="2.540632660">
        <ele>129.43</ele>
        <time>2013-07-28T11:51:24Z</time>
      </trkpt>
      <trkpt lat="41.606097004" lon="2.540640958">
        <ele>129.43</ele>
        <time>2013-07-28T11:51:25Z</time>
      </trkpt>
      <trkpt lat="41.606266318" lon="2.540664511">
        <ele>130.40</ele>
        <time>2013-07-28T11:51:31Z</time>
      </trkpt>
      <trkpt lat="41.606471423" lon="2.540744390">
        <ele>130.88</ele>
        <time>2013-07-28T11:51:40Z</time>
      </trkpt>
      <trkpt lat="41.606557338" lon="2.540879171">
        <ele>131.84</ele>
        <time>2013-07-28T11:51:46Z</time>
      </trkpt>
      <trkpt lat="41.606638139" lon="2.541135742">
        <ele>133.28</ele>
        <time>2013-07-28T11:51:54Z</time>
      </trkpt>
      <trkpt lat="41.606699746" lon="2.541397844">
        <ele>134.24</ele>
        <time>2013-07-28T11:52:03Z</time>
      </trkpt>
      <trkpt lat="41.606762778" lon="2.541594986">
        <ele>135.20</ele>
        <time>2013-07-28T11:52:11Z</time>
      </trkpt>
      <trkpt lat="41.606844753" lon="2.541839738">
        <ele>136.64</ele>
        <time>2013-07-28T11:52:20Z</time>
      </trkpt>
      <trkpt lat="41.606915077" lon="2.542044340">
        <ele>137.61</ele>
        <time>2013-07-28T11:52:28Z</time>
      </trkpt>
      <trkpt lat="41.606989760" lon="2.542254223">
        <ele>139.05</ele>
        <time>2013-07-28T11:52:37Z</time>
      </trkpt>
      <trkpt lat="41.606996130" lon="2.542274088">
        <ele>139.05</ele>
        <time>2013-07-28T11:52:38Z</time>
      </trkpt>
      <trkpt lat="41.607022533" lon="2.542310130">
        <ele>139.53</ele>
        <time>2013-07-28T11:52:44Z</time>
      </trkpt>
      <trkpt lat="41.607034184" lon="2.542317338">
        <ele>140.01</ele>
        <time>2013-07-28T11:52:52Z</time>
      </trkpt>
      <trkpt lat="41.607051367" lon="2.542368133">
        <ele>140.01</ele>
        <time>2013-07-28T11:53:04Z</time>
      </trkpt>
      <trkpt lat="41.607051786" lon="2.542361176">
        <ele>140.49</ele>
        <time>2013-07-28T11:53:22Z</time>
      </trkpt>
    </trkseg>
  </trk>
</gpx>
